[[{"header":{"parameterUnit":"m.s-1","parameterCategory":1,"la1":31.0,"la2":29.5877,"lo1":-88.7671,"lo2":-86.6584,"dx":0.0162,"dy":0.0185,"nx":115,"ny":88,"refTime":"2022-12-01T06:00:00:Z","depth":0,"parameterNumber":2,"parameterNumberName":"U-component_of_WINDS"},"data":[0.0,0.0,0.0,0.0,0.0,0.0,0.0,0.0,0.0,0.0,0.0,0.0,0.0,0.0,0.0,0.0,0.0,0.0,0.0,0.0,0.0,0.0,0.0,0.0,0.0,0.0,0.0,0.0,0.0,0.0,0.0,0.0,0.0,0.0,0.0,0.0,0.0,0.0,0.0,0.0,0.0,0.0,0.0,0.0,0.0,0.0,0.0,0.0,0.0,0.0,0.0,0.0,0.0,0.0,0.0,0.0,0.0,0.0,0.0,0.0,0.0,0.0,0.0,0.0,0.0,0.0,0.0,0.0,0.0,0.0,0.0,0.0,0.0,0.0,0.0,0.0,0.0,0.0,0.0,0.0,0.0,0.0,0.0,0.0,0.0,0.0,0.0,0.0,0.0,0.0,0.0,0.0,0.0,0.0,0.0,0.0,0.0,0.0,0.0,0.0,0.0,0.0,0.0,0.0,0.0,0.0,0.0,0.0,0.0,0.0,0.0,0.0,0.0,0.0,0.0,0.0,0.0,0.0,0.0,0.0,0.0,0.0,0.0,0.0,0.0,0.0,0.0,0.0,0.0,0.0,0.0,0.0,0.0,0.0,0.0,0.0,0.0,0.0,0.0,0.0,0.0,0.0,0.0,0.0,0.0,0.0,0.0,0.0,0.0,0.0,0.0,0.0,0.0,0.0,0.0,0.0,0.0,0.0,0.0,0.0,0.0,0.0,0.0,0.0,0.0,0.0,0.0,0.0,0.0,0.0,0.0,0.0,0.0,0.0,0.0,0.0,0.0,0.0,0.0,0.0,0.0,0.0,0.0,0.0,0.0,0.0,0.0,0.0,0.0,0.0,0.0,0.0,0.0,0.0,0.0,0.0,0.0,0.0,0.0,0.0,0.0,0.0,0.0,0.0,0.0,0.0,0.0,0.0,0.0,0.0,0.0,0.0,0.0,0.0,0.0,0.0,0.0,0.0,0.0,0.0,0.0,0.0,0.0,0.0,0.0,0.0,0.0,0.0,0.0,0.0,0.0,0.0,0.0,0.0,0.0,0.0,0.0,0.0,0.0,0.0,0.0,0.0,0.0,0.0,0.0,0.0,0.0,0.0,0.0,0.0,0.0,0.0,0.0,0.0,0.0,0.0,0.0,0.0,0.0,0.0,0.0,0.0,0.0,0.0,0.0,0.0,0.0,0.0,0.0,0.0,0.0,0.0,0.0,0.0,0.0,0.0,0.0,0.0,0.0,0.0,0.0,0.0,0.0,0.0,0.0,0.0,0.0,0.0,0.0,0.0,0.0,0.0,0.0,0.0,0.0,0.0,0.0,0.0,0.0,0.0,0.0,0.0,0.0,0.0,0.0,0.0,0.0,0.0,0.0,0.0,0.0,0.0,0.0,0.0,0.0,0.0,0.0,0.0,0.0,0.0,0.0,0.0,0.0,0.0,0.0,0.0,0.0,0.0,0.0,0.0,0.0,0.0,0.0,0.0,0.0,0.0,0.0,0.0,0.0,0.0,0.0,0.0,0.0,0.0,0.0,0.0,0.0,0.0,0.0,0.0,0.0,0.0,0.0,0.0,0.0,0.0,0.0,0.0,0.0,0.0,0.0,0.0,0.0,0.0,0.0,0.0,0.0,0.0,0.0,0.0,0.0,0.0,0.0,0.0,0.0,0.0,0.0,0.0,0.0,0.0,0.0,0.0,0.0,0.0,0.0,0.0,0.0,0.0,0.0,0.0,0.0,0.0,0.0,0.0,0.0,0.0,0.0,0.0,0.0,0.0,0.0,0.0,0.0,0.0,0.0,0.0,0.0,0.0,0.0,0.0,0.0,0.0,0.0,0.0,0.0,0.0,0.0,0.0,0.0,0.0,0.0,0.0,0.0,0.0,0.0,0.0,0.0,0.0,0.0,0.0,0.0,0.0,0.0,0.0,0.0,0.0,0.0,0.0,0.0,0.0,0.0,0.0,0.0,0.0,0.0,0.0,0.0,0.0,0.0,0.0,0.0,0.0,0.0,0.0,0.0,0.0,0.0,0.0,0.0,0.0,0.0,0.0,0.0,0.0,0.0,0.0,0.0,0.0,0.0,0.0,0.0,0.0,0.0,0.0,0.0,0.0,0.0,0.0,0.0,0.0,0.0,0.0,0.0,0.0,0.0,0.0,0.0,0.0,0.0,0.0,0.0,0.0,0.0,0.0,0.0,0.0,0.0,0.0,0.0,0.0,0.0,0.0,0.0,0.0,0.0,0.0,0.0,0.0,0.0,0.0,0.0,0.0,0.0,0.0,0.0,0.0,0.0,0.0,0.0,0.0,0.0,0.0,0.0,0.0,0.0,0.0,0.0,0.0,0.0,0.0,0.0,0.0,0.0,0.0,0.0,0.0,0.0,0.0,0.0,0.0,0.0,0.0,0.0,0.0,0.0,0.0,0.0,0.0,0.0,0.0,0.0,0.0,0.0,0.0,0.0,0.0,0.0,0.0,0.0,0.0,0.0,0.0,0.0,0.0,0.0,0.0,0.0,0.0,0.0,0.0,0.0,0.0,0.0,0.0,0.0,0.0,0.0,0.0,0.0,0.0,0.0,0.0,0.0,0.0,0.0,0.0,0.0,0.0,0.0,0.0,0.0,0.0,0.0,0.0,0.0,0.0,0.0,0.0,0.0,0.0,0.0,0.0,0.0,0.0,0.0,0.0,0.0,0.0,0.0,0.0,0.0,0.0,0.0,0.0,0.0,0.0,0.0,0.0,0.0,0.0,0.0,0.0,0.0,0.0,0.0,0.0,0.0,0.0,0.0,0.0,0.0,0.0,0.0,0.0,0.0,0.0,0.0,0.0,0.0,0.0,0.0,0.0,0.0,0.0,0.0,0.0,0.0,0.0,0.0,0.0,0.0,0.0,0.0,0.0,0.0,0.0,0.0,0.0,0.0,0.0,0.0,0.0,0.0,0.0,0.0,0.0,0.0,0.0,0.0,0.0,0.0,0.0,0.0,0.0,0.0,0.0,0.0,0.0,0.0,0.0,0.0,0.0,0.0,0.0,0.0,0.0,0.0,0.0,0.0,0.0,0.0,0.0,0.0,0.0,0.0,0.0,0.0,0.0,0.0,0.0,0.0,0.0,0.0,0.0,0.0,0.0,0.0,0.0,0.0,0.0,0.0,0.0,0.0,0.0,0.0,0.0,0.0,0.0,0.0,0.0,0.0,0.0,0.0,0.0,0.0,0.0,0.0,0.0,0.0,0.0,0.0,0.0,0.0,0.0,0.0,0.0,0.0,0.0,0.0,0.0,0.0,0.0,0.0,0.0,0.0,0.0,0.0,0.0,0.0,0.0,0.0,0.0,0.0,0.0,0.0,0.0,0.0,0.0,0.0,0.0,0.0,0.0,0.0,0.0,0.0,0.0,0.0,0.0,0.0,0.0,0.0,0.0,0.0,0.0,0.0,0.0,0.0,0.0,0.0,0.0,0.0,0.0,0.0,0.0,0.0,0.0,0.0,0.0,0.0,0.0,0.0,0.0,0.0,0.0,0.0,0.0,0.0,0.0,0.0,0.0,0.0,0.0,0.0,0.0,0.0,0.0,0.0,0.0,0.0,0.0,0.0,0.0,0.0,0.0,0.0,0.0,0.0,0.0,0.0,0.0,0.0,0.0,0.0,0.0,0.0,0.0,0.0,0.0,0.0,0.0,0.0,0.0,0.0,0.0,0.0,0.0,0.0,0.0,0.0,0.0,0.0,0.0,0.0,0.0,0.0,0.0,0.0,0.0,0.0,0.0,0.0,0.0,0.0,0.0,0.0,0.0,0.0,0.0,0.0,0.0,0.0,0.0,0.0,0.0,0.0,0.0,0.0,0.0,0.0,0.0,0.0,0.0,0.0,0.0,0.0,0.0,0.0,0.0,0.0,0.0,0.0,0.0,0.0,0.0,0.0,0.0,0.0,0.0,0.0,0.0,0.0,0.0,0.0,0.0,0.0,0.0,0.0,0.0,0.0,0.0,0.0,0.0,0.0,0.0,0.0,0.0,0.0,0.0,0.0,0.0,0.0,0.0,0.0,0.0,0.0,0.0,0.0,0.0,0.0,0.0,0.0,0.0,0.0,0.0,0.0,0.0,0.0,0.0,0.0,0.0,0.0,0.0,0.0,0.0,0.0,0.0,0.0,0.0,0.0,0.0,0.0,0.0,0.0,0.0,0.0,0.0,0.0,0.0,0.0,0.0,0.0,0.0,0.0,0.0,0.0,0.0,0.0,0.0,0.0,0.0,0.0,0.0,2.3232,0.0,0.0,0.0,2.2439,0.0,0.0,0.0,0.0,0.0,0.0,0.0,0.0,0.0,0.0,0.0,0.0,0.0,0.0,0.0,0.0,0.0,0.0,0.0,0.0,0.0,0.0,0.0,0.0,0.0,0.0,0.0,0.0,0.0,0.0,0.0,0.0,0.0,0.0,0.0,0.0,0.0,0.0,0.0,0.0,0.0,0.0,0.0,0.0,0.0,0.0,0.0,0.0,0.0,0.0,0.0,0.0,0.0,0.0,0.0,0.0,0.0,0.0,0.0,0.0,0.0,0.0,0.0,0.0,0.0,0.0,0.0,0.0,0.0,0.0,0.0,0.0,0.0,0.0,0.0,0.0,0.0,0.0,0.0,0.0,0.0,0.0,0.0,0.0,0.0,0.0,0.0,0.0,0.0,0.0,0.0,0.0,0.0,0.0,0.0,0.0,0.0,0.0,0.0,0.0,0.0,0.0,0.0,0.0,0.0,0.0,0.0,0.0,0.0,0.0,2.3093,2.3647,2.2768,2.2305,2.2297,0.0,0.0,0.0,0.0,0.0,0.0,0.0,0.0,0.0,0.0,0.0,0.0,0.0,0.0,0.0,0.0,0.0,0.0,0.0,0.0,0.0,0.0,0.0,0.0,0.0,0.0,0.0,0.0,0.0,0.0,0.0,0.0,0.0,0.0,0.0,0.0,0.0,0.0,0.0,0.0,0.0,0.0,0.0,0.0,0.0,0.0,0.0,0.0,0.0,0.0,0.0,0.0,0.0,0.0,0.0,0.0,0.0,0.0,0.0,0.0,0.0,0.0,0.0,0.0,0.0,0.0,0.0,0.0,0.0,0.0,0.0,0.0,0.0,0.0,0.0,0.0,0.0,0.0,0.0,0.0,0.0,0.0,0.0,0.0,0.0,0.0,0.0,0.0,0.0,0.0,0.0,0.0,0.0,0.0,0.0,0.0,0.0,0.0,0.0,0.0,0.0,0.0,0.0,0.0,0.0,0.0,0.0,0.0,0.0,0.0,0.0,0.0,2.2875,2.2272,2.1834,0.0,0.0,0.0,0.0,0.0,0.0,0.0,0.0,0.0,0.0,0.0,0.0,0.0,0.0,0.0,0.0,0.0,0.0,0.0,0.0,0.0,0.0,0.0,0.0,0.0,0.0,0.0,0.0,0.0,0.0,0.0,0.0,0.0,0.0,0.0,0.0,0.0,0.0,0.0,0.0,0.0,0.0,0.0,0.0,0.0,0.0,0.0,0.0,0.0,0.0,0.0,0.0,0.0,0.0,0.0,0.0,0.0,0.0,0.0,0.0,0.0,0.0,0.0,0.0,0.0,0.0,0.0,0.0,0.0,0.0,0.0,0.0,0.0,0.0,0.0,0.0,0.0,0.0,0.0,0.0,0.0,0.0,0.0,0.0,0.0,0.0,0.0,0.0,0.0,0.0,0.0,0.0,0.0,0.0,0.0,0.0,0.0,0.0,0.0,0.0,0.0,0.0,0.0,0.0,0.0,0.0,0.0,0.0,0.0,0.0,2.3624,2.4276,2.403,0.0,2.1476,0.0,0.0,0.0,0.0,0.0,0.0,0.0,0.0,0.0,0.0,0.0,0.0,0.0,0.0,0.0,0.0,0.0,0.0,0.0,0.0,0.0,0.0,0.0,0.0,0.0,0.0,0.0,0.0,0.0,0.0,0.0,0.0,0.0,0.0,0.0,0.0,0.0,0.0,0.0,0.0,0.0,0.0,0.0,0.0,0.0,0.0,0.0,0.0,0.0,0.0,0.0,0.0,0.0,0.0,0.0,0.0,0.0,0.0,0.0,0.0,0.0,0.0,0.0,0.0,0.0,0.0,0.0,0.0,0.0,0.0,0.0,0.0,0.0,0.0,0.0,0.0,0.0,0.0,0.0,0.0,0.0,0.0,0.0,0.0,0.0,0.0,0.0,0.0,0.0,0.0,0.0,0.0,0.0,0.0,0.0,0.0,0.0,0.0,0.0,0.0,0.0,0.0,0.0,0.0,0.0,0.0,0.0,0.0,0.0,0.0,2.3102,2.3376,2.2926,2.2313,0.0,0.0,0.0,0.0,0.0,0.0,0.0,0.0,0.0,0.0,0.0,0.0,0.0,0.0,0.0,0.0,0.0,0.0,0.0,0.0,0.0,0.0,0.0,0.0,0.0,0.0,0.0,0.0,0.0,0.0,0.0,0.0,0.0,0.0,0.0,0.0,0.0,0.0,0.0,0.0,0.0,0.0,0.0,0.0,0.0,0.0,0.0,0.0,0.0,0.0,0.0,0.0,0.0,0.0,0.0,0.0,0.0,0.0,0.0,0.0,0.0,0.0,0.0,0.0,0.0,0.0,0.0,0.0,0.0,0.0,0.0,0.0,0.0,0.0,0.0,0.0,0.0,0.0,0.0,0.0,0.0,0.0,0.0,0.0,0.0,0.0,0.0,0.0,0.0,0.0,0.0,0.0,0.0,0.0,0.0,0.0,0.0,0.0,0.0,0.0,0.0,0.0,0.0,0.0,0.0,0.0,0.0,0.0,0.0,0.0,2.2164,2.2523,2.2673,2.2573,2.2173,2.1445,0.0,0.0,0.0,0.0,0.0,0.0,0.0,0.0,0.0,0.0,0.0,0.0,0.0,0.0,0.0,0.0,0.0,0.0,0.0,0.0,0.0,0.0,0.0,0.0,0.0,0.0,0.0,0.0,0.0,0.0,0.0,0.0,0.0,0.0,0.0,0.0,0.0,0.0,0.0,0.0,0.0,0.0,0.0,0.0,0.0,0.0,0.0,0.0,0.0,0.0,0.0,0.0,0.0,0.0,0.0,0.0,0.0,0.0,0.0,0.0,0.0,0.0,0.0,0.0,0.0,0.0,0.0,0.0,0.0,0.0,0.0,0.0,0.0,0.0,0.0,0.0,0.0,0.0,0.0,0.0,0.0,0.0,0.0,0.0,0.0,0.0,0.0,0.0,0.0,0.0,0.0,0.0,0.0,0.0,0.0,0.0,0.0,0.0,0.0,0.0,0.0,0.0,0.0,0.0,0.0,0.0,0.0,0.0,2.1635,2.1724,2.2074,2.2722,2.3838,2.3289,0.0,0.0,0.0,0.0,0.0,0.0,0.0,0.0,0.0,0.0,0.0,0.0,0.0,0.0,0.0,0.0,0.0,0.0,0.0,0.0,0.0,0.0,0.0,0.0,0.0,0.0,0.0,0.0,0.0,0.0,0.0,0.0,0.0,0.0,0.0,0.0,0.0,0.0,0.0,0.0,0.0,0.0,0.0,0.0,0.0,0.0,0.0,0.0,0.0,0.0,0.0,0.0,0.0,0.0,0.0,0.0,0.0,0.0,0.0,0.0,0.0,0.0,0.0,0.0,0.0,0.0,0.0,0.0,0.0,0.0,0.0,0.0,0.0,0.0,0.0,0.0,0.0,0.0,0.0,0.0,0.0,0.0,0.0,0.0,0.0,0.0,0.0,0.0,0.0,0.0,0.0,0.0,0.0,0.0,0.0,0.0,0.0,0.0,0.0,0.0,0.0,0.0,0.0,0.0,0.0,0.0,0.0,0.0,0.0,1.9933,2.0323,2.1474,2.3285,2.2564,2.2073,0.0,0.0,0.0,0.0,0.0,0.0,0.0,0.0,0.0,0.0,0.0,0.0,0.0,0.0,0.0,0.0,0.0,0.0,0.0,0.0,0.0,0.0,0.0,0.0,0.0,0.0,0.0,0.0,0.0,0.0,0.0,0.0,0.0,0.0,0.0,0.0,0.0,0.0,0.0,0.0,0.0,0.0,0.0,0.0,0.0,0.0,0.0,0.0,0.0,0.0,0.0,0.0,0.0,0.0,0.0,0.0,0.0,0.0,0.0,0.0,0.0,0.0,0.0,0.0,0.0,0.0,0.0,0.0,0.0,0.0,0.0,0.0,0.0,0.0,0.0,0.0,0.0,0.0,0.0,0.0,0.0,0.0,0.0,0.0,0.0,0.0,0.0,0.0,0.0,0.0,0.0,0.0,0.0,0.0,0.0,0.0,0.0,0.0,0.0,0.0,0.0,0.0,0.0,0.0,0.0,0.0,0.0,0.0,0.0,1.9262,2.0069,2.1247,2.2651,2.1867,2.1455,0.0,0.0,0.0,0.0,0.0,0.0,0.0,0.0,0.0,0.0,0.0,0.0,0.0,0.0,0.0,0.0,0.0,0.0,0.0,0.0,0.0,0.0,0.0,0.0,0.0,0.0,0.0,0.0,0.0,0.0,0.0,0.0,0.0,0.0,0.0,0.0,0.0,0.0,0.0,0.0,0.0,0.0,0.0,0.0,0.0,0.0,0.0,0.0,0.0,0.0,0.0,0.0,0.0,0.0,0.0,0.0,0.0,0.0,0.0,0.0,0.0,0.0,0.0,0.0,0.0,0.0,0.0,0.0,0.0,0.0,0.0,0.0,0.0,0.0,0.0,0.0,0.0,0.0,0.0,0.0,0.0,0.0,0.0,0.0,0.0,0.0,0.0,0.0,0.0,0.0,0.0,0.0,0.0,0.0,0.0,0.0,0.0,0.0,0.0,0.0,0.0,0.0,0.0,0.0,0.0,0.0,0.0,0.0,1.9241,1.9875,2.1042,2.1345,2.0788,2.1934,2.1715,0.0,0.0,0.0,0.0,0.0,0.0,0.0,0.0,0.0,0.0,0.0,0.0,0.0,0.0,0.0,0.0,0.0,0.0,0.0,0.0,0.0,0.0,0.0,0.0,0.0,0.0,0.0,0.0,0.0,0.0,0.0,0.0,0.0,0.0,0.0,0.0,0.0,0.0,0.0,0.0,0.0,0.0,0.0,0.0,0.0,0.0,0.0,0.0,0.0,0.0,0.0,0.0,0.0,0.0,0.0,0.0,0.0,0.0,0.0,0.0,0.0,0.0,0.0,0.0,0.0,0.0,0.0,0.0,0.0,0.0,0.0,0.0,0.0,0.0,0.0,0.0,0.0,0.0,0.0,0.0,0.0,0.0,0.0,0.0,0.0,0.0,0.0,0.0,0.0,0.0,0.0,0.0,0.0,0.0,0.0,0.0,0.0,0.0,0.0,0.0,0.0,0.0,0.0,0.0,0.0,0.0,0.0,0.0,0.0,1.9317,2.0347,2.1085,2.136,2.1287,2.1192,0.0,0.0,0.0,0.0,0.0,0.0,0.0,0.0,0.0,0.0,0.0,0.0,0.0,0.0,0.0,0.0,0.0,0.0,0.0,0.0,0.0,0.0,0.0,0.0,0.0,0.0,0.0,0.0,0.0,0.0,0.0,0.0,0.0,0.0,0.0,0.0,0.0,0.0,0.0,0.0,0.0,0.0,0.0,0.0,0.0,0.0,0.0,0.0,0.0,0.0,0.0,0.0,0.0,0.0,0.0,0.0,0.0,0.0,0.0,0.0,0.0,0.0,0.0,0.0,0.0,0.0,0.0,0.0,0.0,0.0,0.0,0.0,0.0,0.0,0.0,0.0,0.0,0.0,0.0,0.0,0.0,0.0,0.0,0.0,0.0,0.0,0.0,0.0,0.0,0.0,0.0,0.0,0.0,0.0,0.0,0.0,0.0,0.0,0.0,0.0,0.0,0.0,0.0,0.0,0.0,0.0,0.0,0.0,0.0,2.1022,2.1874,2.2463,2.2673,2.2043,2.1575,2.1273,0.0,0.0,0.0,0.0,0.0,0.0,0.0,0.0,0.0,0.0,0.0,0.0,0.0,0.0,0.0,0.0,0.0,0.0,0.0,0.0,0.0,0.0,0.0,0.0,0.0,0.0,0.0,0.0,0.0,0.0,0.0,0.0,0.0,0.0,0.0,0.0,0.0,0.0,0.0,0.0,0.0,0.0,0.0,0.0,0.0,0.0,0.0,0.0,0.0,0.0,0.0,0.0,0.0,0.0,0.0,0.0,0.0,0.0,0.0,0.0,0.0,0.0,0.0,0.0,0.0,0.0,0.0,0.0,0.0,0.0,0.0,0.0,0.0,0.0,0.0,0.0,0.0,0.0,0.0,0.0,0.0,0.0,0.0,0.0,0.0,0.0,0.0,0.0,0.0,0.0,0.0,0.0,0.0,0.0,0.0,0.0,0.0,0.0,0.0,0.0,0.0,0.0,0.0,0.0,0.0,0.0,0.0,0.0,2.4515,2.5252,2.5273,2.4544,2.3888,2.2689,0.0,0.0,0.0,0.0,0.0,0.0,0.0,0.0,0.0,0.0,0.0,0.0,0.0,0.0,0.0,0.0,0.0,0.0,0.0,0.0,0.0,0.0,0.0,0.0,0.0,0.0,0.0,0.0,0.0,0.0,0.0,0.0,0.0,0.0,0.0,0.0,0.0,0.0,0.0,0.0,0.0,0.0,0.0,0.0,0.0,0.0,0.0,0.0,0.0,0.0,0.0,0.0,0.0,0.0,0.0,0.0,0.0,0.0,0.0,0.0,0.0,0.0,0.0,0.0,0.0,0.0,0.0,0.0,0.0,0.0,0.0,0.0,0.0,0.0,0.0,0.0,0.0,0.0,0.0,0.0,0.0,0.0,0.0,0.0,0.0,0.0,0.0,0.0,0.0,0.0,0.0,0.0,0.0,0.0,0.0,0.0,0.0,0.0,0.0,0.0,0.0,0.0,0.0,0.0,0.0,0.0,0.0,0.0,0.0,2.7115,2.897,2.9014,2.7003,2.4684,2.3191,0.0,0.0,0.0,0.0,0.0,0.0,0.0,0.0,0.0,0.0,0.0,0.0,0.0,0.0,0.0,0.0,0.0,0.0,0.0,0.0,0.0,0.0,0.0,0.0,0.0,0.0,0.0,0.0,0.0,0.0,0.0,0.0,0.0,0.0,0.0,0.0,0.0,0.0,0.0,0.0,0.0,0.0,0.0,0.0,0.0,0.0,0.0,0.0,0.0,0.0,0.0,0.0,0.0,0.0,0.0,0.0,0.0,0.0,0.0,0.0,0.0,0.0,0.0,0.0,0.0,0.0,0.0,0.0,0.0,0.0,0.0,0.0,0.0,0.0,0.0,0.0,0.0,0.0,0.0,0.0,0.0,0.0,0.0,0.0,0.0,0.0,0.0,0.0,0.0,0.0,0.0,0.0,0.0,0.0,0.0,0.0,0.0,0.0,0.0,0.0,0.0,0.0,0.0,0.0,0.0,0.0,0.0,0.0,2.657,2.9177,3.1854,3.2311,3.0412,2.6844,2.4325,0.0,0.0,0.0,0.0,0.0,0.0,0.0,0.0,0.0,0.0,0.0,0.0,0.0,0.0,0.0,0.0,0.0,0.0,0.0,0.0,0.0,0.0,0.0,0.0,0.0,0.0,0.0,0.0,0.0,0.0,0.0,0.0,0.0,0.0,0.0,0.0,0.0,0.0,0.0,0.0,0.0,0.0,0.0,0.0,0.0,0.0,0.0,0.0,0.0,0.0,0.0,0.0,0.0,0.0,0.0,0.0,0.0,0.0,0.0,0.0,0.0,0.0,0.0,0.0,0.0,0.0,0.0,0.0,0.0,0.0,0.0,0.0,0.0,0.0,0.0,0.0,0.0,0.0,0.0,0.0,0.0,0.0,0.0,0.0,0.0,0.0,0.0,0.0,0.0,0.0,0.0,0.0,0.0,0.0,0.0,0.0,0.0,0.0,0.0,0.0,0.0,0.0,0.0,0.0,0.0,0.0,0.0,0.0,2.9563,3.0951,3.3876,3.4871,3.3636,2.9334,2.5642,0.0,0.0,0.0,0.0,0.0,0.0,0.0,0.0,0.0,0.0,0.0,0.0,0.0,0.0,0.0,0.0,0.0,0.0,0.0,0.0,0.0,0.0,0.0,0.0,0.0,0.0,0.0,0.0,0.0,0.0,0.0,0.0,0.0,0.0,0.0,0.0,0.0,0.0,0.0,0.0,0.0,0.0,0.0,0.0,0.0,0.0,0.0,0.0,0.0,0.0,0.0,0.0,0.0,0.0,0.0,0.0,0.0,0.0,0.0,0.0,0.0,0.0,0.0,0.0,0.0,0.0,0.0,0.0,0.0,0.0,0.0,0.0,0.0,0.0,0.0,0.0,0.0,0.0,0.0,0.0,0.0,0.0,0.0,0.0,0.0,0.0,0.0,0.0,0.0,0.0,0.0,0.0,0.0,0.0,0.0,0.0,0.0,0.0,0.0,0.0,0.0,0.0,0.0,0.0,0.0,0.0,0.0,0.0,3.0304,3.3198,3.4814,3.4897,3.3322,2.8615,2.551,0.0,0.0,0.0,0.0,0.0,0.0,0.0,0.0,0.0,0.0,0.0,0.0,0.0,0.0,0.0,0.0,0.0,0.0,0.0,0.0,0.0,0.0,0.0,0.0,0.0,0.0,0.0,0.0,0.0,0.0,0.0,0.0,0.0,0.0,0.0,0.0,0.0,0.0,0.0,0.0,0.0,0.0,0.0,0.0,0.0,0.0,0.0,0.0,2.0358,0.0,0.0,0.0,0.0,0.0,0.0,0.0,0.0,0.0,0.0,0.0,0.0,0.0,0.0,0.0,0.0,0.0,0.0,0.0,0.0,0.0,0.0,0.0,0.0,0.0,0.0,0.0,0.0,0.0,0.0,0.0,0.0,0.0,0.0,0.0,0.0,0.0,0.0,0.0,0.0,0.0,0.0,0.0,0.0,0.0,0.0,0.0,0.0,0.0,0.0,0.0,0.0,0.0,0.0,0.0,0.0,0.0,0.0,0.0,3.1034,3.4217,3.5307,3.5181,3.3743,2.9635,2.6385,0.0,0.0,0.0,0.0,0.0,0.0,0.0,0.0,0.0,0.0,0.0,0.0,0.0,0.0,0.0,0.0,0.0,0.0,0.0,0.0,0.0,0.0,0.0,0.0,0.0,0.0,0.0,0.0,0.0,0.0,0.0,0.0,0.0,0.0,0.0,0.0,0.0,0.0,0.0,0.0,0.0,0.0,0.0,0.0,0.0,0.0,0.0,0.0,0.0,0.0,0.0,0.0,0.0,0.0,0.0,0.0,0.0,0.0,0.0,0.0,0.0,0.0,0.0,0.0,0.0,0.0,0.0,0.0,0.0,0.0,0.0,0.0,0.0,0.0,0.0,0.0,0.0,0.0,0.0,0.0,0.0,0.0,0.0,0.0,0.0,0.0,0.0,0.0,0.0,0.0,0.0,0.0,0.0,0.0,0.0,0.0,0.0,0.0,0.0,0.0,0.0,0.0,0.0,0.0,0.0,0.0,0.0,2.8284,3.1567,3.4797,3.5569,3.5405,3.4385,3.0984,2.742,2.3831,0.0,0.0,0.0,0.0,0.0,0.0,0.0,0.0,0.0,0.0,0.0,0.0,0.0,0.0,0.0,0.0,0.0,0.0,0.0,0.0,0.0,0.0,0.0,0.0,0.0,0.0,0.0,0.0,0.0,0.0,0.0,0.0,0.0,0.0,0.0,0.0,0.0,0.0,1.9904,1.9445,0.0,0.0,0.0,0.0,0.0,0.0,0.0,0.0,2.3143,0.0,0.0,0.0,0.0,0.0,0.0,0.0,0.0,0.0,0.0,0.0,0.0,0.0,0.0,0.0,0.0,0.0,0.0,0.0,0.0,0.0,0.0,0.0,0.0,0.0,0.0,0.0,0.0,0.0,0.0,0.0,0.0,0.0,0.0,0.0,0.0,0.0,0.0,0.0,0.0,0.0,0.0,0.0,0.0,0.0,0.0,0.0,0.0,0.0,0.0,0.0,0.0,0.0,0.0,0.0,0.0,2.7658,2.8684,3.1421,3.5943,3.5645,3.4955,3.3872,3.0622,2.7258,2.3824,0.0,0.0,0.0,0.0,0.0,0.0,0.0,0.0,0.0,0.0,0.0,0.0,0.0,0.0,0.0,0.0,0.0,0.0,0.0,0.0,0.0,0.0,0.0,0.0,0.0,0.0,0.0,0.0,0.0,0.0,0.0,0.0,0.0,0.0,0.0,0.0,0.0,0.0,0.0,2.0407,2.0025,0.0,0.0,0.0,0.0,0.0,0.0,0.0,0.0,2.5816,0.0,0.0,0.0,0.0,0.0,0.0,0.0,0.0,0.0,0.0,0.0,0.0,0.0,0.0,0.0,0.0,0.0,0.0,0.0,0.0,0.0,0.0,0.0,0.0,0.0,0.0,0.0,0.0,0.0,0.0,0.0,0.0,0.0,0.0,0.0,0.0,0.0,0.0,0.0,0.0,0.0,0.0,0.0,0.0,0.0,0.0,0.0,0.0,0.0,0.0,0.0,0.0,0.0,0.0,0.0,2.7289,2.9606,3.2412,3.5682,3.4924,3.4069,3.3206,3.0433,2.7278,0.0,0.0,0.0,0.0,0.0,0.0,0.0,0.0,0.0,0.0,0.0,0.0,0.0,0.0,0.0,0.0,0.0,0.0,0.0,0.0,0.0,0.0,0.0,0.0,0.0,0.0,0.0,0.0,0.0,0.0,0.0,0.0,0.0,0.0,0.0,0.0,0.0,0.0,0.0,0.0,2.1393,2.1664,2.3296,0.0,0.0,0.0,0.0,0.0,0.0,2.5448,2.5858,0.0,0.0,0.0,0.0,0.0,0.0,0.0,0.0,0.0,0.0,0.0,0.0,0.0,0.0,0.0,0.0,0.0,0.0,0.0,0.0,0.0,0.0,0.0,0.0,0.0,0.0,0.0,0.0,0.0,0.0,0.0,0.0,0.0,0.0,0.0,0.0,0.0,0.0,0.0,0.0,0.0,0.0,0.0,0.0,0.0,0.0,0.0,0.0,0.0,0.0,0.0,0.0,0.0,0.0,0.0,2.621,2.9895,3.286,3.4817,3.4016,3.3236,3.2673,3.0058,2.7012,0.0,0.0,0.0,0.0,0.0,0.0,0.0,0.0,0.0,0.0,0.0,0.0,0.0,0.0,0.0,0.0,0.0,0.0,0.0,0.0,0.0,0.0,0.0,0.0,0.0,0.0,0.0,0.0,0.0,0.0,0.0,0.0,0.0,0.0,0.0,0.0,0.0,0.0,0.0,0.0,0.0,2.3454,2.4772,2.3888,0.0,0.0,0.0,0.0,2.5447,2.5929,0.0,0.0,0.0,0.0,0.0,0.0,0.0,0.0,0.0,0.0,0.0,0.0,0.0,0.0,0.0,0.0,0.0,0.0,0.0,0.0,0.0,0.0,0.0,0.0,0.0,0.0,0.0,0.0,0.0,0.0,0.0,0.0,0.0,0.0,0.0,0.0,0.0,0.0,0.0,0.0,0.0,0.0,0.0,0.0,0.0,0.0,0.0,0.0,0.0,0.0,0.0,0.0,0.0,0.0,0.0,0.0,2.4993,2.8256,3.1198,3.3698,3.3193,3.2763,3.2655,2.9044,2.5775,0.0,0.0,0.0,0.0,0.0,0.0,0.0,0.0,0.0,0.0,0.0,0.0,0.0,0.0,0.0,0.0,0.0,0.0,0.0,0.0,0.0,0.0,0.0,0.0,0.0,0.0,0.0,0.0,0.0,0.0,0.0,0.0,0.0,0.0,0.0,0.0,0.0,0.0,0.0,0.0,0.0,2.4687,2.6895,2.5579,2.4623,0.0,0.0,2.673,2.71,2.8442,0.0,0.0,0.0,0.0,0.0,0.0,0.0,0.0,0.0,0.0,0.0,0.0,0.0,0.0,0.0,0.0,0.0,0.0,0.0,0.0,0.0,0.0,0.0,0.0,0.0,0.0,0.0,0.0,0.0,0.0,0.0,0.0,0.0,0.0,0.0,0.0,0.0,0.0,0.0,0.0,0.0,0.0,0.0,0.0,0.0,0.0,0.0,0.0,0.0,0.0,0.0,0.0,0.0,0.0,0.0,2.3168,2.4765,2.9096,3.1935,3.3057,3.246,3.2111,3.2111,2.8657,2.5733,0.0,0.0,0.0,0.0,0.0,0.0,0.0,0.0,0.0,0.0,0.0,0.0,0.0,0.0,0.0,0.0,0.0,0.0,0.0,0.0,0.0,0.0,0.0,0.0,0.0,0.0,0.0,0.0,0.0,0.0,0.0,0.0,0.0,0.0,0.0,0.0,0.0,0.0,0.0,0.0,0.0,0.0,2.7671,2.6715,0.0,0.0,0.0,2.7455,2.7163,0.0,0.0,0.0,0.0,0.0,0.0,0.0,0.0,0.0,0.0,0.0,0.0,0.0,0.0,0.0,0.0,0.0,0.0,0.0,0.0,0.0,0.0,0.0,0.0,0.0,0.0,0.0,0.0,0.0,0.0,0.0,0.0,0.0,0.0,0.0,0.0,0.0,0.0,0.0,0.0,0.0,0.0,0.0,0.0,0.0,0.0,0.0,0.0,0.0,0.0,0.0,0.0,0.0,0.0,0.0,0.0,0.0,2.4443,2.9874,3.2615,3.2416,3.1935,3.1717,3.1671,2.8953,0.0,0.0,0.0,0.0,0.0,0.0,0.0,0.0,0.0,0.0,0.0,0.0,0.0,0.0,0.0,0.0,0.0,0.0,0.0,0.0,0.0,0.0,0.0,0.0,0.0,0.0,0.0,1.7242,0.0,0.0,0.0,0.0,0.0,0.0,0.0,0.0,0.0,0.0,0.0,0.0,0.0,0.0,2.7324,2.8205,2.7665,2.7675,0.0,0.0,2.7942,2.7897,2.9521,2.9807,0.0,0.0,0.0,0.0,0.0,0.0,0.0,0.0,0.0,0.0,0.0,0.0,0.0,0.0,0.0,0.0,0.0,0.0,0.0,0.0,0.0,0.0,0.0,0.0,0.0,0.0,0.0,0.0,0.0,0.0,0.0,0.0,0.0,0.0,0.0,0.0,0.0,0.0,0.0,0.0,0.0,0.0,0.0,0.0,0.0,0.0,0.0,0.0,0.0,0.0,0.0,0.0,0.0,0.0,0.0,2.3858,2.9628,3.2422,3.1805,3.1739,3.1717,3.1671,3.015,2.7149,0.0,0.0,0.0,0.0,0.0,0.0,0.0,0.0,0.0,0.0,0.0,0.0,0.0,0.0,0.0,0.0,0.0,0.0,0.0,0.0,0.0,0.0,0.0,0.0,0.0,0.0,0.0,0.0,0.0,0.0,0.0,0.0,0.0,0.0,0.0,0.0,0.0,0.0,0.0,0.0,0.0,2.7905,2.8814,2.8474,2.8767,0.0,0.0,2.8722,3.0284,3.1925,3.1592,2.728,0.0,0.0,0.0,0.0,0.0,0.0,0.0,0.0,0.0,0.0,0.0,0.0,0.0,0.0,0.0,0.0,0.0,0.0,0.0,0.0,0.0,0.0,0.0,0.0,0.0,0.0,0.0,0.0,0.0,0.0,0.0,0.0,0.0,0.0,0.0,0.0,0.0,0.0,0.0,0.0,0.0,0.0,0.0,0.0,0.0,0.0,0.0,0.0,0.0,0.0,0.0,0.0,0.0,2.3451,2.4093,3.0005,3.2932,3.2706,3.2682,3.2537,3.2178,3.0755,2.8257,0.0,0.0,0.0,0.0,0.0,0.0,0.0,0.0,0.0,0.0,0.0,0.0,0.0,0.0,0.0,0.0,0.0,0.0,0.0,0.0,0.0,0.0,0.0,0.0,0.0,0.0,0.0,0.0,2.2056,2.2398,2.1652,0.0,0.0,0.0,0.0,0.0,0.0,0.0,0.0,0.0,0.0,2.8798,3.1009,3.0578,0.0,0.0,3.0766,3.0168,2.9328,3.0744,3.056,2.6474,2.5849,0.0,0.0,0.0,0.0,0.0,0.0,0.0,0.0,0.0,0.0,0.0,0.0,0.0,0.0,0.0,0.0,0.0,0.0,0.0,0.0,0.0,0.0,0.0,0.0,0.0,0.0,0.0,0.0,0.0,0.0,0.0,0.0,0.0,0.0,0.0,0.0,0.0,0.0,0.0,0.0,0.0,0.0,0.0,0.0,0.0,0.0,0.0,0.0,0.0,0.0,0.0,0.0,2.3686,2.455,3.0317,3.3284,3.3284,3.3284,3.3044,3.2492,3.1428,2.9323,0.0,0.0,0.0,0.0,0.0,0.0,0.0,0.0,0.0,0.0,0.0,0.0,0.0,0.0,0.0,0.0,0.0,0.0,0.0,0.0,0.0,0.0,0.0,0.0,0.0,0.0,0.0,0.0,2.2601,2.2537,2.1577,0.0,0.0,0.0,0.0,0.0,0.0,0.0,0.0,0.0,0.0,2.9943,3.1619,3.1275,3.0876,3.0875,3.0685,3.0087,2.8826,2.9867,2.9799,2.6729,0.0,0.0,0.0,0.0,0.0,0.0,0.0,0.0,0.0,0.0,0.0,0.0,0.0,0.0,0.0,0.0,0.0,0.0,0.0,0.0,0.0,0.0,0.0,0.0,0.0,0.0,0.0,0.0,0.0,0.0,1.4858,0.0,0.0,0.0,0.0,0.0,0.0,0.0,0.0,0.0,0.0,0.0,0.0,0.0,0.0,0.0,0.0,0.0,0.0,0.0,0.0,0.0,0.0,2.4112,2.503,3.0508,3.3332,3.3308,3.3308,3.3068,3.2539,3.2217,3.0341,2.6691,0.0,0.0,0.0,0.0,0.0,0.0,0.0,0.0,0.0,0.0,0.0,0.0,0.0,0.0,0.0,0.0,0.0,0.0,0.0,0.0,0.0,0.0,0.0,0.0,0.0,0.0,1.896,1.9999,2.1041,0.0,0.0,0.0,0.0,0.0,0.0,0.0,0.0,0.0,0.0,2.8992,3.1408,2.9916,3.0127,3.0438,3.0387,2.8807,2.805,2.9383,2.9941,2.9881,0.0,0.0,0.0,0.0,0.0,0.0,0.0,0.0,0.0,0.0,0.0,0.0,0.0,0.0,0.0,0.0,0.0,0.0,0.0,0.0,0.0,0.0,0.0,0.0,0.0,0.0,0.0,1.7732,1.6973,0.0,0.0,0.0,0.0,0.0,0.0,0.0,0.0,0.0,0.0,0.0,2.3279,2.3444,0.0,0.0,0.0,0.0,0.0,0.0,0.0,0.0,0.0,0.0,0.0,0.0,2.4947,2.5756,3.131,3.4318,3.4294,3.4126,3.3696,3.3068,3.2765,3.0719,2.6738,0.0,0.0,0.0,0.0,0.0,0.0,0.0,0.0,0.0,0.0,0.0,0.0,0.0,0.0,0.0,0.0,0.0,0.0,0.0,0.0,0.0,0.0,0.0,0.0,0.0,2.1027,0.0,0.0,0.0,0.0,0.0,0.0,0.0,0.0,0.0,0.0,0.0,2.5083,2.73,2.8386,2.9239,2.9959,3.0419,3.113,0.0,0.0,0.0,0.0,0.0,0.0,0.0,0.0,0.0,0.0,0.0,0.0,0.0,0.0,2.7334,2.5391,2.6865,2.8549,2.9035,0.0,0.0,0.0,0.0,0.0,0.0,0.0,0.0,0.0,0.0,0.0,0.0,0.0,0.0,1.9492,0.0,1.9094,0.0,0.0,0.0,0.0,0.0,0.0,0.0,0.0,2.4484,2.5525,2.6128,2.6418,2.6276,0.0,2.532,2.3446,0.0,0.0,0.0,0.0,0.0,0.0,0.0,0.0,2.6214,2.7134,3.2488,3.5206,3.494,3.4792,3.4243,3.3338,3.2769,3.1148,2.8375,2.7162,2.5769,0.0,0.0,0.0,0.0,0.0,0.0,0.0,0.0,0.0,0.0,0.0,0.0,0.0,0.0,0.0,0.0,0.0,0.0,0.0,0.0,0.0,0.0,0.0,2.1859,0.0,0.0,0.0,0.0,0.0,0.0,0.0,0.0,0.0,2.4304,2.5634,2.7398,2.9437,2.9882,2.9984,2.9965,0.0,0.0,0.0,0.0,0.0,0.0,0.0,2.8171,2.7565,2.7939,2.883,3.0268,3.113,3.1559,3.153,0.0,0.0,2.8948,3.0423,3.2263,3.2589,3.3943,3.5152,3.5481,3.5937,3.6393,0.0,0.0,0.0,0.0,0.0,0.0,0.0,0.0,2.1346,2.0879,0.0,2.1218,0.0,0.0,0.0,0.0,0.0,2.403,0.0,0.0,2.9613,3.1179,3.0352,3.0398,3.0577,3.0694,2.892,2.7874,2.7415,2.5576,0.0,0.0,0.0,0.0,0.0,0.0,2.7897,2.928,3.3898,3.5996,3.5243,3.517,3.4571,3.3335,3.2324,3.1644,3.1367,2.9761,2.8798,2.8692,2.4756,0.0,0.0,0.0,0.0,0.0,0.0,0.0,0.0,0.0,0.0,0.0,0.0,0.0,0.0,0.0,0.0,0.0,0.0,0.0,0.0,2.1447,0.0,0.0,0.0,0.0,0.0,0.0,0.0,0.0,0.0,0.0,2.6054,2.8378,3.0515,3.0927,0.0,0.0,0.0,0.0,3.1215,2.787,2.7257,2.7235,2.6942,2.8809,3.0681,3.171,0.0,0.0,3.5193,3.4291,3.3633,3.355,3.5225,3.5633,3.2714,3.3283,3.4342,3.4872,3.6235,3.7239,3.7363,3.7667,3.7965,2.1717,0.0,0.0,0.0,0.0,2.2343,2.3257,2.441,2.4102,2.3477,2.2697,2.2735,0.0,0.0,0.0,0.0,0.0,0.0,2.6952,2.852,2.9761,3.0836,3.1879,3.2465,3.2794,3.2818,3.2793,3.2746,3.2629,3.2488,2.872,2.1721,0.0,0.0,0.0,0.0,2.9465,3.1365,3.4288,3.5711,3.5492,3.4935,3.4191,3.3311,3.3007,3.2627,3.2207,3.2048,3.132,2.988,2.7954,0.0,0.0,0.0,0.0,0.0,0.0,0.0,0.0,0.0,0.0,0.0,0.0,0.0,0.0,0.0,0.0,0.0,0.0,0.0,2.1387,2.2915,2.3595,0.0,0.0,0.0,0.0,0.0,0.0,0.0,0.0,0.0,3.0624,2.9678,2.9231,0.0,0.0,2.887,2.779,2.9776,3.1397,3.1469,3.2073,0.0,3.3506,3.2955,3.2704,3.3347,3.5314,3.6749,3.6614,3.7247,3.7813,3.7783,3.8442,3.8776,3.8407,3.819,3.8342,3.8723,3.9185,3.9616,4.0014,4.0207,4.0375,2.3909,2.3514,2.2893,2.2981,2.3518,2.4137,2.5093,2.6206,2.5957,2.5449,2.4848,2.5056,2.4024,2.213,2.2383,0.0,0.0,0.0,2.8802,3.0736,3.0931,3.1718,3.297,3.3158,3.3736,3.4599,3.4587,3.4921,3.5586,3.5329,3.2364,2.6902,0.0,0.0,2.5848,2.917,3.1654,3.3272,3.5331,3.6184,3.5754,3.4789,3.4141,3.3899,3.3791,3.3672,3.3575,3.3671,3.3229,3.2119,3.0406,2.8556,0.0,0.0,0.0,0.0,0.0,0.0,0.0,0.0,0.0,0.0,0.0,1.9861,1.7936,0.0,0.0,0.0,2.209,2.2455,2.3938,2.4654,0.0,0.0,0.0,0.0,0.0,0.0,0.0,2.8438,3.0606,3.2393,3.3126,3.1923,3.132,3.2292,3.1645,3.0784,3.0143,0.0,3.3518,3.3822,3.3888,3.4391,3.5558,3.5022,3.4968,3.6685,3.792,3.8733,3.8836,3.9626,4.0238,4.0351,4.0434,4.0615,4.1043,4.074,4.0602,4.0992,4.1075,4.1198,4.1569,4.1534,4.152,2.6022,2.6457,2.4714,2.4278,2.4882,2.6052,2.6758,2.7109,2.7045,2.6875,2.6638,2.7633,2.6816,2.4723,2.4812,0.0,2.8961,2.9748,3.0916,3.2328,3.2798,3.3279,3.3714,3.3003,3.3852,3.604,3.505,3.5386,3.6832,3.5672,3.4572,3.3759,3.3366,3.2118,3.0259,3.2364,3.4026,3.4947,3.6506,3.6899,3.6002,3.4825,3.4441,3.4865,3.4665,3.4765,3.5218,3.4824,3.4727,3.4848,3.2417,3.0827,3.0432,0.0,0.0,0.0,0.0,0.0,0.0,0.0,0.0,0.0,0.0,0.0,0.0,0.0,0.0,0.0,2.5668,0.0,2.7379,2.6548,0.0,0.0,0.0,2.7884,2.8394,2.9685,3.1125,3.2629,0.0,0.0,3.4262,3.4714,3.5591,3.7299,3.7141,3.6344,3.4902,3.5764,3.6402,3.4957,3.3912,3.3635,3.5053,3.5773,3.7248,3.9944,4.1028,4.0817,4.0789,4.087,4.1119,4.1162,4.1263,4.1258,4.1569,4.1397,4.147,4.2009,4.2021,4.2001,4.2017,4.1822,4.1699,2.7892,2.842,2.795,2.7514,2.7127,2.7621,2.7891,2.7949,2.7656,2.7663,2.7839,2.7806,2.7623,2.7409,2.8373,2.9233,2.9953,3.1375,3.2185,3.2468,3.29,3.3247,3.3587,3.3769,3.4869,3.6598,3.6824,3.7367,3.8293,3.8394,3.7294,3.5227,3.5409,3.3999,3.1066,3.2526,3.405,3.5426,3.5258,3.5439,3.5977,3.5508,3.5412,3.5687,3.5643,3.567,3.5788,3.6078,3.6255,3.6278,3.4895,3.3594,3.2441,2.7151,0.0,0.0,0.0,0.0,0.0,0.0,0.0,0.0,0.0,2.1859,1.9709,0.0,2.4284,0.0,2.8453,2.9398,2.8205,2.8127,0.0,0.0,2.8046,2.8231,2.9587,3.2055,3.343,3.2845,3.5049,3.6719,3.7028,3.7142,3.7978,3.9888,3.6533,3.4045,3.4574,3.4733,3.5062,3.5627,3.5961,3.6313,3.6566,3.7694,3.8625,3.9516,3.968,3.968,3.968,3.968,3.9709,3.9826,4.0577,4.1288,4.1818,4.1832,4.203,4.2436,4.1982,4.1547,4.1934,4.1972,4.2107,2.8388,2.8984,2.9127,2.904,2.8753,2.8831,2.8894,2.8875,2.864,2.8679,2.8875,2.864,2.8679,2.8922,2.9622,3.0315,3.1004,3.2016,3.2588,3.279,3.3119,3.3415,3.3671,3.3458,3.4403,3.6352,3.6981,3.7674,3.8484,3.9734,3.9368,3.7567,3.822,3.699,3.3982,3.3471,3.3586,3.4212,3.4478,3.526,3.6616,3.6238,3.573,3.5265,3.519,3.4843,3.4203,3.4225,3.4117,3.3786,3.309,3.22,3.1102,2.748,2.5272,0.0,0.0,0.0,0.0,0.0,0.0,0.0,0.0,0.0,0.0,0.0,2.6339,2.7098,2.954,3.0378,2.8726,2.9121,2.957,2.9766,3.0266,3.0983,3.2091,3.3868,3.4981,3.4835,3.5989,3.7052,3.7578,3.7695,3.8102,3.9288,3.6273,3.463,3.6363,3.7003,3.7345,3.7455,3.7347,3.7097,3.6581,3.755,3.8358,3.8358,3.8507,3.8612,3.8612,3.8791,3.913,3.9785,4.0495,4.1271,4.2136,4.2386,4.2452,4.2597,4.2214,4.1987,4.2543,4.2663,4.2904,2.8423,2.9,2.9291,2.9557,2.982,2.9728,2.9618,2.9502,2.9605,2.9709,2.9852,2.9911,2.9874,2.9817,2.9874,3.0616,3.1799,3.2125,3.254,3.2983,3.3283,3.3566,3.3726,3.2743,3.3467,3.5646,3.6242,3.7038,3.8076,4.0022,4.0469,3.9594,4.0378,3.9458,3.6805,3.4526,3.3148,3.2665,3.4109,3.5663,3.7216,3.6301,3.5239,3.4134,3.3979,3.3336,3.2119,3.162,3.1077,3.0463,3.0105,2.9715,2.9154,2.7666,2.6553,0.0,2.4313,0.0,0.0,0.0,0.0,0.0,0.0,0.0,0.0,2.7955,2.8516,2.8055,2.9863,3.0605,2.9484,3.0137,3.0781,3.1201,3.2883,3.4152,3.4492,3.5036,3.5817,3.6946,3.6215,3.6093,3.7144,3.733,3.7396,3.7478,3.6679,3.6514,3.8313,3.9174,3.9118,3.8773,3.7684,3.6324,3.5697,3.6449,3.7275,3.7275,3.7526,3.7755,3.7755,3.8049,3.8707,3.9764,4.0173,4.0793,4.2123,4.2291,4.2315,4.2313,4.2323,4.2617,4.3329,4.3492,4.378,2.9489,2.9837,2.9929,2.9966,3.0051,2.9996,2.9631,2.8972,2.9529,3.0275,3.1142,3.1553,3.1391,3.089,3.145,3.1569,3.1326,3.2237,3.259,3.2383,3.2767,3.2933,3.2995,3.2799,3.3666,3.5382,3.5609,3.6591,3.8337,3.9162,3.8949,3.7753,3.8302,3.7265,3.4816,0.0,0.0,0.0,3.4571,3.5397,3.5642,3.3625,3.2603,3.2831,3.2915,0.0,3.2955,3.2867,3.2731,3.259,3.213,0.0,0.0,0.0,0.0,0.0,0.0,0.0,0.0,0.0,0.0,0.0,2.8448,2.8265,2.7125,2.8732,2.9825,2.9774,3.1055,3.2003,3.207,3.25,3.282,3.2949,3.3304,3.3579,3.3689,3.4674,3.553,3.5715,3.6429,3.7006,3.7171,3.7554,3.7732,3.7631,3.7895,3.7726,3.7192,3.6113,3.5335,3.5828,3.5583,3.4876,3.4816,3.5942,3.6718,3.6844,3.6865,3.6948,3.6916,3.6979,3.7094,3.7625,3.831,3.9248,4.0011,4.0046,4.0414,4.0612,4.1902,4.3213,4.3972,4.3931,4.422,2.9453,0.0,2.9795,2.9966,0.0,3.0322,3.0164,2.987,3.0274,3.0973,3.1855,3.2101,3.1966,3.1661,3.2046,3.2113,3.1969,3.2541,3.2793,3.2812,3.3008,3.3105,3.3105,3.3105,3.3547,3.4434,3.5098,3.5835,3.6711,3.7747,3.8175,3.7994,3.8395,3.7919,3.6658,3.6826,3.6381,3.5328,3.5932,3.6757,3.7688,3.6313,3.4917,3.3646,3.3622,0.0,0.0,0.0,0.0,0.0,0.0,0.0,0.0,0.0,0.0,2.9347,2.8153,2.768,2.8339,2.8902,2.9428,2.9899,3.0694,3.0723,2.9629,3.0771,3.1582,3.1747,3.2402,3.2871,3.3086,3.3476,3.375,3.375,3.3926,3.4062,3.4107,3.4652,3.5047,3.5078,3.5629,3.6039,3.6039,3.6173,3.6317,3.6338,3.6524,3.6518,3.5929,3.5936,3.6101,3.6091,3.5718,3.5211,3.4845,3.5178,3.5731,3.5731,3.5912,3.6053,3.6073,3.6221,3.662,3.7443,3.8229,3.8977,4.016,4.0421,4.0541,4.0836,4.1651,4.2627,4.3464,4.4457,4.5566,2.9228,2.9259,2.9587,2.9942,3.0265,3.0533,3.0829,3.1083,0.0,0.0,0.0,3.2402,3.2322,3.2168,3.2322,3.2516,3.2723,3.2848,3.3086,3.3386,3.3386,3.3386,3.3386,3.3386,3.3386,3.3449,3.4528,3.5036,3.5025,3.6338,3.7489,3.8462,3.8744,3.8862,3.8862,3.8862,3.8329,3.7279,3.6987,3.7711,3.9424,3.8493,3.6637,3.3871,3.3845,3.2433,2.9457,2.9268,2.9067,2.8769,2.8778,2.8754,2.8797,2.9042,2.9469,3.006,3.0296,3.049,3.0736,3.1371,3.1839,3.2031,3.2735,3.2949,3.257,3.2843,3.3203,3.3581,3.362,3.362,3.362,3.3965,3.4212,3.4199,3.4492,3.4687,3.4687,3.4687,3.4714,3.4687,3.4747,3.472,3.4766,3.4897,3.4824,3.4857,3.5152,3.498,3.5244,3.648,3.7096,3.645,3.6156,3.5969,3.5304,3.5164,3.5039,3.5309,3.5555,3.5723,3.5781,3.6016,3.6793,3.799,3.8419,3.9019,4.032,4.0529,4.084,4.0775,4.1169,4.166,4.2518,4.4369,4.6054,2.968,2.9713,3.0136,3.0301,3.0387,3.0419,3.0954,3.1744,3.2098,3.2422,3.2821,3.3085,3.2738,3.1991,3.2833,3.2935,3.2486,3.3056,3.3328,3.3386,3.3386,3.3386,3.3386,3.3386,3.3386,3.3418,3.3607,3.4247,3.5253,3.5561,3.6276,3.7369,3.755,3.7558,3.758,3.7558,3.747,3.725,3.6206,3.5773,3.6048,3.3112,3.1191,3.0464,3.0867,3.0801,3.0248,2.9898,2.983,3.0093,3.0122,3.0257,3.0584,3.0416,3.0768,3.1777,3.143,3.1439,3.2055,3.2466,3.2993,3.3674,3.4167,3.4258,3.3899,3.388,3.4062,3.4473,3.4473,3.4531,3.4531,3.457,3.4609,3.4609,3.4668,3.4707,3.4746,3.4746,3.4766,3.4805,3.4687,3.4746,3.4883,3.5137,3.5371,3.5371,3.5644,3.5957,3.6142,3.5691,3.5435,3.5507,3.5593,3.563,3.5795,3.6152,3.6269,3.6441,3.668,3.6875,3.6875,3.6953,3.721,3.7503,3.7643,3.7788,3.8132,3.818,3.8487,3.8467,3.9636,4.088,4.1161,4.25,4.4114,3.0133,3.0133,3.0346,3.0615,3.104,3.1618,3.2235,3.2824,3.3201,3.329,3.3184,3.3323,3.3133,3.2785,3.3197,3.3228,3.2943,3.326,3.3386,3.3386,3.3386,3.3386,3.3386,3.3386,3.3386,3.3386,3.3386,3.3733,3.4278,3.4309,3.4974,3.6185,3.6276,3.6276,3.6276,3.6276,3.6276,3.6255,3.6386,3.6414,3.6414,3.469,3.3389,3.2545,3.2734,3.2379,3.1512,3.1297,3.1297,3.1481,3.1316,3.138,3.1737,3.1631,3.1897,3.2613,3.2204,3.2295,3.3065,3.3409,3.3843,3.4362,3.459,3.4746,3.4785,3.4583,3.4492,3.4668,3.4687,3.4687,3.4707,3.4922,3.5078,3.5078,3.5273,3.541,3.5377,3.541,3.5508,3.5723,3.5795,3.5859,3.6074,3.6309,3.6426,3.6445,3.6621,3.6797,3.6973,3.6523,3.6172,3.6387,3.6445,3.6504,3.668,3.6855,3.6992,3.7012,3.7168,3.7285,3.7305,3.7305,3.7402,3.7598,3.7637,3.7734,3.791,3.8144,3.8164,3.8216,3.8908,3.9851,4.0109,4.1136,4.2897,3.0546,3.0546,3.0594,3.1002,3.1553,3.2375,3.3022,3.3506,3.3804,3.3867,3.3706,3.3711,3.3647,3.3583,3.3647,3.3711,3.3711,3.3711,3.3711,3.3711,3.3711,3.3711,3.3711,3.3679,3.3711,3.3711,3.3711,3.3711,3.3679,3.3711,3.416,3.5013,3.5004,3.4963,3.4963,3.4943,3.4963,3.5005,3.5909,3.6581,3.6855,3.6338,3.551,3.4539,3.4414,3.3819,3.2613,3.2358,3.2364,3.2522,3.2137,3.2064,3.2397,3.2351,3.245,3.2698,3.2458,3.2654,3.3482,3.3913,3.4354,3.4967,3.5098,3.5365,3.5723,3.5488,3.5195,3.5039,3.5137,3.5195,3.5254,3.5586,3.582,3.584,3.6079,3.6255,3.6309,3.6274,3.6426,3.6792,3.6816,3.6934,3.7207,3.7305,3.7246,3.7226,3.7305,3.7324,3.7402,3.7441,3.7461,3.7519,3.7441,3.7246,3.7305,3.7383,3.7422,3.7441,3.7559,3.7656,3.7656,3.7617,3.7695,3.8008,3.8066,3.8164,3.8532,3.8689,3.8669,3.8611,3.8975,3.9232,3.9205,4.0054,4.1632,3.0953,3.1004,3.1239,3.1442,3.1545,3.1666,3.2256,3.3125,3.3188,3.3747,3.4492,3.457,3.4374,3.4197,3.442,3.4531,3.4551,3.457,3.4551,3.4551,3.459,3.459,3.4531,3.4551,3.457,3.4551,3.4531,3.4512,3.4492,3.4531,3.444,3.4196,3.3804,3.3678,3.3658,3.3627,3.3627,3.3607,3.3702,3.434,3.5407,3.4372,3.3493,3.3102,3.3089,3.3007,3.2778,3.2262,3.2239,3.2803,3.2287,3.2177,3.2471,3.2244,3.2062,3.2116,3.1866,3.2034,3.3059,3.3524,3.4425,3.5743,3.625,3.6636,3.7012,3.7031,3.6699,3.6152,3.625,3.6441,3.6558,3.6816,3.6992,3.6953,3.7051,3.7187,3.7129,3.7187,3.7207,3.7226,3.7246,3.7266,3.7363,3.7402,3.7363,3.7441,3.7461,3.7578,3.7835,3.793,3.8086,3.8223,3.7907,3.7441,3.7441,3.7601,3.7832,3.7891,3.8184,3.8337,3.8356,3.8376,3.8496,3.8457,3.8493,3.8532,3.8689,3.8848,3.8982,3.8728,3.8828,3.9082,3.8845,3.9163,4.0233,3.1312,3.1328,3.143,3.1639,3.1886,3.2082,3.2464,3.2876,3.3064,3.3678,3.4493,3.4729,3.4695,3.451,3.4641,3.4687,3.4687,3.4687,3.4687,3.4687,3.4687,3.4687,3.4687,3.4687,3.4687,3.4687,3.4687,3.4687,3.4687,3.4687,3.4609,3.4453,3.4258,3.418,3.418,3.418,3.418,3.418,3.418,3.4225,3.4218,3.3573,3.3121,3.3006,3.2815,3.2585,3.2356,3.2093,3.2118,3.2364,3.1951,3.1756,3.1951,3.1801,3.2015,3.2737,3.3502,3.3897,3.386,3.4864,3.5626,3.6042,3.6689,3.7129,3.7266,3.7305,3.7129,3.6875,3.6953,3.7051,3.7105,3.7187,3.7305,3.7305,3.7305,3.7305,3.7305,3.7305,3.7383,3.7617,3.7656,3.7793,3.7988,3.8047,3.8047,3.8047,3.8047,3.8223,3.8594,3.8672,3.8887,3.9199,3.9023,3.8613,3.8223,3.8164,3.8301,3.834,3.8457,3.8611,3.865,3.8611,3.8669,3.8887,3.8806,3.8769,3.8926,3.8826,3.8787,3.8708,3.8689,3.8769,3.863,3.8747,3.9211,3.1543,3.1543,3.1751,3.2119,3.2595,3.2879,3.3162,3.3374,3.3707,3.4322,3.5054,3.5401,3.5504,3.5396,3.5176,3.5059,3.5059,3.5059,3.5059,3.5059,3.5025,3.5059,3.5059,3.5059,3.5059,3.5059,3.5078,3.5078,3.5039,3.4922,3.4883,3.485,3.4568,3.4392,3.4379,3.4228,3.4096,3.4096,3.4115,3.3889,3.3481,3.309,3.2902,3.2903,3.2721,3.2421,3.2152,3.2052,3.216,3.2478,3.2089,3.1991,3.2289,3.2101,3.2314,3.3073,3.4144,3.4757,3.4559,3.5384,3.6048,3.6285,3.6858,3.72,3.7332,3.7514,3.7715,3.7832,3.7832,3.7793,3.748,3.7578,3.7637,3.7637,3.7656,3.7676,3.7832,3.7812,3.8027,3.8379,3.8555,3.8574,3.8867,3.8962,3.8982,3.8982,3.8982,3.9023,3.9316,3.9394,3.9512,3.9844,3.9863,3.9629,3.9062,3.8965,3.8982,3.8945,3.9004,3.9023,3.8945,3.8982,3.9002,3.9355,3.9082,3.9043,3.9316,3.9141,3.8982,3.8982,3.8982,3.8906,3.8828,3.8826,3.8747,3.1578,3.17,3.2365,3.3,3.3784,3.3748,3.4198,3.4683,3.5185,3.5809,3.6463,3.6906,3.7117,3.7031,3.6269,3.5957,3.5923,3.5957,3.5903,3.5918,3.5903,3.5923,3.5923,3.5923,3.5903,3.584,3.584,3.5845,3.5845,3.5566,3.5371,3.5318,3.4389,3.3776,3.3752,3.3289,3.2706,3.2988,3.2954,3.286,3.3086,3.285,3.2652,3.2585,3.2539,3.2545,3.246,3.2189,3.2532,3.3674,3.2962,3.3109,3.4073,3.3586,3.3097,3.2876,3.2891,3.3545,3.4649,3.4523,3.4885,3.6393,3.6943,3.7038,3.7564,3.817,3.8672,3.9043,3.9004,3.875,3.8164,3.834,3.8516,3.8552,3.8552,3.8691,3.9043,3.8984,3.9316,3.9609,3.9629,3.9609,3.9766,3.9844,3.9746,3.9726,3.9785,3.9805,3.9824,3.9863,3.9902,3.9961,3.998,3.9902,3.9844,3.9629,3.9687,3.9648,3.9551,3.9726,3.9805,3.9844,3.9824,3.9824,3.9687,3.9668,3.9805,3.9805,3.9707,3.9668,3.9629,3.9551,3.9238,3.9199,3.9082,3.2278,3.2332,3.2614,3.2861,3.311,3.3127,3.3583,3.427,3.4451,3.5205,3.6259,3.6543,3.6862,3.7285,3.6992,3.6836,3.6836,3.6836,3.6699,3.6465,3.6445,3.6289,3.6035,3.6035,3.6035,3.6035,3.6035,3.6035,3.6021,3.6133,3.6108,3.5907,3.5689,3.5451,3.5158,3.4671,3.4427,3.4373,3.4163,3.3904,3.3517,3.3429,3.3145,3.2685,3.2895,3.3035,3.3003,3.2897,3.2932,3.3106,3.2819,3.2868,3.3311,3.3573,3.362,3.3509,3.3903,3.4302,3.4671,3.5313,3.5884,3.6366,3.7633,3.8269,3.8609,3.9078,3.9492,3.9572,3.9629,3.9453,3.9316,3.9336,3.9414,3.9414,3.9414,3.9434,3.959,3.9648,3.9726,3.9863,3.9883,3.9883,3.9941,3.9902,3.9883,3.9883,3.9902,4.0039,4.0234,4.0293,4.0371,4.0663,4.0761,4.0761,4.0741,4.0176,3.9902,3.9883,3.9863,3.9883,3.9941,4.0,3.998,4.0215,4.0195,4.0137,4.0195,4.0117,4.0098,4.0019,4.0019,4.0019,3.9668,3.9648,3.9414,3.2868,3.3081,3.3098,3.3241,3.3455,3.3455,3.3749,3.4245,3.441,3.503,3.5901,3.6118,3.6478,3.6873,3.6945,3.6945,3.6978,3.7139,3.7129,3.6929,3.6875,3.6719,3.6396,3.615,3.6047,3.6047,3.6027,3.6047,3.6066,3.6336,3.6227,3.5755,3.5771,3.5618,3.5296,3.4829,3.4613,3.4541,3.4306,3.3909,3.3491,3.3455,3.3343,3.3176,3.3349,3.3333,3.3127,3.3127,3.3124,3.3081,3.3098,3.315,3.3288,3.3752,3.411,3.4269,3.4571,3.497,3.5187,3.5836,3.617,3.6226,3.7304,3.8214,3.8252,3.8728,3.9089,3.9223,3.928,3.9299,3.9453,3.9433,3.9567,3.9791,3.9883,3.9961,4.0078,4.0098,4.0176,4.0312,4.0371,4.0332,4.0312,4.0312,4.0332,4.035,4.0312,4.0449,4.0664,4.0742,4.082,4.1094,4.1152,4.1132,4.1093,4.0702,4.0469,4.043,4.0351,4.0273,4.0215,4.0234,4.0312,4.0547,4.0625,4.0566,4.0488,4.043,4.0351,4.0293,4.0391,4.0488,4.0254,4.0098,3.9844,3.3167,3.3811,3.3903,3.4189,3.4621,3.4676,3.4879,3.4956,3.5309,3.5516,3.5795,3.6034,3.6257,3.6257,3.6312,3.6257,3.6386,3.6911,3.7171,3.7164,3.7199,3.716,3.7027,3.6284,3.5965,3.5965,3.6041,3.6041,3.6003,3.6024,3.5725,3.4937,3.4505,3.4341,3.3907,3.3505,3.2978,3.3085,3.3174,3.2993,3.278,3.3044,3.3435,3.39,3.3992,3.3668,3.2936,3.2848,3.3204,3.3829,3.39,3.4057,3.4313,3.4455,3.4577,3.4818,3.4654,3.5211,3.6282,3.5712,3.5613,3.604,3.6272,3.6651,3.688,3.7308,3.7861,3.8215,3.8268,3.8301,3.8635,3.873,3.9037,3.9737,3.9888,4.0043,4.0391,4.0527,4.0664,4.0976,4.1074,4.1172,4.1172,4.1074,4.1015,4.1035,4.1054,4.1054,4.1055,4.1055,4.1191,4.1211,4.1211,4.1211,4.1211,4.1191,4.1172,4.1132,4.1054,4.0957,4.0878,4.0859,4.082,4.0957,4.0937,4.0879,4.0879,4.082,4.0879,4.0898,4.0996,4.0879,4.0703,4.0488,4.0293,3.3621,3.3799,3.3799,3.3943,3.416,3.416,3.4461,3.4969,3.5157,3.5493,3.5996,3.6126,3.6201,3.6201,3.6201,3.6219,3.6219,3.6477,3.6672,3.6914,3.6983,3.6775,3.6387,3.5653,3.5296,3.5296,3.5296,3.5296,3.5369,3.5627,3.5485,3.503,3.5008,3.4857,3.4615,3.4132,3.3888,3.3923,3.4148,3.427,3.4342,3.4816,3.5199,3.5399,3.5225,3.4925,3.4727,3.4166,3.4134,3.4615,3.4688,3.4824,3.5121,3.5246,3.5162,3.4994,3.4873,3.4947,3.5474,3.5757,3.5896,3.6246,3.6895,3.7371,3.7449,3.7825,3.8176,3.8362,3.842,3.8493,3.8566,3.8603,3.8966,3.9814,3.9912,4.0183,4.0744,4.0918,4.1035,4.1172,4.1211,4.1211,4.1172,4.1172,4.1133,4.1211,4.1211,4.1211,4.1211,4.1211,4.1211,4.1211,4.1211,4.1211,4.1211,4.1211,4.1211,4.1211,4.1211,4.1211,4.1211,4.1211,4.1211,4.1211,4.1211,4.1211,4.1211,4.1211,4.1211,4.1211,4.1132,4.1074,4.0976,4.084,4.0625,3.4433,3.4651,3.4707,3.4707,3.4707,3.4707,3.4956,3.5412,3.545,3.5736,3.6132,3.6207,3.6207,3.6207,3.6207,3.6207,3.6245,3.6509,3.6774,3.6942,3.6678,3.6417,3.6029,3.5303,3.4939,3.4939,3.4939,3.5102,3.5412,3.563,3.57,3.5526,3.5704,3.5602,3.526,3.4956,3.4783,3.4682,3.4873,3.4994,3.5106,3.5491,3.5768,3.5729,3.5496,3.5379,3.5344,3.4873,3.4713,3.4942,3.4994,3.5115,3.5362,3.5362,3.537,3.543,3.5307,3.532,3.5615,3.5976,3.6176,3.6331,3.6865,3.7228,3.7383,3.7757,3.8046,3.7725,3.7912,3.8122,3.8082,3.8122,3.8617,3.9741,3.9896,4.0136,4.0626,4.0704,4.049,4.0294,4.0177,4.0372,4.0607,4.0743,4.0899,4.1094,4.1211,4.1211,4.1211,4.1211,4.123,4.123,4.1211,4.1211,4.1211,4.1211,4.1211,4.1211,4.1211,4.1211,4.1211,4.1211,4.1211,4.1211,4.1211,4.1211,4.1211,4.1211,4.1211,4.1211,4.1211,4.1172,4.1113,4.1132,4.0996,3.5474,3.6082,3.61,3.5931,3.5931,3.5931,3.5895,3.6064,3.6008,3.599,3.6085,3.5994,3.6029,3.6103,3.6015,3.6015,3.6237,3.6628,3.69,3.6814,3.6451,3.6031,3.5864,3.5265,3.5003,3.5003,3.5003,3.5368,3.5807,3.5899,3.6129,3.5941,3.5881,3.5909,3.5491,3.55,3.5253,3.4981,3.5067,3.5158,3.5175,3.5266,3.5322,3.5339,3.5317,3.5278,3.5317,3.5187,3.5097,3.5097,3.5248,3.5378,3.5187,3.5114,3.5573,3.6048,3.5748,3.5903,3.6339,3.6402,3.6276,3.6333,3.6523,3.6229,3.6731,3.7363,3.7497,3.6945,3.7282,3.7521,3.7561,3.7521,3.8192,3.9386,3.993,4.0109,4.0016,4.0113,4.0011,3.9342,3.8893,3.9131,4.021,4.0288,4.0642,4.1113,4.1367,4.1328,4.1387,4.1426,4.1308,4.1308,4.1328,4.1387,4.1406,4.1621,4.1621,4.1641,4.1543,4.1445,4.1289,4.1211,4.1211,4.1211,4.1211,4.1211,4.1211,4.1211,4.1211,4.1211,4.1211,4.1211,4.1211,4.1211,4.1191,3.5392,3.5318,3.5318,3.5318,3.5318,3.5318,3.5357,3.5318,3.5375,3.5487,3.5375,3.5318,3.547,3.5318,3.5375,3.5318,3.5548,3.5648,3.563,3.5595,3.5456,3.5333,3.5316,3.5123,3.499,3.5011,3.5015,3.5115,3.5318,3.5434,3.5426,3.5318,3.5487,3.5353,3.5162,3.5236,3.5123,3.5097,3.5612,3.5852,3.5943,3.639,3.6729,3.6746,3.6371,3.6211,3.6188,3.5966,3.5851,3.5926,3.6487,3.6587,3.6251,3.6228,3.6298,3.6224,3.6121,3.6017,3.6333,3.6719,3.6939,3.7055,3.7369,3.7907,3.7948,3.81,3.8159,3.7965,3.8177,3.8212,3.8171,3.7982,3.8241,3.8794,3.9892,4.061,4.0613,4.0809,4.0669,4.0508,4.0532,4.0674,4.0896,4.1075,4.1274,4.1713,4.1733,4.1614,4.1617,4.16,4.1404,4.1562,4.164,4.166,4.1738,4.1973,4.2129,4.2168,4.2051,4.1797,4.1504,4.123,4.1211,4.1211,4.1211,4.1211,4.1211,4.1211,4.1211,4.1211,4.1211,4.1211,4.1211,4.1211,4.1211,3.5905,3.5983,3.5983,3.6022,3.6022,3.6022,3.6022,3.5983,3.5983,3.604,3.6022,3.604,3.5983,3.5983,3.604,3.6022,3.5983,3.5983,3.604,3.6,3.5882,3.5534,3.517,3.5006,3.5006,3.5006,3.5023,3.5226,3.5487,3.5521,3.5669,3.604,3.5983,3.5921,3.5798,3.5724,3.5605,3.5577,3.5931,3.6171,3.6228,3.6602,3.6769,3.6804,3.6581,3.6575,3.6852,3.7044,3.6887,3.6539,3.6862,3.7211,3.7026,3.7345,3.7375,3.7171,3.7131,3.709,3.6961,3.7339,3.7444,3.7355,3.777,3.7922,3.8016,3.8287,3.8517,3.7999,3.8346,3.8517,3.8552,3.8575,3.8746,3.9134,3.9931,4.0382,4.0069,3.9895,3.9809,3.9686,3.9709,4.0177,4.0584,4.0765,4.1171,4.1537,4.156,4.1579,4.1662,4.1588,4.1552,4.1592,4.1752,4.1752,4.1811,4.2045,4.2301,4.2379,4.2422,4.2187,4.1855,4.1445,4.1308,4.1289,4.125,4.123,4.125,4.125,4.1211,4.1211,4.1211,4.1211,4.1211,4.1211,4.1211,3.6649,3.7268,3.7268,3.7285,3.717,3.7268,3.6997,3.717,3.7015,3.7055,3.7055,3.717,3.6882,3.7268,3.6785,3.7152,3.7112,3.6882,3.7148,3.697,3.6677,3.6074,3.5536,3.5337,3.5263,3.5246,3.5143,3.5507,3.5929,3.61,3.6495,3.6732,3.6997,3.693,3.6442,3.6494,3.6402,3.6109,3.6241,3.6391,3.6448,3.6633,3.68,3.6679,3.6516,3.6701,3.7246,3.776,3.7649,3.6275,3.7014,3.7457,3.7567,3.8194,3.8383,3.8241,3.8082,3.7935,3.7881,3.7757,3.7802,3.757,3.7563,3.7438,3.7885,3.8429,3.8523,3.7986,3.8244,3.8611,3.8663,3.918,3.931,3.9293,3.949,3.919,3.873,3.856,3.8311,3.7664,3.758,3.8204,3.8867,3.9403,3.981,4.1237,4.1323,4.1405,4.1512,4.1564,4.1468,4.139,4.1592,4.1794,4.1935,4.2114,4.2372,4.2552,4.2595,4.248,4.2226,4.1855,4.1543,4.1426,4.1621,4.1562,4.1367,4.1367,4.1328,4.1211,4.1211,4.1211,4.1211,4.1211,4.1211,3.6494,3.6362,3.6379,3.6362,3.6362,3.6362,3.6402,3.642,3.642,3.6517,3.642,3.642,3.6477,3.6477,3.6592,3.6362,3.6592,3.661,3.6679,3.7206,3.6564,3.6598,3.6494,3.6155,3.588,3.5806,3.584,3.5972,3.6121,3.6201,3.6195,3.6402,3.6708,3.6379,3.6391,3.6523,3.6218,3.6229,3.6696,3.6974,3.7067,3.7521,3.7666,3.7379,3.7142,3.707,3.7197,3.7408,3.729,3.7287,3.78,3.8283,3.8224,3.8188,3.8234,3.8169,3.7844,3.7577,3.7511,3.8004,3.8328,3.8219,3.8537,3.9145,3.9145,3.918,3.9275,3.9162,3.936,3.9123,3.8868,3.8998,3.9007,3.8811,3.8708,3.8597,3.8501,3.894,3.9074,3.9092,3.9243,3.9802,4.0036,3.994,4.0294,4.0874,4.1041,4.1184,4.1262,4.1324,4.1227,4.0987,4.1275,4.148,4.1704,4.2007,4.237,4.2534,4.2642,4.2767,4.2555,4.2361,4.2068,4.2049,4.2187,4.2012,4.1699,4.1641,4.166,4.1426,4.123,4.125,4.123,4.125,4.1211,3.6299,3.6097,3.6097,3.6097,3.6097,3.6097,3.6097,3.6172,3.6529,3.6679,3.6754,3.7055,3.7264,3.7264,3.7264,3.7323,3.7224,3.702,3.7164,3.7426,3.6942,3.6854,3.708,3.6802,3.6491,3.6183,3.608,3.6097,3.6172,3.6471,3.6719,3.6737,3.6997,3.7439,3.7282,3.7206,3.7218,3.7072,3.7316,3.7479,3.7407,3.767,3.7874,3.7761,3.7698,3.7819,3.7861,3.8261,3.8355,3.8499,3.8817,3.8896,3.8682,3.8687,3.8715,3.8691,3.8523,3.8247,3.8333,3.842,3.8644,3.8414,3.8818,3.8972,3.905,3.905,3.905,3.905,3.9007,3.8922,3.8726,3.8683,3.8512,3.8409,3.828,3.828,3.8366,3.8751,3.905,3.9093,3.9083,3.9338,3.9586,3.9774,3.9968,4.0138,4.0265,4.0367,4.0385,4.045,4.0516,4.0521,4.0837,4.1106,4.1434,4.1823,4.2397,4.2503,4.2532,4.2782,4.2831,4.2719,4.2607,4.2592,4.2558,4.2323,4.2109,4.207,4.1973,4.1699,4.1504,4.1367,4.1269,4.125,4.1211,3.6155,3.6304,3.6304,3.6338,3.6454,3.6448,3.6465,3.654,3.6985,3.7182,3.7398,3.8082,3.8,3.8294,3.8194,3.8312,3.817,3.7905,3.7639,3.7885,3.7349,3.7301,3.7394,3.7207,3.6868,3.6303,3.6337,3.6337,3.6504,3.6886,3.71,3.7357,3.7871,3.7941,3.8194,3.8312,3.7935,3.7587,3.7833,3.7861,3.7664,3.7733,3.7844,3.7829,3.8044,3.8326,3.842,3.8806,3.9313,3.9476,3.9476,3.9088,3.8898,3.9095,3.9561,3.9543,3.926,3.8928,3.8613,3.8742,3.8631,3.8323,3.8323,3.8323,3.8366,3.8409,3.8452,3.8409,3.8409,3.8409,3.828,3.8366,3.8366,3.828,3.828,3.828,3.828,3.828,3.8409,3.8409,3.8623,3.8837,3.8922,3.9025,3.9238,3.9409,3.9536,3.9621,3.9621,3.9731,3.9872,4.0023,4.0325,4.0643,4.0974,4.1309,4.1923,4.2216,4.2303,4.2595,4.2844,4.2732,4.2628,4.2826,4.2773,4.2616,4.2538,4.2519,4.2344,4.2012,4.1758,4.1601,4.1426,4.1269,4.1211,3.6511,3.7113,3.709,3.7509,3.8018,3.7748,3.7507,3.7559,3.7304,3.7232,3.7308,3.7442,3.7653,3.7577,3.7477,3.7477,3.7771,3.7681,3.7826,3.8132,3.7718,3.7541,3.794,3.7575,3.7193,3.7073,3.7022,3.7022,3.6953,3.7173,3.7373,3.7308,3.756,3.7695,3.7754,3.7477,3.773,3.7774,3.8098,3.8261,3.8271,3.8572,3.8711,3.8474,3.839,3.834,3.8331,3.8443,3.8537,3.8554,3.8554,3.846,3.8494,3.8845,3.9067,3.9067,3.8837,3.8623,3.8494,3.8452,3.8409,3.8323,3.828,3.828,3.828,3.828,3.828,3.828,3.828,3.828,3.828,3.828,3.828,3.828,3.828,3.828,3.828,3.828,3.828,3.828,3.8323,3.8323,3.8469,3.8554,3.8708,3.8879,3.9025,3.911,3.911,3.9306,3.9586,3.9713,3.9798,4.0137,4.0451,4.0813,4.1294,4.1672,4.1863,4.2174,4.2383,4.2466,4.2544,4.2707,4.3018,4.31,4.3063,4.2926,4.2654,4.2281,4.2049,4.1796,4.1521,4.1267,4.1113,3.6716,3.7266,3.7266,3.7494,3.7774,3.7667,3.7543,3.7601,3.775,3.7878,3.7989,3.8279,3.8509,3.8509,3.8509,3.8509,3.8408,3.8232,3.842,3.8549,3.8149,3.7945,3.8372,3.7911,3.7809,3.7792,3.7775,3.7535,3.7279,3.7708,3.7777,3.8031,3.8261,3.8509,3.8509,3.8628,3.8281,3.8291,3.8472,3.8601,3.8432,3.8852,3.8777,3.864,3.8469,3.8323,3.828,3.828,3.8323,3.8323,3.8323,3.828,3.8383,3.8512,3.864,3.8597,3.8409,3.828,3.828,3.828,3.8323,3.8323,3.828,3.828,3.828,3.828,3.828,3.828,3.828,3.828,3.828,3.828,3.828,3.828,3.828,3.828,3.828,3.828,3.828,3.828,3.8323,3.8323,3.8323,3.8366,3.8323,3.8409,3.8554,3.8597,3.8683,3.8879,3.9178,3.9178,3.9221,3.9536,3.9834,4.0173,4.062,4.1,4.1294,4.1565,4.1858,4.1882,4.2258,4.2621,4.2972,4.314,4.3225,4.2968,4.2758,4.2465,4.2091,4.1739,4.1468,4.1257,4.1086,3.7012,3.7455,3.7438,3.7531,3.7684,3.76,3.7617,3.7669,3.818,3.8385,3.8564,3.902,3.9271,3.9331,3.9331,3.9331,3.9391,3.8905,3.8759,3.8674,3.8443,3.8263,3.828,3.828,3.8255,3.8186,3.822,3.7972,3.7715,3.8053,3.8368,3.8455,3.9098,3.9433,3.9211,3.897,3.9135,3.8982,3.8854,3.864,3.8409,3.828,3.828,3.828,3.828,3.828,3.828,3.828,3.828,3.828,3.828,3.828,3.828,3.8323,3.8323,3.828,3.828,3.828,3.828,3.828,3.828,3.828,3.828,3.828,3.828,3.828,3.828,3.828,3.828,3.828,3.828,3.828,3.828,3.828,3.828,3.828,3.828,3.828,3.828,3.828,3.828,3.828,3.828,3.828,3.828,3.828,3.8409,3.8409,3.8452,3.8452,3.858,3.858,3.8683,3.8939,3.9195,3.9494,3.9919,4.0343,4.0494,4.0681,4.1,4.1252,4.163,4.1965,4.2466,4.2636,4.2799,4.2924,4.2694,4.2359,4.1976,4.1685,4.1564,4.1297,4.105,3.7615,3.8338,3.8338,3.874,3.9215,3.885,3.874,3.8655,3.8417,3.8315,3.8349,3.8417,3.8537,3.858,3.8537,3.8494,3.8494,3.8494,3.8452,3.8452,3.8366,3.8195,3.8195,3.828,3.7894,3.7851,3.8023,3.8263,3.799,3.8067,3.8306,3.8426,3.8468,3.8494,3.8666,3.8666,3.8409,3.8426,3.8426,3.8383,3.8323,3.828,3.828,3.828,3.828,3.828,3.828,3.828,3.828,3.828,3.828,3.828,3.828,3.828,3.828,3.828,3.828,3.828,3.8237,3.828,3.828,3.828,3.828,3.828,3.828,3.828,3.828,3.828,3.828,3.828,3.828,3.828,3.828,3.828,3.828,3.828,3.828,3.828,3.828,3.828,3.828,3.828,3.828,3.828,3.828,3.828,3.828,3.828,3.828,3.828,3.828,3.8366,3.8383,3.8597,3.8726,3.8982,3.9281,3.9706,3.9791,3.9876,4.024,4.0578,4.0596,4.0934,4.1462,4.1882,4.1965,4.2091,4.2322,4.2209,4.1812,4.1703,4.1698,4.137,4.1019,3.6593,3.8398,3.8381,3.8553,3.8879,3.8666,3.8597,3.8537,3.8426,3.828,3.828,3.828,3.828,3.8152,3.828,3.8323,3.828,3.8195,3.828,3.8195,3.8109,3.7808,3.7188,3.7016,3.6886,3.641,3.6713,3.7016,3.7275,3.7937,3.828,3.828,3.828,3.8323,3.828,3.828,3.8323,3.8323,3.8323,3.8323,3.828,3.828,3.828,3.828,3.8237,3.8237,3.8152,3.828,3.828,3.828,3.828,3.828,3.8066,3.7636,3.7102,3.7016,3.6264,3.6654,3.798,3.8195,3.8237,3.828,3.828,3.828,3.828,3.828,3.828,3.828,3.828,3.828,3.828,3.828,3.828,3.828,3.828,3.828,3.828,3.828,3.828,3.828,3.828,3.828,3.828,3.828,3.828,3.828,3.828,3.828,3.828,3.828,3.828,3.8323,3.8323,3.8366,3.8452,3.8597,3.8854,3.9195,3.9281,3.9451,3.9731,3.9919,3.9961,4.0004,4.0367,4.0705,4.1018,4.1462,4.1821,4.1765,4.1648,4.1536,4.1443,4.1333,4.0944,3.5352,3.7232,3.7275,3.7275,3.7232,3.7275,3.7232,3.7232,3.7145,3.7188,3.7232,3.7145,3.7145,3.7232,3.7059,3.6929,3.7145,3.7232,3.7232,3.7232,3.7145,3.654,3.5917,3.5569,3.5177,3.4084,3.5221,3.5917,3.6567,3.7145,3.7791,3.8237,3.828,3.828,3.828,3.828,3.828,3.828,3.828,3.828,3.828,3.828,3.8066,3.7851,3.7748,3.7619,3.7318,3.7145,3.7102,3.7059,3.6973,3.6843,3.6757,3.6134,3.57,3.5569,3.4916,3.5177,3.654,3.7232,3.7851,3.8195,3.828,3.828,3.828,3.828,3.828,3.828,3.828,3.828,3.828,3.828,3.828,3.828,3.828,3.828,3.828,3.8152,3.8195,3.828,3.828,3.828,3.828,3.828,3.828,3.828,3.828,3.828,3.828,3.828,3.828,3.828,3.8323,3.8323,3.8323,3.8409,3.8597,3.8683,3.8811,3.8897,3.9135,3.9391,3.9494,3.9536,3.9561,3.9858,4.0385,4.0873,4.1378,4.1215,4.1155,4.1192,4.115,4.1102,4.1005,3.42,3.4391,3.4391,3.4478,3.4566,3.4375,3.4463,3.4769,3.461,3.4638,3.4828,3.455,3.4769,3.4638,3.4872,3.4813,3.455,3.4419,3.4741,3.4741,3.4391,3.4566,3.4303,3.4216,3.4084,3.3821,3.4128,3.4916,3.583,3.596,3.7059,3.8109,3.7851,3.8109,3.798,3.7533,3.7619,3.7662,3.7679,3.7808,3.7851,3.7748,3.7404,3.6524,3.6221,3.5787,3.455,3.4784,3.4916,3.4959,3.5046,3.5003,3.509,3.455,3.4303,3.4128,3.3733,3.3908,3.4697,3.6004,3.7059,3.7851,3.8023,3.7705,3.7533,3.8023,3.8195,3.7791,3.7447,3.7894,3.8023,3.828,3.798,3.8195,3.8066,3.7765,3.7808,3.7894,3.7937,3.8195,3.828,3.828,3.828,3.828,3.828,3.828,3.828,3.828,3.828,3.828,3.828,3.828,3.828,3.8323,3.8323,3.8366,3.8452,3.8452,3.8537,3.8494,3.8537,3.8751,3.905,3.911,3.9153,3.9451,3.9706,4.0113,4.0409,4.0554,4.0639,4.0723,4.0934,4.1018,4.106,3.1493,3.1537,3.1493,3.2498,3.4069,3.4069,3.4069,3.4069,3.4069,3.4069,3.4025,3.4069,3.4069,3.4025,3.4069,3.4069,3.4069,3.4113,3.3981,3.4069,3.4069,3.3601,3.3249,3.2675,3.241,3.2026,3.2322,3.294,3.3469,3.4478,3.5046,3.5787,3.654,3.6264,3.6047,3.596,3.5917,3.5874,3.583,3.5743,3.57,3.57,3.5439,3.5003,3.49,3.4682,3.42,3.4113,3.4069,3.4025,3.3937,3.3849,3.363,3.3161,3.2852,3.2675,3.2233,3.2189,3.3205,3.4725,3.6454,3.6481,3.6264,3.583,3.6004,3.583,3.5743,3.5656,3.5917,3.6264,3.6929,3.7016,3.7102,3.7722,3.7679,3.7188,3.7016,3.7016,3.7016,3.6929,3.7748,3.828,3.828,3.828,3.828,3.828,3.828,3.828,3.828,3.828,3.828,3.828,3.828,3.828,3.828,3.828,3.828,3.828,3.828,3.828,3.828,3.8323,3.858,3.8683,3.8726,3.8879,3.905,3.9281,3.9579,3.9919,4.0131,4.0258,4.0512,4.0892,4.1018,2.9913,2.9913,2.9913,3.1017,3.2764,3.2852,3.2852,3.2852,3.2764,3.2852,3.2852,3.2852,3.2852,3.2852,3.2808,3.2719,3.2587,3.2631,3.2719,3.2675,3.2454,3.2189,3.1671,3.1271,3.1017,3.0272,3.075,3.1537,3.2322,3.3073,3.3469,3.3865,3.4391,3.4303,3.455,3.4069,3.4069,3.4069,3.4069,3.4069,3.4156,3.42,3.3821,3.3645,3.3469,3.3028,3.2719,3.241,3.2498,3.2543,3.2587,3.2719,3.2454,3.2026,3.1493,3.1062,3.0705,3.0451,3.176,3.3777,3.5482,3.5439,3.4916,3.4391,3.4069,3.4069,3.4507,3.4375,3.4288,3.4522,3.5569,3.5613,3.5743,3.6134,3.596,3.5569,3.5569,3.5569,3.5569,3.5613,3.6351,3.674,3.6697,3.661,3.7447,3.7705,3.828,3.828,3.828,3.828,3.828,3.828,3.828,3.828,3.828,3.828,3.828,3.828,3.828,3.828,3.828,3.828,3.828,3.8409,3.8452,3.8323,3.8494,3.8794,3.911,3.9409,3.9664,3.9919,4.03,4.0681,4.0892,2.9913,2.9913,2.9913,3.0003,3.0303,3.0048,3.0182,3.0437,3.0348,3.0348,3.0437,3.0392,3.0348,3.0392,3.0705,3.0705,3.066,3.0482,3.0482,3.066,3.0794,3.0272,3.0182,3.0137,3.0227,3.0003,3.0272,3.0884,3.1804,3.1923,3.2026,3.207,3.238,3.2764,3.3849,3.4025,3.4025,3.3981,3.3762,3.363,3.3542,3.3454,3.2852,3.2277,3.2012,3.1582,3.1062,3.0839,3.0884,3.0839,3.075,3.075,3.0571,3.0482,3.0258,3.0137,3.0048,2.9958,3.0213,3.2719,3.3733,3.3996,3.3513,3.3337,3.3733,3.3865,3.3513,3.3028,3.3425,3.3733,3.4084,3.4172,3.4303,3.4566,3.4478,3.4128,3.4128,3.4128,3.4128,3.4347,3.4259,3.4288,3.4332,3.4638,3.6004,3.6929,3.7937,3.8195,3.8023,3.828,3.828,3.828,3.828,3.828,3.828,3.828,3.828,3.828,3.828,3.828,3.828,3.828,3.828,3.828,3.828,3.828,3.828,3.8366,3.8666,3.9025,3.9409,3.9706,4.0131,4.0427,4.0596,2.9913,2.9913,2.9913,2.9913,2.9913,2.9913,2.9913,2.9913,2.9913,2.9913,2.9913,2.9913,2.9913,2.9913,2.9913,2.9913,2.9913,2.9913,2.9913,2.9913,2.9913,2.9913,2.9913,2.9913,2.9913,2.9913,2.9958,3.0048,3.0526,3.075,3.066,3.0616,3.0839,3.0839,3.1151,3.1315,3.1271,3.1271,3.1271,3.1271,3.136,3.1404,3.1226,3.0705,3.0705,3.0437,2.9958,2.9913,2.9913,2.9913,2.9913,2.9913,2.9913,2.9913,2.9913,2.9913,2.9913,2.9913,2.9958,3.1106,3.1715,3.207,3.207,3.1671,3.136,3.1315,3.1315,3.1493,3.1715,3.1981,3.241,3.2631,3.294,3.3777,3.3689,3.294,3.2719,3.2719,3.2764,3.3117,3.3205,3.3557,3.3733,3.3249,3.4156,3.5031,3.5917,3.6713,3.6697,3.7765,3.8237,3.828,3.828,3.828,3.828,3.798,3.8109,3.828,3.828,3.828,3.828,3.828,3.828,3.828,3.828,3.828,3.828,3.8323,3.8366,3.8623,3.9007,3.9281,3.9536,3.9834,4.0131,2.9913,2.9913,2.9913,2.9913,2.9913,2.9913,2.9913,2.9913,2.9913,2.9913,2.9913,2.9913,2.9913,2.9913,2.9913,2.9913,2.9913,2.9913,2.9913,2.9913,2.9913,2.9913,2.9913,2.9913,2.9913,2.9913,2.9913,2.9958,3.0048,2.9958,3.0003,3.0048,2.9913,3.0093,3.0137,3.0137,3.0137,3.0227,3.0258,3.0227,3.0182,3.0093,3.0048,3.0003,3.0003,2.9913,2.9913,2.9913,2.9913,2.9913,2.9913,2.9913,2.9913,2.9913,2.9913,2.9913,2.9913,2.9913,2.9958,3.0003,3.0705,3.1106,3.0272,2.9958,2.9913,3.0213,3.0182,3.0137,2.9913,3.0392,3.1137,3.136,3.1715,3.2498,3.2277,3.1493,3.1404,3.1404,3.1449,3.1804,3.1967,3.2498,3.2852,3.2498,3.2366,3.3073,3.3762,3.455,3.5352,3.6394,3.7232,3.7188,3.7188,3.6973,3.7059,3.7318,3.7576,3.8195,3.8195,3.8109,3.828,3.828,3.828,3.828,3.828,3.828,3.828,3.8323,3.8323,3.8409,3.8597,3.8811,3.8957,3.9238,3.9604,2.9913,2.9913,2.9913,2.9913,2.9913,2.9913,2.9913,2.9913,2.9913,2.9913,2.9913,2.9913,2.9913,2.9913,2.9913,2.9913,2.9913,2.9913,2.9913,2.9913,2.9913,2.9913,2.9913,2.9913,2.9913,2.9913,2.9913,2.9913,2.9913,2.9913,2.9913,2.9913,2.9913,2.9913,2.9913,2.9913,2.9913,2.9913,2.9913,2.9913,2.9913,2.9913,2.9913,2.9913,2.9913,2.9913,2.9913,2.9913,2.9913,2.9913,2.9913,2.9913,2.9913,2.9913,2.9913,2.9913,2.9913,2.9913,2.9913,2.9913,2.9913,3.0316,3.0048,2.9913,2.9913,2.9913,2.9913,2.9913,2.9913,2.9913,3.0093,3.0182,3.0272,3.0437,3.0437,3.0182,3.0182,3.0182,3.0182,3.0303,3.0348,3.066,3.0839,3.066,3.1196,3.1315,3.2026,3.2498,3.3425,3.4522,3.5177,3.5177,3.5177,3.5221,3.5482,3.6047,3.68,3.7275,3.7705,3.7722,3.798,3.828,3.828,3.828,3.828,3.828,3.828,3.828,3.8323,3.8366,3.8383,3.8512,3.8726,3.8811,3.911,2.9913,2.9913,2.9913,2.9913,2.9913,2.9913,2.9913,2.9913,2.9913,2.9913,2.9913,2.9913,2.9913,2.9913,2.9913,2.9913,2.9913,2.9913,2.9913,2.9913,2.9913,2.9913,2.9913,2.9913,2.9913,2.9913,2.9913,2.9913,2.9913,2.9913,2.9913,2.9913,2.9913,2.9913,2.9913,2.9913,2.9913,2.9913,2.9913,2.9913,2.9913,2.9913,2.9913,2.9913,2.9913,2.9913,2.9913,2.9913,2.9913,2.9913,2.9913,2.9913,2.9913,2.9913,2.9913,2.9913,2.9913,2.9913,2.9913,2.9913,2.9913,2.9913,2.9913,2.9913,2.9913,2.9913,2.9913,2.9913,2.9913,2.9913,2.9913,2.9913,2.9913,2.9913,2.9913,2.9913,2.9913,2.9913,2.9913,2.9913,2.9913,2.9913,2.9913,3.0003,3.0437,3.0227,3.0316,3.0928,3.1537,3.2719,3.3293,3.3293,3.3498,3.3645,3.4172,3.4697,3.5569,3.6351,3.667,3.7145,3.7748,3.8023,3.8195,3.8152,3.7937,3.8066,3.828,3.8066,3.7404,3.8066,3.8195,3.834,3.8426,3.8452,3.8623,2.9913,2.9913,2.9913,2.9913,2.9913,2.9913,2.9913,2.9913,2.9913,2.9913,2.9913,2.9913,2.9913,2.9913,2.9913,2.9913,2.9913,2.9913,2.9913,2.9913,2.9913,2.9913,2.9913,2.9913,2.9913,2.9913,2.9913,2.9913,2.9913,2.9913,2.9913,2.9913,2.9913,2.9913,2.9913,2.9913,2.9913,2.9913,2.9913,2.9913,2.9913,2.9913,2.9913,2.9913,2.9913,2.9913,2.9913,2.9913,2.9913,2.9913,2.9913,2.9913,2.9913,2.9913,2.9913,2.9913,2.9913,2.9913,2.9913,2.9913,2.9913,2.9913,2.9913,2.9913,2.9913,2.9913,2.9913,2.9913,2.9913,2.9913,2.9913,2.9913,2.9913,2.9913,2.9913,2.9913,2.9913,2.9913,2.9913,2.9913,2.9913,2.9913,2.9913,2.9913,2.9913,2.9958,3.0003,3.0182,3.0571,3.1182,3.1582,3.1671,3.1967,3.2277,3.2808,3.3381,3.4128,3.4872,3.5265,3.5874,3.6973,3.7016,3.6567,3.6886,3.7361,3.7404,3.7318,3.667,3.6177,3.68,3.6973,3.6584,3.6886,3.7808,3.8109,2.9913,2.9913,2.9913,2.9913,2.9913,2.9913,2.9913,2.9913,2.9913,2.9913,2.9913,2.9913,2.9913,2.9913,2.9913,2.9913,2.9913,2.9913,2.9913,2.9913,2.9913,2.9913,2.9913,2.9913,2.9913,2.9913,2.9913,2.9913,2.9913,2.9913,2.9913,2.9913,2.9913,2.9913,2.9913,2.9913,2.9913,2.9913,2.9913,2.9913,2.9913,2.9913,2.9913,2.9913,2.9913,2.9913,2.9913,2.9913,2.9913,2.9913,2.9913,2.9913,2.9913,2.9913,2.9913,2.9913,2.9913,2.9913,2.9913,2.9913,2.9913,2.9913,2.9913,2.9913,2.9913,2.9913,2.9913,2.9913,2.9913,2.9913,2.9913,2.9913,2.9913,2.9913,2.9913,2.9913,2.9913,2.9913,2.9913,2.9913,2.9913,2.9913,2.9913,2.9913,2.9913,2.9913,2.9913,2.9913,3.0003,3.0316,3.0392,3.0526,3.0839,3.1226,3.1493,3.207,3.2631,3.3249,3.3777,3.461,3.57,3.5395,3.4697,3.5352,3.6063,3.6047,3.5874,3.5352,3.5003,3.4959,3.4944,3.4463,3.5074,3.6307,3.7188,2.9913,2.9913,2.9913,2.9913,2.9913,2.9913,2.9913,2.9913,2.9913,2.9913,2.9913,2.9913,2.9913,2.9913,2.9913,2.9913,2.9913,2.9913,2.9913,2.9913,2.9913,2.9913,2.9913,2.9913,2.9913,2.9913,2.9913,2.9913,2.9913,2.9913,2.9913,2.9913,2.9913,2.9913,2.9913,2.9913,2.9913,2.9913,2.9913,2.9913,2.9913,2.9913,2.9913,2.9913,2.9913,2.9913,2.9913,2.9913,2.9913,2.9913,2.9913,2.9913,2.9913,2.9913,2.9913,2.9913,2.9913,2.9913,2.9913,2.9913,2.9913,2.9913,2.9913,2.9913,2.9913,2.9913,2.9913,2.9913,2.9913,2.9913,2.9913,2.9913,2.9913,2.9913,2.9913,2.9913,2.9913,2.9913,2.9913,2.9913,2.9913,2.9913,2.9913,2.9913,2.9913,2.9913,2.9913,2.9913,2.9913,3.0048,3.0093,3.0182,3.0093,3.0348,3.0571,3.0839,3.1493,3.1937,3.241,3.3381,3.4332,3.4478,3.4347,3.4303,3.461,3.461,3.461,3.4478,3.4128,3.3586,3.3425,3.3117,3.3425,3.4478,3.5482,2.9913,2.9913,2.9913,2.9913,2.9913,2.9913,2.9913,2.9913,2.9913,2.9913,2.9913,2.9913,2.9913,2.9913,2.9913,2.9913,2.9913,2.9913,2.9913,2.9913,2.9913,2.9913,2.9913,2.9913,2.9913,2.9913,2.9913,2.9913,2.9913,2.9913,2.9913,2.9913,2.9913,2.9913,2.9913,2.9913,2.9913,2.9913,2.9913,2.9913,2.9913,2.9913,2.9913,2.9913,2.9913,2.9913,2.9913,2.9913,2.9913,2.9913,2.9913,2.9913,2.9913,2.9913,2.9913,2.9913,2.9913,2.9913,2.9913,2.9913,2.9913,2.9913,2.9913,2.9913,2.9913,2.9913,2.9913,2.9913,2.9913,2.9913,2.9913,2.9913,2.9913,2.9913,2.9913,2.9913,2.9913,2.9913,2.9913,2.9913,2.9913,2.9913,2.9913,2.9913,2.9913,2.9913,2.9913,2.9913,2.9913,2.9913,2.9913,2.9913,2.9913,2.9913,3.0137,3.0272,3.0451,3.0794,3.1226,3.1537,3.2277,3.3469,3.4084,3.3513,3.3161,3.3161,3.3161,3.2984,3.241,3.1671,3.176,3.1937,3.2336,3.2631,3.3293,2.9913,2.9913,2.9913,2.9913,2.9913,2.9913,2.9913,2.9913,2.9913,2.9913,2.9913,2.9913,2.9913,2.9913,2.9913,2.9913,2.9913,2.9913,2.9913,2.9913,2.9913,2.9913,2.9913,2.9913,2.9913,2.9913,2.9913,2.9913,2.9913,2.9913,2.9913,2.9913,2.9913,2.9913,2.9913,2.9913,2.9913,2.9913,2.9913,2.9913,2.9913,2.9913,2.9913,2.9913,2.9913,2.9913,2.9913,2.9913,2.9913,2.9913,2.9913,2.9913,2.9913,2.9913,2.9913,2.9913,2.9913,2.9913,2.9913,2.9913,2.9913,2.9913,2.9913,2.9913,2.9913,2.9913,2.9913,2.9913,2.9913,2.9913,2.9913,2.9913,2.9913,2.9913,2.9913,2.9913,2.9913,2.9913,2.9913,2.9913,2.9913,2.9913,2.9913,2.9913,2.9913,2.9913,2.9913,2.9913,2.9913,2.9913,2.9913,2.9913,2.9913,2.9913,2.9913,2.9958,3.0048,3.0137,3.0482,3.0137,3.0258,3.1626,3.2292,3.1981,3.1715,3.1804,3.1537,3.1271,3.0571,3.0316,3.0571,3.0973,3.0884,3.1093,3.1093,2.9913,2.9913,2.9913,2.9913,2.9913,2.9913,2.9913,2.9913,2.9913,2.9913,2.9913,2.9913,2.9913,2.9913,2.9913,2.9913,2.9913,2.9913,2.9913,2.9913,2.9913,2.9913,2.9913,2.9913,2.9913,2.9913,2.9913,2.9913,2.9913,2.9913,2.9913,2.9913,2.9913,2.9913,2.9913,2.9913,2.9913,2.9913,2.9913,2.9913,2.9913,2.9913,2.9913,2.9913,2.9913,2.9913,2.9913,2.9913,2.9913,2.9913,2.9913,2.9913,2.9913,2.9913,2.9913,2.9913,2.9913,2.9913,2.9913,2.9913,2.9913,2.9913,2.9913,2.9913,2.9913,2.9913,2.9913,2.9913,2.9913,2.9913,2.9913,2.9913,2.9913,2.9913,2.9913,2.9913,2.9913,2.9913,2.9913,2.9913,2.9913,2.9913,2.9913,2.9913,2.9913,2.9913,2.9913,2.9913,2.9913,2.9913,2.9913,2.9913,2.9913,2.9913,2.9913,2.9913,2.9958,2.9913,2.9913,2.9913,2.9913,3.0003,3.0361,3.0705,3.0571,3.0526,3.0182,3.0272,3.0182,3.0048,3.0003,3.0093,2.9913,2.9958,3.0303]},{"header":{"parameterUnit":"m.s-1","parameterCategory":1,"la1":31.0,"la2":29.5877,"lo1":-88.7671,"lo2":-86.6584,"dx":0.0162,"dy":0.0185,"nx":115,"ny":88,"refTime":"2022-12-01T06:00:00:Z","depth":0,"parameterNumber":3,"parameterNumberName":"V-component_of_WINDS"},"data":[0.0,0.0,0.0,0.0,0.0,0.0,0.0,0.0,0.0,0.0,0.0,0.0,0.0,0.0,0.0,0.0,0.0,0.0,0.0,0.0,0.0,0.0,0.0,0.0,0.0,0.0,0.0,0.0,0.0,0.0,0.0,0.0,0.0,0.0,0.0,0.0,0.0,0.0,0.0,0.0,0.0,0.0,0.0,0.0,0.0,0.0,0.0,0.0,0.0,0.0,0.0,0.0,0.0,0.0,0.0,0.0,0.0,0.0,0.0,0.0,0.0,0.0,0.0,0.0,0.0,0.0,0.0,0.0,0.0,0.0,0.0,0.0,0.0,0.0,0.0,0.0,0.0,0.0,0.0,0.0,0.0,0.0,0.0,0.0,0.0,0.0,0.0,0.0,0.0,0.0,0.0,0.0,0.0,0.0,0.0,0.0,0.0,0.0,0.0,0.0,0.0,0.0,0.0,0.0,0.0,0.0,0.0,0.0,0.0,0.0,0.0,0.0,0.0,0.0,0.0,0.0,0.0,0.0,0.0,0.0,0.0,0.0,0.0,0.0,0.0,0.0,0.0,0.0,0.0,0.0,0.0,0.0,0.0,0.0,0.0,0.0,0.0,0.0,0.0,0.0,0.0,0.0,0.0,0.0,0.0,0.0,0.0,0.0,0.0,0.0,0.0,0.0,0.0,0.0,0.0,0.0,0.0,0.0,0.0,0.0,0.0,0.0,0.0,0.0,0.0,0.0,0.0,0.0,0.0,0.0,0.0,0.0,0.0,0.0,0.0,0.0,0.0,0.0,0.0,0.0,0.0,0.0,0.0,0.0,0.0,0.0,0.0,0.0,0.0,0.0,0.0,0.0,0.0,0.0,0.0,0.0,0.0,0.0,0.0,0.0,0.0,0.0,0.0,0.0,0.0,0.0,0.0,0.0,0.0,0.0,0.0,0.0,0.0,0.0,0.0,0.0,0.0,0.0,0.0,0.0,0.0,0.0,0.0,0.0,0.0,0.0,0.0,0.0,0.0,0.0,0.0,0.0,0.0,0.0,0.0,0.0,0.0,0.0,0.0,0.0,0.0,0.0,0.0,0.0,0.0,0.0,0.0,0.0,0.0,0.0,0.0,0.0,0.0,0.0,0.0,0.0,0.0,0.0,0.0,0.0,0.0,0.0,0.0,0.0,0.0,0.0,0.0,0.0,0.0,0.0,0.0,0.0,0.0,0.0,0.0,0.0,0.0,0.0,0.0,0.0,0.0,0.0,0.0,0.0,0.0,0.0,0.0,0.0,0.0,0.0,0.0,0.0,0.0,0.0,0.0,0.0,0.0,0.0,0.0,0.0,0.0,0.0,0.0,0.0,0.0,0.0,0.0,0.0,0.0,0.0,0.0,0.0,0.0,0.0,0.0,0.0,0.0,0.0,0.0,0.0,0.0,0.0,0.0,0.0,0.0,0.0,0.0,0.0,0.0,0.0,0.0,0.0,0.0,0.0,0.0,0.0,0.0,0.0,0.0,0.0,0.0,0.0,0.0,0.0,0.0,0.0,0.0,0.0,0.0,0.0,0.0,0.0,0.0,0.0,0.0,0.0,0.0,0.0,0.0,0.0,0.0,0.0,0.0,0.0,0.0,0.0,0.0,0.0,0.0,0.0,0.0,0.0,0.0,0.0,0.0,0.0,0.0,0.0,0.0,0.0,0.0,0.0,0.0,0.0,0.0,0.0,0.0,0.0,0.0,0.0,0.0,0.0,0.0,0.0,0.0,0.0,0.0,0.0,0.0,0.0,0.0,0.0,0.0,0.0,0.0,0.0,0.0,0.0,0.0,0.0,0.0,0.0,0.0,0.0,0.0,0.0,0.0,0.0,0.0,0.0,0.0,0.0,0.0,0.0,0.0,0.0,0.0,0.0,0.0,0.0,0.0,0.0,0.0,0.0,0.0,0.0,0.0,0.0,0.0,0.0,0.0,0.0,0.0,0.0,0.0,0.0,0.0,0.0,0.0,0.0,0.0,0.0,0.0,0.0,0.0,0.0,0.0,0.0,0.0,0.0,0.0,0.0,0.0,0.0,0.0,0.0,0.0,0.0,0.0,0.0,0.0,0.0,0.0,0.0,0.0,0.0,0.0,0.0,0.0,0.0,0.0,0.0,0.0,0.0,0.0,0.0,0.0,0.0,0.0,0.0,0.0,0.0,0.0,0.0,0.0,0.0,0.0,0.0,0.0,0.0,0.0,0.0,0.0,0.0,0.0,0.0,0.0,0.0,0.0,0.0,0.0,0.0,0.0,0.0,0.0,0.0,0.0,0.0,0.0,0.0,0.0,0.0,0.0,0.0,0.0,0.0,0.0,0.0,0.0,0.0,0.0,0.0,0.0,0.0,0.0,0.0,0.0,0.0,0.0,0.0,0.0,0.0,0.0,0.0,0.0,0.0,0.0,0.0,0.0,0.0,0.0,0.0,0.0,0.0,0.0,0.0,0.0,0.0,0.0,0.0,0.0,0.0,0.0,0.0,0.0,0.0,0.0,0.0,0.0,0.0,0.0,0.0,0.0,0.0,0.0,0.0,0.0,0.0,0.0,0.0,0.0,0.0,0.0,0.0,0.0,0.0,0.0,0.0,0.0,0.0,0.0,0.0,0.0,0.0,0.0,0.0,0.0,0.0,0.0,0.0,0.0,0.0,0.0,0.0,0.0,0.0,0.0,0.0,0.0,0.0,0.0,0.0,0.0,0.0,0.0,0.0,0.0,0.0,0.0,0.0,0.0,0.0,0.0,0.0,0.0,0.0,0.0,0.0,0.0,0.0,0.0,0.0,0.0,0.0,0.0,0.0,0.0,0.0,0.0,0.0,0.0,0.0,0.0,0.0,0.0,0.0,0.0,0.0,0.0,0.0,0.0,0.0,0.0,0.0,0.0,0.0,0.0,0.0,0.0,0.0,0.0,0.0,0.0,0.0,0.0,0.0,0.0,0.0,0.0,0.0,0.0,0.0,0.0,0.0,0.0,0.0,0.0,0.0,0.0,0.0,0.0,0.0,0.0,0.0,0.0,0.0,0.0,0.0,0.0,0.0,0.0,0.0,0.0,0.0,0.0,0.0,0.0,0.0,0.0,0.0,0.0,0.0,0.0,0.0,0.0,0.0,0.0,0.0,0.0,0.0,0.0,0.0,0.0,0.0,0.0,0.0,0.0,0.0,0.0,0.0,0.0,0.0,0.0,0.0,0.0,0.0,0.0,0.0,0.0,0.0,0.0,0.0,0.0,0.0,0.0,0.0,0.0,0.0,0.0,0.0,0.0,0.0,0.0,0.0,0.0,0.0,0.0,0.0,0.0,0.0,0.0,0.0,0.0,0.0,0.0,0.0,0.0,0.0,0.0,0.0,0.0,0.0,0.0,0.0,0.0,0.0,0.0,0.0,0.0,0.0,0.0,0.0,0.0,0.0,0.0,0.0,0.0,0.0,0.0,0.0,0.0,0.0,0.0,0.0,0.0,0.0,0.0,0.0,0.0,0.0,0.0,0.0,0.0,0.0,0.0,0.0,0.0,0.0,0.0,0.0,0.0,0.0,0.0,0.0,0.0,0.0,0.0,0.0,0.0,0.0,0.0,0.0,0.0,0.0,0.0,0.0,0.0,0.0,0.0,0.0,0.0,0.0,0.0,0.0,0.0,0.0,0.0,0.0,0.0,0.0,0.0,0.0,0.0,0.0,0.0,0.0,0.0,0.0,0.0,0.0,0.0,0.0,0.0,0.0,0.0,0.0,0.0,0.0,0.0,0.0,0.0,0.0,0.0,0.0,0.0,0.0,0.0,0.0,0.0,0.0,0.0,0.0,0.0,0.0,0.0,0.0,0.0,0.0,0.0,0.0,0.0,0.0,0.0,0.0,0.0,0.0,0.0,0.0,0.0,0.0,0.0,0.0,0.0,0.0,0.0,0.0,0.0,0.0,0.0,0.0,0.0,0.0,0.0,0.0,0.0,0.0,0.0,0.0,0.0,0.0,0.0,0.0,0.0,0.0,0.0,0.0,0.0,0.0,0.0,0.0,0.0,0.0,0.0,0.0,0.0,0.0,0.0,0.0,0.0,0.0,0.0,0.0,0.0,0.0,0.0,0.0,0.0,0.0,0.0,0.0,0.0,0.0,0.0,0.0,0.0,0.0,0.0,0.0,0.0,0.0,0.0,0.0,0.0,0.0,0.0,0.0,0.0,0.0,0.0,0.0,0.0,0.0,0.0,0.0,0.0,0.0,0.0,0.0,0.0,0.0,0.0,0.0,1.7526,0.0,0.0,0.0,1.4433,0.0,0.0,0.0,0.0,0.0,0.0,0.0,0.0,0.0,0.0,0.0,0.0,0.0,0.0,0.0,0.0,0.0,0.0,0.0,0.0,0.0,0.0,0.0,0.0,0.0,0.0,0.0,0.0,0.0,0.0,0.0,0.0,0.0,0.0,0.0,0.0,0.0,0.0,0.0,0.0,0.0,0.0,0.0,0.0,0.0,0.0,0.0,0.0,0.0,0.0,0.0,0.0,0.0,0.0,0.0,0.0,0.0,0.0,0.0,0.0,0.0,0.0,0.0,0.0,0.0,0.0,0.0,0.0,0.0,0.0,0.0,0.0,0.0,0.0,0.0,0.0,0.0,0.0,0.0,0.0,0.0,0.0,0.0,0.0,0.0,0.0,0.0,0.0,0.0,0.0,0.0,0.0,0.0,0.0,0.0,0.0,0.0,0.0,0.0,0.0,0.0,0.0,0.0,0.0,0.0,0.0,0.0,0.0,0.0,0.0,1.758,1.7558,1.5905,1.4992,1.5004,0.0,0.0,0.0,0.0,0.0,0.0,0.0,0.0,0.0,0.0,0.0,0.0,0.0,0.0,0.0,0.0,0.0,0.0,0.0,0.0,0.0,0.0,0.0,0.0,0.0,0.0,0.0,0.0,0.0,0.0,0.0,0.0,0.0,0.0,0.0,0.0,0.0,0.0,0.0,0.0,0.0,0.0,0.0,0.0,0.0,0.0,0.0,0.0,0.0,0.0,0.0,0.0,0.0,0.0,0.0,0.0,0.0,0.0,0.0,0.0,0.0,0.0,0.0,0.0,0.0,0.0,0.0,0.0,0.0,0.0,0.0,0.0,0.0,0.0,0.0,0.0,0.0,0.0,0.0,0.0,0.0,0.0,0.0,0.0,0.0,0.0,0.0,0.0,0.0,0.0,0.0,0.0,0.0,0.0,0.0,0.0,0.0,0.0,0.0,0.0,0.0,0.0,0.0,0.0,0.0,0.0,0.0,0.0,0.0,0.0,0.0,0.0,1.6696,1.5795,1.5736,0.0,0.0,0.0,0.0,0.0,0.0,0.0,0.0,0.0,0.0,0.0,0.0,0.0,0.0,0.0,0.0,0.0,0.0,0.0,0.0,0.0,0.0,0.0,0.0,0.0,0.0,0.0,0.0,0.0,0.0,0.0,0.0,0.0,0.0,0.0,0.0,0.0,0.0,0.0,0.0,0.0,0.0,0.0,0.0,0.0,0.0,0.0,0.0,0.0,0.0,0.0,0.0,0.0,0.0,0.0,0.0,0.0,0.0,0.0,0.0,0.0,0.0,0.0,0.0,0.0,0.0,0.0,0.0,0.0,0.0,0.0,0.0,0.0,0.0,0.0,0.0,0.0,0.0,0.0,0.0,0.0,0.0,0.0,0.0,0.0,0.0,0.0,0.0,0.0,0.0,0.0,0.0,0.0,0.0,0.0,0.0,0.0,0.0,0.0,0.0,0.0,0.0,0.0,0.0,0.0,0.0,0.0,0.0,0.0,0.0,1.8107,1.8606,1.7499,0.0,1.6479,0.0,0.0,0.0,0.0,0.0,0.0,0.0,0.0,0.0,0.0,0.0,0.0,0.0,0.0,0.0,0.0,0.0,0.0,0.0,0.0,0.0,0.0,0.0,0.0,0.0,0.0,0.0,0.0,0.0,0.0,0.0,0.0,0.0,0.0,0.0,0.0,0.0,0.0,0.0,0.0,0.0,0.0,0.0,0.0,0.0,0.0,0.0,0.0,0.0,0.0,0.0,0.0,0.0,0.0,0.0,0.0,0.0,0.0,0.0,0.0,0.0,0.0,0.0,0.0,0.0,0.0,0.0,0.0,0.0,0.0,0.0,0.0,0.0,0.0,0.0,0.0,0.0,0.0,0.0,0.0,0.0,0.0,0.0,0.0,0.0,0.0,0.0,0.0,0.0,0.0,0.0,0.0,0.0,0.0,0.0,0.0,0.0,0.0,0.0,0.0,0.0,0.0,0.0,0.0,0.0,0.0,0.0,0.0,0.0,0.0,1.8645,1.8866,1.8114,1.763,0.0,0.0,0.0,0.0,0.0,0.0,0.0,0.0,0.0,0.0,0.0,0.0,0.0,0.0,0.0,0.0,0.0,0.0,0.0,0.0,0.0,0.0,0.0,0.0,0.0,0.0,0.0,0.0,0.0,0.0,0.0,0.0,0.0,0.0,0.0,0.0,0.0,0.0,0.0,0.0,0.0,0.0,0.0,0.0,0.0,0.0,0.0,0.0,0.0,0.0,0.0,0.0,0.0,0.0,0.0,0.0,0.0,0.0,0.0,0.0,0.0,0.0,0.0,0.0,0.0,0.0,0.0,0.0,0.0,0.0,0.0,0.0,0.0,0.0,0.0,0.0,0.0,0.0,0.0,0.0,0.0,0.0,0.0,0.0,0.0,0.0,0.0,0.0,0.0,0.0,0.0,0.0,0.0,0.0,0.0,0.0,0.0,0.0,0.0,0.0,0.0,0.0,0.0,0.0,0.0,0.0,0.0,0.0,0.0,0.0,1.8556,1.8857,1.8983,1.892,1.8606,1.8015,0.0,0.0,0.0,0.0,0.0,0.0,0.0,0.0,0.0,0.0,0.0,0.0,0.0,0.0,0.0,0.0,0.0,0.0,0.0,0.0,0.0,0.0,0.0,0.0,0.0,0.0,0.0,0.0,0.0,0.0,0.0,0.0,0.0,0.0,0.0,0.0,0.0,0.0,0.0,0.0,0.0,0.0,0.0,0.0,0.0,0.0,0.0,0.0,0.0,0.0,0.0,0.0,0.0,0.0,0.0,0.0,0.0,0.0,0.0,0.0,0.0,0.0,0.0,0.0,0.0,0.0,0.0,0.0,0.0,0.0,0.0,0.0,0.0,0.0,0.0,0.0,0.0,0.0,0.0,0.0,0.0,0.0,0.0,0.0,0.0,0.0,0.0,0.0,0.0,0.0,0.0,0.0,0.0,0.0,0.0,0.0,0.0,0.0,0.0,0.0,0.0,0.0,0.0,0.0,0.0,0.0,0.0,0.0,1.8154,1.8229,1.8481,1.9045,2.0025,1.9585,0.0,0.0,0.0,0.0,0.0,0.0,0.0,0.0,0.0,0.0,0.0,0.0,0.0,0.0,0.0,0.0,0.0,0.0,0.0,0.0,0.0,0.0,0.0,0.0,0.0,0.0,0.0,0.0,0.0,0.0,0.0,0.0,0.0,0.0,0.0,0.0,0.0,0.0,0.0,0.0,0.0,0.0,0.0,0.0,0.0,0.0,0.0,0.0,0.0,0.0,0.0,0.0,0.0,0.0,0.0,0.0,0.0,0.0,0.0,0.0,0.0,0.0,0.0,0.0,0.0,0.0,0.0,0.0,0.0,0.0,0.0,0.0,0.0,0.0,0.0,0.0,0.0,0.0,0.0,0.0,0.0,0.0,0.0,0.0,0.0,0.0,0.0,0.0,0.0,0.0,0.0,0.0,0.0,0.0,0.0,0.0,0.0,0.0,0.0,0.0,0.0,0.0,0.0,0.0,0.0,0.0,0.0,0.0,0.0,1.7616,1.8,1.8999,2.0488,1.9293,1.8542,0.0,0.0,0.0,0.0,0.0,0.0,0.0,0.0,0.0,0.0,0.0,0.0,0.0,0.0,0.0,0.0,0.0,0.0,0.0,0.0,0.0,0.0,0.0,0.0,0.0,0.0,0.0,0.0,0.0,0.0,0.0,0.0,0.0,0.0,0.0,0.0,0.0,0.0,0.0,0.0,0.0,0.0,0.0,0.0,0.0,0.0,0.0,0.0,0.0,0.0,0.0,0.0,0.0,0.0,0.0,0.0,0.0,0.0,0.0,0.0,0.0,0.0,0.0,0.0,0.0,0.0,0.0,0.0,0.0,0.0,0.0,0.0,0.0,0.0,0.0,0.0,0.0,0.0,0.0,0.0,0.0,0.0,0.0,0.0,0.0,0.0,0.0,0.0,0.0,0.0,0.0,0.0,0.0,0.0,0.0,0.0,0.0,0.0,0.0,0.0,0.0,0.0,0.0,0.0,0.0,0.0,0.0,0.0,0.0,1.812,1.8572,1.9426,2.0553,1.8905,1.8003,0.0,0.0,0.0,0.0,0.0,0.0,0.0,0.0,0.0,0.0,0.0,0.0,0.0,0.0,0.0,0.0,0.0,0.0,0.0,0.0,0.0,0.0,0.0,0.0,0.0,0.0,0.0,0.0,0.0,0.0,0.0,0.0,0.0,0.0,0.0,0.0,0.0,0.0,0.0,0.0,0.0,0.0,0.0,0.0,0.0,0.0,0.0,0.0,0.0,0.0,0.0,0.0,0.0,0.0,0.0,0.0,0.0,0.0,0.0,0.0,0.0,0.0,0.0,0.0,0.0,0.0,0.0,0.0,0.0,0.0,0.0,0.0,0.0,0.0,0.0,0.0,0.0,0.0,0.0,0.0,0.0,0.0,0.0,0.0,0.0,0.0,0.0,0.0,0.0,0.0,0.0,0.0,0.0,0.0,0.0,0.0,0.0,0.0,0.0,0.0,0.0,0.0,0.0,0.0,0.0,0.0,0.0,0.0,1.8199,1.9789,1.999,1.9839,1.9175,1.9067,1.8241,0.0,0.0,0.0,0.0,0.0,0.0,0.0,0.0,0.0,0.0,0.0,0.0,0.0,0.0,0.0,0.0,0.0,0.0,0.0,0.0,0.0,0.0,0.0,0.0,0.0,0.0,0.0,0.0,0.0,0.0,0.0,0.0,0.0,0.0,0.0,0.0,0.0,0.0,0.0,0.0,0.0,0.0,0.0,0.0,0.0,0.0,0.0,0.0,0.0,0.0,0.0,0.0,0.0,0.0,0.0,0.0,0.0,0.0,0.0,0.0,0.0,0.0,0.0,0.0,0.0,0.0,0.0,0.0,0.0,0.0,0.0,0.0,0.0,0.0,0.0,0.0,0.0,0.0,0.0,0.0,0.0,0.0,0.0,0.0,0.0,0.0,0.0,0.0,0.0,0.0,0.0,0.0,0.0,0.0,0.0,0.0,0.0,0.0,0.0,0.0,0.0,0.0,0.0,0.0,0.0,0.0,0.0,0.0,0.0,2.0602,2.1511,2.1668,2.0899,1.9786,1.8728,0.0,0.0,0.0,0.0,0.0,0.0,0.0,0.0,0.0,0.0,0.0,0.0,0.0,0.0,0.0,0.0,0.0,0.0,0.0,0.0,0.0,0.0,0.0,0.0,0.0,0.0,0.0,0.0,0.0,0.0,0.0,0.0,0.0,0.0,0.0,0.0,0.0,0.0,0.0,0.0,0.0,0.0,0.0,0.0,0.0,0.0,0.0,0.0,0.0,0.0,0.0,0.0,0.0,0.0,0.0,0.0,0.0,0.0,0.0,0.0,0.0,0.0,0.0,0.0,0.0,0.0,0.0,0.0,0.0,0.0,0.0,0.0,0.0,0.0,0.0,0.0,0.0,0.0,0.0,0.0,0.0,0.0,0.0,0.0,0.0,0.0,0.0,0.0,0.0,0.0,0.0,0.0,0.0,0.0,0.0,0.0,0.0,0.0,0.0,0.0,0.0,0.0,0.0,0.0,0.0,0.0,0.0,0.0,0.0,2.3017,2.356,2.3542,2.2847,2.1148,1.9705,1.8635,0.0,0.0,0.0,0.0,0.0,0.0,0.0,0.0,0.0,0.0,0.0,0.0,0.0,0.0,0.0,0.0,0.0,0.0,0.0,0.0,0.0,0.0,0.0,0.0,0.0,0.0,0.0,0.0,0.0,0.0,0.0,0.0,0.0,0.0,0.0,0.0,0.0,0.0,0.0,0.0,0.0,0.0,0.0,0.0,0.0,0.0,0.0,0.0,0.0,0.0,0.0,0.0,0.0,0.0,0.0,0.0,0.0,0.0,0.0,0.0,0.0,0.0,0.0,0.0,0.0,0.0,0.0,0.0,0.0,0.0,0.0,0.0,0.0,0.0,0.0,0.0,0.0,0.0,0.0,0.0,0.0,0.0,0.0,0.0,0.0,0.0,0.0,0.0,0.0,0.0,0.0,0.0,0.0,0.0,0.0,0.0,0.0,0.0,0.0,0.0,0.0,0.0,0.0,0.0,0.0,0.0,0.0,0.0,2.6491,2.6007,2.5439,2.4787,2.2892,2.1089,0.0,0.0,0.0,0.0,0.0,0.0,0.0,0.0,0.0,0.0,0.0,0.0,0.0,0.0,0.0,0.0,0.0,0.0,0.0,0.0,0.0,0.0,0.0,0.0,0.0,0.0,0.0,0.0,0.0,0.0,0.0,0.0,0.0,0.0,0.0,0.0,0.0,0.0,0.0,0.0,0.0,0.0,0.0,0.0,0.0,0.0,0.0,0.0,0.0,0.0,0.0,0.0,0.0,0.0,0.0,0.0,0.0,0.0,0.0,0.0,0.0,0.0,0.0,0.0,0.0,0.0,0.0,0.0,0.0,0.0,0.0,0.0,0.0,0.0,0.0,0.0,0.0,0.0,0.0,0.0,0.0,0.0,0.0,0.0,0.0,0.0,0.0,0.0,0.0,0.0,0.0,0.0,0.0,0.0,0.0,0.0,0.0,0.0,0.0,0.0,0.0,0.0,0.0,0.0,0.0,0.0,0.0,0.0,0.0,2.6299,2.7976,2.7988,2.6077,2.4204,2.2152,0.0,0.0,0.0,0.0,0.0,0.0,0.0,0.0,0.0,0.0,0.0,0.0,0.0,0.0,0.0,0.0,0.0,0.0,0.0,0.0,0.0,0.0,0.0,0.0,0.0,0.0,0.0,0.0,0.0,0.0,0.0,0.0,0.0,0.0,0.0,0.0,0.0,0.0,0.0,0.0,0.0,0.0,0.0,0.0,0.0,0.0,0.0,0.0,0.0,0.0,0.0,0.0,0.0,0.0,0.0,0.0,0.0,0.0,0.0,0.0,0.0,0.0,0.0,0.0,0.0,0.0,0.0,0.0,0.0,0.0,0.0,0.0,0.0,0.0,0.0,0.0,0.0,0.0,0.0,0.0,0.0,0.0,0.0,0.0,0.0,0.0,0.0,0.0,0.0,0.0,0.0,0.0,0.0,0.0,0.0,0.0,0.0,0.0,0.0,0.0,0.0,0.0,0.0,0.0,0.0,0.0,0.0,0.0,2.7068,2.8268,2.9933,3.013,2.8672,2.6408,2.3956,0.0,0.0,0.0,0.0,0.0,0.0,0.0,0.0,0.0,0.0,0.0,0.0,0.0,0.0,0.0,0.0,0.0,0.0,0.0,0.0,0.0,0.0,0.0,0.0,0.0,0.0,0.0,0.0,0.0,0.0,0.0,0.0,0.0,0.0,0.0,0.0,0.0,0.0,0.0,0.0,0.0,0.0,0.0,0.0,0.0,0.0,0.0,0.0,0.0,0.0,0.0,0.0,0.0,0.0,0.0,0.0,0.0,0.0,0.0,0.0,0.0,0.0,0.0,0.0,0.0,0.0,0.0,0.0,0.0,0.0,0.0,0.0,0.0,0.0,0.0,0.0,0.0,0.0,0.0,0.0,0.0,0.0,0.0,0.0,0.0,0.0,0.0,0.0,0.0,0.0,0.0,0.0,0.0,0.0,0.0,0.0,0.0,0.0,0.0,0.0,0.0,0.0,0.0,0.0,0.0,0.0,0.0,0.0,2.9822,3.1086,3.1659,3.1849,3.1573,2.889,2.6008,0.0,0.0,0.0,0.0,0.0,0.0,0.0,0.0,0.0,0.0,0.0,0.0,0.0,0.0,0.0,0.0,0.0,0.0,0.0,0.0,0.0,0.0,0.0,0.0,0.0,0.0,0.0,0.0,0.0,0.0,0.0,0.0,0.0,0.0,0.0,0.0,0.0,0.0,0.0,0.0,0.0,0.0,0.0,0.0,0.0,0.0,0.0,0.0,0.0,0.0,0.0,0.0,0.0,0.0,0.0,0.0,0.0,0.0,0.0,0.0,0.0,0.0,0.0,0.0,0.0,0.0,0.0,0.0,0.0,0.0,0.0,0.0,0.0,0.0,0.0,0.0,0.0,0.0,0.0,0.0,0.0,0.0,0.0,0.0,0.0,0.0,0.0,0.0,0.0,0.0,0.0,0.0,0.0,0.0,0.0,0.0,0.0,0.0,0.0,0.0,0.0,0.0,0.0,0.0,0.0,0.0,0.0,0.0,2.991,3.1298,3.2429,3.2684,3.2073,2.9439,2.6735,0.0,0.0,0.0,0.0,0.0,0.0,0.0,0.0,0.0,0.0,0.0,0.0,0.0,0.0,0.0,0.0,0.0,0.0,0.0,0.0,0.0,0.0,0.0,0.0,0.0,0.0,0.0,0.0,0.0,0.0,0.0,0.0,0.0,0.0,0.0,0.0,0.0,0.0,0.0,0.0,0.0,0.0,0.0,0.0,0.0,0.0,0.0,0.0,3.3384,0.0,0.0,0.0,0.0,0.0,0.0,0.0,0.0,0.0,0.0,0.0,0.0,0.0,0.0,0.0,0.0,0.0,0.0,0.0,0.0,0.0,0.0,0.0,0.0,0.0,0.0,0.0,0.0,0.0,0.0,0.0,0.0,0.0,0.0,0.0,0.0,0.0,0.0,0.0,0.0,0.0,0.0,0.0,0.0,0.0,0.0,0.0,0.0,0.0,0.0,0.0,0.0,0.0,0.0,0.0,0.0,0.0,0.0,0.0,3.1169,3.272,3.3615,3.4085,3.4039,3.2024,2.9175,0.0,0.0,0.0,0.0,0.0,0.0,0.0,0.0,0.0,0.0,0.0,0.0,0.0,0.0,0.0,0.0,0.0,0.0,0.0,0.0,0.0,0.0,0.0,0.0,0.0,0.0,0.0,0.0,0.0,0.0,0.0,0.0,0.0,0.0,0.0,0.0,0.0,0.0,0.0,0.0,0.0,0.0,0.0,0.0,0.0,0.0,0.0,0.0,0.0,0.0,0.0,0.0,0.0,0.0,0.0,0.0,0.0,0.0,0.0,0.0,0.0,0.0,0.0,0.0,0.0,0.0,0.0,0.0,0.0,0.0,0.0,0.0,0.0,0.0,0.0,0.0,0.0,0.0,0.0,0.0,0.0,0.0,0.0,0.0,0.0,0.0,0.0,0.0,0.0,0.0,0.0,0.0,0.0,0.0,0.0,0.0,0.0,0.0,0.0,0.0,0.0,0.0,0.0,0.0,0.0,0.0,0.0,3.0133,3.2725,3.4532,3.5029,3.5637,3.6353,3.5175,3.2318,2.778,0.0,0.0,0.0,0.0,0.0,0.0,0.0,0.0,0.0,0.0,0.0,0.0,0.0,0.0,0.0,0.0,0.0,0.0,0.0,0.0,0.0,0.0,0.0,0.0,0.0,0.0,0.0,0.0,0.0,0.0,0.0,0.0,0.0,0.0,0.0,0.0,0.0,0.0,2.6625,2.9101,0.0,0.0,0.0,0.0,0.0,0.0,0.0,0.0,3.3673,0.0,0.0,0.0,0.0,0.0,0.0,0.0,0.0,0.0,0.0,0.0,0.0,0.0,0.0,0.0,0.0,0.0,0.0,0.0,0.0,0.0,0.0,0.0,0.0,0.0,0.0,0.0,0.0,0.0,0.0,0.0,0.0,0.0,0.0,0.0,0.0,0.0,0.0,0.0,0.0,0.0,0.0,0.0,0.0,0.0,0.0,0.0,0.0,0.0,0.0,0.0,0.0,0.0,0.0,0.0,0.0,2.9113,3.1201,3.3511,3.5983,3.6551,3.6835,3.6884,3.7024,3.5165,3.1153,0.0,0.0,0.0,0.0,0.0,0.0,0.0,0.0,0.0,0.0,0.0,0.0,0.0,0.0,0.0,0.0,0.0,0.0,0.0,0.0,0.0,0.0,0.0,0.0,0.0,0.0,0.0,0.0,0.0,0.0,0.0,0.0,0.0,0.0,0.0,0.0,0.0,0.0,0.0,3.2342,3.3493,0.0,0.0,0.0,0.0,0.0,0.0,0.0,0.0,3.469,0.0,0.0,0.0,0.0,0.0,0.0,0.0,0.0,0.0,0.0,0.0,0.0,0.0,0.0,0.0,0.0,0.0,0.0,0.0,0.0,0.0,0.0,0.0,0.0,0.0,0.0,0.0,0.0,0.0,0.0,0.0,0.0,0.0,0.0,0.0,0.0,0.0,0.0,0.0,0.0,0.0,0.0,0.0,0.0,0.0,0.0,0.0,0.0,0.0,0.0,0.0,0.0,0.0,0.0,0.0,2.9618,3.2845,3.5256,3.6788,3.7615,3.8129,3.8368,3.7834,3.6035,0.0,0.0,0.0,0.0,0.0,0.0,0.0,0.0,0.0,0.0,0.0,0.0,0.0,0.0,0.0,0.0,0.0,0.0,0.0,0.0,0.0,0.0,0.0,0.0,0.0,0.0,0.0,0.0,0.0,0.0,0.0,0.0,0.0,0.0,0.0,0.0,0.0,0.0,0.0,0.0,3.4029,3.4965,3.5873,0.0,0.0,0.0,0.0,0.0,0.0,3.5106,3.5145,0.0,0.0,0.0,0.0,0.0,0.0,0.0,0.0,0.0,0.0,0.0,0.0,0.0,0.0,0.0,0.0,0.0,0.0,0.0,0.0,0.0,0.0,0.0,0.0,0.0,0.0,0.0,0.0,0.0,0.0,0.0,0.0,0.0,0.0,0.0,0.0,0.0,0.0,0.0,0.0,0.0,0.0,0.0,0.0,0.0,0.0,0.0,0.0,0.0,0.0,0.0,0.0,0.0,0.0,0.0,2.9854,3.4051,3.6695,3.7501,3.849,3.9217,3.9636,3.843,3.6381,0.0,0.0,0.0,0.0,0.0,0.0,0.0,0.0,0.0,0.0,0.0,0.0,0.0,0.0,0.0,0.0,0.0,0.0,0.0,0.0,0.0,0.0,0.0,0.0,0.0,0.0,0.0,0.0,0.0,0.0,0.0,0.0,0.0,0.0,0.0,0.0,0.0,0.0,0.0,0.0,0.0,3.5816,3.6298,3.6092,0.0,0.0,0.0,0.0,3.5924,3.6059,0.0,0.0,0.0,0.0,0.0,0.0,0.0,0.0,0.0,0.0,0.0,0.0,0.0,0.0,0.0,0.0,0.0,0.0,0.0,0.0,0.0,0.0,0.0,0.0,0.0,0.0,0.0,0.0,0.0,0.0,0.0,0.0,0.0,0.0,0.0,0.0,0.0,0.0,0.0,0.0,0.0,0.0,0.0,0.0,0.0,0.0,0.0,0.0,0.0,0.0,0.0,0.0,0.0,0.0,0.0,0.0,3.0829,3.3861,3.6488,3.851,3.9253,3.9613,3.9702,3.9251,3.6982,0.0,0.0,0.0,0.0,0.0,0.0,0.0,0.0,0.0,0.0,0.0,0.0,0.0,0.0,0.0,0.0,0.0,0.0,0.0,0.0,0.0,0.0,0.0,0.0,0.0,0.0,0.0,0.0,0.0,0.0,0.0,0.0,0.0,0.0,0.0,0.0,0.0,0.0,0.0,0.0,0.0,3.5503,3.6807,3.6404,3.6163,0.0,0.0,3.7216,3.7044,3.7701,0.0,0.0,0.0,0.0,0.0,0.0,0.0,0.0,0.0,0.0,0.0,0.0,0.0,0.0,0.0,0.0,0.0,0.0,0.0,0.0,0.0,0.0,0.0,0.0,0.0,0.0,0.0,0.0,0.0,0.0,0.0,0.0,0.0,0.0,0.0,0.0,0.0,0.0,0.0,0.0,0.0,0.0,0.0,0.0,0.0,0.0,0.0,0.0,0.0,0.0,0.0,0.0,0.0,0.0,0.0,2.9587,3.2056,3.585,3.827,3.9265,3.9862,4.0143,4.0143,3.9534,3.6964,0.0,0.0,0.0,0.0,0.0,0.0,0.0,0.0,0.0,0.0,0.0,0.0,0.0,0.0,0.0,0.0,0.0,0.0,0.0,0.0,0.0,0.0,0.0,0.0,0.0,0.0,0.0,0.0,0.0,0.0,0.0,0.0,0.0,0.0,0.0,0.0,0.0,0.0,0.0,0.0,0.0,0.0,3.7739,3.7801,0.0,0.0,0.0,3.8714,3.8346,0.0,0.0,0.0,0.0,0.0,0.0,0.0,0.0,0.0,0.0,0.0,0.0,0.0,0.0,0.0,0.0,0.0,0.0,0.0,0.0,0.0,0.0,0.0,0.0,0.0,0.0,0.0,0.0,0.0,0.0,0.0,0.0,0.0,0.0,0.0,0.0,0.0,0.0,0.0,0.0,0.0,0.0,0.0,0.0,0.0,0.0,0.0,0.0,0.0,0.0,0.0,0.0,0.0,0.0,0.0,0.0,0.0,3.3033,3.7431,3.9785,3.9897,4.0283,4.0505,4.0491,3.985,0.0,0.0,0.0,0.0,0.0,0.0,0.0,0.0,0.0,0.0,0.0,0.0,0.0,0.0,0.0,0.0,0.0,0.0,0.0,0.0,0.0,0.0,0.0,0.0,0.0,0.0,0.0,2.0869,0.0,0.0,0.0,0.0,0.0,0.0,0.0,0.0,0.0,0.0,0.0,0.0,0.0,0.0,3.8663,3.851,3.9235,3.9848,0.0,0.0,4.0185,4.0027,4.0354,4.0144,0.0,0.0,0.0,0.0,0.0,0.0,0.0,0.0,0.0,0.0,0.0,0.0,0.0,0.0,0.0,0.0,0.0,0.0,0.0,0.0,0.0,0.0,0.0,0.0,0.0,0.0,0.0,0.0,0.0,0.0,0.0,0.0,0.0,0.0,0.0,0.0,0.0,0.0,0.0,0.0,0.0,0.0,0.0,0.0,0.0,0.0,0.0,0.0,0.0,0.0,0.0,0.0,0.0,0.0,0.0,3.3603,3.7625,3.9993,4.0436,4.0487,4.0505,4.0491,4.0376,3.7539,0.0,0.0,0.0,0.0,0.0,0.0,0.0,0.0,0.0,0.0,0.0,0.0,0.0,0.0,0.0,0.0,0.0,0.0,0.0,0.0,0.0,0.0,0.0,0.0,0.0,0.0,0.0,0.0,0.0,0.0,0.0,0.0,0.0,0.0,0.0,0.0,0.0,0.0,0.0,0.0,0.0,3.7712,3.8984,4.029,4.142,0.0,0.0,4.1499,4.231,4.2414,4.1735,3.9646,0.0,0.0,0.0,0.0,0.0,0.0,0.0,0.0,0.0,0.0,0.0,0.0,0.0,0.0,0.0,0.0,0.0,0.0,0.0,0.0,0.0,0.0,0.0,0.0,0.0,0.0,0.0,0.0,0.0,0.0,0.0,0.0,0.0,0.0,0.0,0.0,0.0,0.0,0.0,0.0,0.0,0.0,0.0,0.0,0.0,0.0,0.0,0.0,0.0,0.0,0.0,0.0,0.0,3.2501,3.4249,3.9015,4.1587,4.1814,4.1784,4.1599,4.1186,4.1045,3.8714,0.0,0.0,0.0,0.0,0.0,0.0,0.0,0.0,0.0,0.0,0.0,0.0,0.0,0.0,0.0,0.0,0.0,0.0,0.0,0.0,0.0,0.0,0.0,0.0,0.0,0.0,0.0,0.0,2.8422,2.9588,3.0426,0.0,0.0,0.0,0.0,0.0,0.0,0.0,0.0,0.0,0.0,3.9866,4.0411,4.1371,0.0,0.0,4.2589,4.2441,4.1933,4.2219,4.1918,4.0189,3.9804,0.0,0.0,0.0,0.0,0.0,0.0,0.0,0.0,0.0,0.0,0.0,0.0,0.0,0.0,0.0,0.0,0.0,0.0,0.0,0.0,0.0,0.0,0.0,0.0,0.0,0.0,0.0,0.0,0.0,0.0,0.0,0.0,0.0,0.0,0.0,0.0,0.0,0.0,0.0,0.0,0.0,0.0,0.0,0.0,0.0,0.0,0.0,0.0,0.0,0.0,0.0,0.0,3.3437,3.4979,4.0005,4.2602,4.2602,4.2602,4.2294,4.1634,4.1565,3.9628,0.0,0.0,0.0,0.0,0.0,0.0,0.0,0.0,0.0,0.0,0.0,0.0,0.0,0.0,0.0,0.0,0.0,0.0,0.0,0.0,0.0,0.0,0.0,0.0,0.0,0.0,0.0,0.0,3.0509,3.1234,3.214,0.0,0.0,0.0,0.0,0.0,0.0,0.0,0.0,0.0,0.0,4.193,4.1959,4.2605,4.3087,4.3136,4.3319,4.3119,4.2138,4.2605,4.2557,4.0769,0.0,0.0,0.0,0.0,0.0,0.0,0.0,0.0,0.0,0.0,0.0,0.0,0.0,0.0,0.0,0.0,0.0,0.0,0.0,0.0,0.0,0.0,0.0,0.0,0.0,0.0,0.0,0.0,0.0,0.0,2.5702,0.0,0.0,0.0,0.0,0.0,0.0,0.0,0.0,0.0,0.0,0.0,0.0,0.0,0.0,0.0,0.0,0.0,0.0,0.0,0.0,0.0,0.0,3.4236,3.5787,4.0302,4.2663,4.2633,4.2633,4.2325,4.1648,4.1749,4.0036,3.6278,0.0,0.0,0.0,0.0,0.0,0.0,0.0,0.0,0.0,0.0,0.0,0.0,0.0,0.0,0.0,0.0,0.0,0.0,0.0,0.0,0.0,0.0,0.0,0.0,0.0,0.0,2.9512,3.1166,3.2633,0.0,0.0,0.0,0.0,0.0,0.0,0.0,0.0,0.0,0.0,4.1501,4.3378,4.3427,4.4041,4.4443,4.4525,4.3938,4.3452,4.346,4.4026,4.3783,0.0,0.0,0.0,0.0,0.0,0.0,0.0,0.0,0.0,0.0,0.0,0.0,0.0,0.0,0.0,0.0,0.0,0.0,0.0,0.0,0.0,0.0,0.0,0.0,0.0,0.0,0.0,3.0673,2.9397,0.0,0.0,0.0,0.0,0.0,0.0,0.0,0.0,0.0,0.0,0.0,3.2336,3.356,0.0,0.0,0.0,0.0,0.0,0.0,0.0,0.0,0.0,0.0,0.0,0.0,3.5463,3.6614,4.1409,4.3925,4.3944,4.4075,4.3519,4.2325,4.246,4.0534,3.6341,0.0,0.0,0.0,0.0,0.0,0.0,0.0,0.0,0.0,0.0,0.0,0.0,0.0,0.0,0.0,0.0,0.0,0.0,0.0,0.0,0.0,0.0,0.0,0.0,0.0,3.2456,0.0,0.0,0.0,0.0,0.0,0.0,0.0,0.0,0.0,0.0,0.0,3.9043,4.0954,4.2483,4.3604,4.4155,4.4834,4.5295,0.0,0.0,0.0,0.0,0.0,0.0,0.0,0.0,0.0,0.0,0.0,0.0,0.0,0.0,4.1493,4.0097,3.941,3.8936,3.8575,0.0,0.0,0.0,0.0,0.0,0.0,0.0,0.0,0.0,0.0,0.0,0.0,0.0,0.0,3.3761,0.0,3.2456,0.0,0.0,0.0,0.0,0.0,0.0,0.0,0.0,3.6257,3.6966,3.6253,3.7772,3.7966,0.0,3.6584,3.5213,0.0,0.0,0.0,0.0,0.0,0.0,0.0,0.0,3.7438,3.8796,4.3016,4.5214,4.5075,4.5189,4.4576,4.3203,4.2802,4.1287,3.8434,3.6707,3.5065,0.0,0.0,0.0,0.0,0.0,0.0,0.0,0.0,0.0,0.0,0.0,0.0,0.0,0.0,0.0,0.0,0.0,0.0,0.0,0.0,0.0,0.0,0.0,3.4982,0.0,0.0,0.0,0.0,0.0,0.0,0.0,0.0,0.0,3.8012,3.971,4.1591,4.3234,4.4302,4.5033,4.5326,0.0,0.0,0.0,0.0,0.0,0.0,0.0,4.481,4.4544,4.4495,4.4714,4.5406,4.5721,4.5758,4.5398,0.0,0.0,4.2716,4.1969,4.1763,4.1806,4.1777,4.1893,4.2331,4.3019,4.3758,0.0,0.0,0.0,0.0,0.0,0.0,0.0,0.0,3.7066,3.6208,0.0,3.5009,0.0,0.0,0.0,0.0,0.0,3.5668,0.0,0.0,4.0433,4.1849,4.1489,4.242,4.2917,4.2785,4.1932,4.118,4.0264,3.674,0.0,0.0,0.0,0.0,0.0,0.0,4.0074,4.2158,4.5035,4.6332,4.5877,4.5835,4.5309,4.4187,4.2847,4.2185,4.2245,3.8611,3.6489,3.6274,3.0367,0.0,0.0,0.0,0.0,0.0,0.0,0.0,0.0,0.0,0.0,0.0,0.0,0.0,0.0,0.0,0.0,0.0,0.0,0.0,0.0,3.7053,0.0,0.0,0.0,0.0,0.0,0.0,0.0,0.0,0.0,0.0,4.0555,4.2723,4.4817,4.5528,0.0,0.0,0.0,0.0,4.7497,4.6962,4.6914,4.6701,4.5967,4.6897,4.7471,4.6791,0.0,0.0,4.7724,4.8185,4.8313,4.7417,4.8427,4.8709,4.5758,4.452,4.4055,4.4584,4.4646,4.4527,4.4577,4.5441,4.6158,4.2508,0.0,0.0,0.0,0.0,3.9241,4.0383,4.2333,4.1745,4.0663,3.9263,3.8789,0.0,0.0,0.0,0.0,0.0,0.0,3.9445,4.0496,4.1531,4.22,4.2643,4.3278,4.3568,4.3501,4.3667,4.3653,4.335,4.2772,3.944,3.3728,0.0,0.0,0.0,0.0,4.1837,4.3022,4.4887,4.5811,4.5685,4.5375,4.4862,4.4206,4.3064,4.2616,4.2886,4.1484,3.9774,3.7775,3.5065,0.0,0.0,0.0,0.0,0.0,0.0,0.0,0.0,0.0,0.0,0.0,0.0,0.0,0.0,0.0,0.0,0.0,0.0,0.0,3.6997,3.8137,3.8456,0.0,0.0,0.0,0.0,0.0,0.0,0.0,0.0,0.0,4.5403,4.5375,4.5664,0.0,0.0,4.6997,4.6828,4.7768,4.8404,4.8171,4.9036,0.0,4.8638,4.8401,4.8429,4.8748,4.9566,5.0119,4.9879,4.9994,5.0009,4.9688,4.9873,4.9911,4.9603,4.8881,4.8364,4.841,4.8389,4.8542,4.8974,4.9321,4.9637,4.5684,4.2971,4.2109,4.2106,4.2702,4.2445,4.3518,4.5447,4.4959,4.4079,4.2983,4.259,4.0886,3.8282,3.8768,0.0,0.0,0.0,4.2202,4.3091,4.3767,4.4262,4.4607,4.5534,4.5643,4.5091,4.569,4.5976,4.5908,4.6303,4.3937,3.9005,0.0,0.0,3.8776,4.1853,4.3971,4.5015,4.6253,4.668,4.6125,4.5389,4.4999,4.4986,4.4037,4.3734,4.4153,4.3291,4.2198,4.0835,3.8355,3.6183,0.0,0.0,0.0,0.0,0.0,0.0,0.0,0.0,0.0,0.0,0.0,3.0185,2.9233,0.0,0.0,0.0,3.6719,3.8455,3.9938,4.0829,0.0,0.0,0.0,0.0,0.0,0.0,0.0,4.5565,4.7241,4.8309,4.8425,4.8059,4.7942,4.8329,4.8382,4.838,4.8415,0.0,4.9576,4.9558,5.0598,5.1107,5.0255,5.0249,5.0524,5.0842,5.1246,5.1517,5.1537,5.1525,5.1445,5.1357,5.1291,5.1347,5.1656,5.1448,5.1158,5.0847,5.078,5.0931,5.1334,5.1463,5.1675,4.8366,4.8664,4.685,4.6329,4.6672,4.6164,4.6346,4.6955,4.6902,4.6549,4.5964,4.6103,4.4907,4.2875,4.2868,0.0,4.3038,4.4626,4.5299,4.5218,4.6895,4.7417,4.7156,4.8699,4.8684,4.7235,4.8022,4.8261,4.8055,4.8098,4.7259,4.5675,4.5091,4.4359,4.3618,4.4904,4.6352,4.7662,4.8499,4.825,4.6919,4.5901,4.5653,4.6214,4.5483,4.5358,4.5897,4.4422,4.3902,4.4553,4.0799,3.8669,3.8733,0.0,0.0,0.0,0.0,0.0,0.0,0.0,0.0,0.0,0.0,0.0,0.0,0.0,0.0,0.0,4.2772,0.0,4.3923,4.4567,0.0,0.0,0.0,4.3928,4.4947,4.6765,4.7929,4.7866,0.0,0.0,4.9968,5.051,5.0948,5.0927,5.0945,5.0894,5.0902,5.1017,5.1093,5.1101,5.1847,5.2167,5.1603,5.2294,5.2887,5.2707,5.281,5.2776,5.2798,5.2785,5.269,5.2508,5.2577,5.2631,5.2435,5.2571,5.2663,5.2284,5.2124,5.204,5.2177,5.2284,5.2482,5.0906,5.0748,5.0294,4.9509,4.8562,4.8327,4.8308,4.8409,4.7902,4.7853,4.8157,4.768,4.7425,4.7413,4.7572,4.7645,4.7704,4.8837,4.8916,4.8306,4.9238,4.9523,4.9388,5.0302,5.0498,5.0085,5.0742,5.044,4.9345,4.9811,4.9323,4.7989,4.8292,4.7337,4.5149,4.6941,4.8068,4.8425,4.8306,4.7784,4.6939,4.6854,4.678,4.6718,4.6555,4.6485,4.664,4.5971,4.5681,4.5813,4.3918,4.2806,4.2758,3.72,0.0,0.0,0.0,0.0,0.0,0.0,0.0,0.0,0.0,3.4982,3.3045,0.0,3.8395,0.0,4.5923,4.8505,4.7763,4.8351,0.0,0.0,4.7494,4.7747,5.0167,5.0256,5.0387,5.1003,5.1417,5.1538,5.1317,5.1475,5.1737,5.216,5.2053,5.162,5.1078,5.2476,5.3288,5.2819,5.3629,5.4475,5.4211,5.3958,5.3777,5.3709,5.3685,5.3685,5.3685,5.3685,5.3664,5.3577,5.306,5.2905,5.3284,5.3422,5.3614,5.3891,5.3254,5.2702,5.3193,5.3361,5.3653,5.2149,5.2222,5.2143,5.1789,5.1277,5.038,4.9984,4.995,4.9544,4.9612,4.995,4.9544,4.9612,4.9968,5.0101,5.0142,5.0224,5.1113,5.1399,5.1224,5.1987,5.2262,5.2097,5.2836,5.2786,5.2037,5.2692,5.2392,5.1361,5.1491,5.1132,5.0194,5.0778,4.999,4.7972,4.8473,4.8583,4.8241,4.8003,4.7869,4.7827,4.728,4.6882,4.6745,4.6752,4.6767,4.6754,4.6253,4.5896,4.5607,4.4566,4.3815,4.3453,4.003,3.8455,0.0,0.0,0.0,0.0,0.0,0.0,0.0,0.0,0.0,0.0,0.0,4.2408,4.4601,4.8921,5.1061,4.963,5.0439,5.1217,5.1555,5.1127,5.1564,5.3541,5.3548,5.3482,5.3577,5.3798,5.3785,5.3419,5.3337,5.3479,5.3828,5.4031,5.371,5.26,5.3154,5.3582,5.3553,5.4531,5.5454,5.5796,5.5149,5.459,5.459,5.4867,5.508,5.508,5.5335,5.5432,5.5011,5.4539,5.4151,5.4175,5.4129,5.4276,5.446,5.4214,5.4044,5.4453,5.4607,5.4914,5.3106,5.355,5.3391,5.3736,5.4215,5.2611,5.182,5.1617,5.1603,5.1588,5.1641,5.1742,5.1809,5.1841,5.1809,5.1782,5.1891,5.2745,5.3361,5.3823,5.4646,5.4977,5.4833,5.5517,5.5083,5.3792,5.424,5.4079,5.3257,5.2991,5.2502,5.1893,5.2326,5.1948,5.0658,4.9595,4.8742,4.8031,4.793,4.8251,4.8942,4.7576,4.6764,4.666,4.6821,4.6898,4.6843,4.6332,4.5804,4.5323,4.4528,4.3848,4.3426,4.2909,4.2136,0.0,4.0715,0.0,0.0,0.0,0.0,0.0,0.0,0.0,0.0,4.5175,4.7167,4.8348,5.1725,5.301,5.1132,5.2198,5.3315,5.3974,5.4524,5.5121,5.5738,5.6274,5.6289,5.5555,5.6034,5.6113,5.5329,5.5345,5.5442,5.5433,5.6012,5.6026,5.4907,5.4104,5.3903,5.4296,5.5152,5.6336,5.692,5.6395,5.5852,5.5852,5.6295,5.6706,5.6706,5.7214,5.7385,5.6657,5.632,5.6018,5.527,5.524,5.5271,5.5518,5.5658,5.5728,5.5771,5.5793,5.6163,5.6123,5.6115,5.6066,5.6135,5.6222,5.5898,5.5074,5.392,5.3617,5.3648,5.4008,5.4583,5.4992,5.5229,5.4957,5.5025,5.5298,5.5767,5.5742,5.532,5.6046,5.6401,5.6365,5.6525,5.6377,5.601,5.6098,5.5087,5.307,5.3533,5.2817,5.1078,5.1644,5.129,5.0012,0.0,0.0,0.0,4.9087,4.8832,4.8944,4.8414,4.7884,4.7491,4.8286,0.0,4.8401,4.8271,4.8128,4.8034,4.7355,0.0,0.0,0.0,0.0,0.0,0.0,0.0,0.0,0.0,0.0,0.0,4.8842,4.8225,4.6222,4.9084,5.1205,5.1505,5.3788,5.5361,5.5547,5.6292,5.6918,5.707,5.718,5.7291,5.7407,5.7001,5.6517,5.64,5.5895,5.5515,5.5499,5.5807,5.6204,5.6319,5.6848,5.7474,5.7821,5.7166,5.6685,5.6375,5.7221,5.8475,5.9328,5.8652,5.7985,5.8183,5.8216,5.8348,5.8368,5.8467,5.8579,5.8285,5.7744,5.7442,5.7676,5.7794,5.7919,5.8542,5.8541,5.8068,5.6855,5.6738,5.7305,5.711,0.0,5.6932,5.7107,0.0,5.7405,5.718,5.6849,5.5614,5.5094,5.5175,5.553,5.5788,5.5961,5.5786,5.5973,5.6505,5.6719,5.6799,5.6833,5.7171,5.734,5.734,5.734,5.7309,5.7237,5.6787,5.6047,5.5007,5.473,5.3954,5.2595,5.2786,5.2552,5.1869,5.2229,5.1777,5.0512,5.0085,5.0016,5.0298,4.9809,4.9464,4.93,4.9789,0.0,0.0,0.0,0.0,0.0,0.0,0.0,0.0,0.0,0.0,4.8901,4.8336,4.8429,4.9582,5.025,5.1164,5.2379,5.3365,5.3213,5.1319,5.323,5.4702,5.5057,5.6122,5.6934,5.7306,5.7983,5.8457,5.8457,5.8761,5.8998,5.8927,5.8608,5.8327,5.8308,5.7928,5.7674,5.7674,5.7959,5.819,5.8224,5.8522,5.894,5.9209,5.8427,5.7634,5.7687,5.8286,5.9185,5.9899,5.9795,5.9466,5.9466,5.9767,6.0002,6.0035,6.0356,6.0572,6.0434,6.0079,5.9876,6.0032,6.0139,6.0246,6.0613,6.0957,6.109,6.0305,5.9333,5.8783,5.7752,5.7736,5.7524,5.7825,5.8449,5.8265,5.8596,5.908,0.0,0.0,0.0,5.6122,5.6124,5.6212,5.6124,5.6462,5.7109,5.7038,5.7306,5.79,5.79,5.79,5.79,5.79,5.79,5.7863,5.7181,5.6825,5.6877,5.5955,5.519,5.4612,5.4317,5.4232,5.4232,5.4232,5.3365,5.1665,5.1202,5.1255,5.1728,5.1257,5.1069,5.1173,5.1377,5.159,5.1867,5.1929,5.1639,5.1044,5.0995,5.0694,5.013,5.062,5.1365,5.2197,5.2873,5.3617,5.4465,5.4958,5.5635,5.647,5.7058,5.707,5.6341,5.6815,5.7509,5.8238,5.8306,5.8306,5.8306,5.8829,5.9182,5.9235,5.9742,6.008,6.008,6.008,5.9975,6.008,5.9956,6.0061,5.999,6.014,6.0317,6.0298,6.0353,6.0588,6.0435,5.9239,5.8439,5.9119,5.9437,5.9641,6.0309,6.0752,6.0689,6.0849,6.1429,6.1873,6.1975,6.2381,6.2697,6.2528,6.254,6.2444,6.2311,6.2409,6.2439,6.2341,6.3017,6.377,6.3859,6.2203,6.077,5.9448,5.9432,5.9306,5.9309,5.9397,5.938,5.9147,5.8771,5.8356,5.8043,5.7863,5.7667,5.7865,5.8237,5.7811,5.7843,5.8231,5.7909,5.7798,5.79,5.79,5.79,5.79,5.79,5.79,5.7881,5.7772,5.735,5.6691,5.6498,5.5995,5.5271,5.5149,5.5096,5.5128,5.5096,5.4967,5.4644,5.2803,5.1868,5.1963,5.2038,5.2168,5.2369,5.2994,5.3348,5.3395,5.3591,5.354,5.3258,5.3241,5.3479,5.4057,5.4242,5.494,5.6165,5.6628,5.7158,5.7755,5.775,5.7945,5.8546,5.9253,5.9336,5.8641,5.8607,5.8998,5.9708,5.9708,5.981,5.981,5.9877,5.9945,5.9945,6.0047,6.0114,6.0182,6.0182,6.0216,6.0283,6.008,6.0182,6.0419,6.0858,6.1264,6.1264,6.1738,6.2279,6.2443,6.1124,6.0232,6.0733,6.0955,6.125,6.1921,6.2618,6.2821,6.3037,6.3531,6.3869,6.3869,6.4005,6.4126,6.4227,6.4145,6.4151,6.4174,6.4736,6.469,6.4338,6.4681,6.5105,6.5158,6.4059,6.3148,5.9701,5.9701,5.9637,5.9763,6.0027,6.0255,6.0149,5.983,5.9666,5.8989,5.8061,5.7936,5.8045,5.8243,5.8009,5.7991,5.8153,5.7972,5.79,5.79,5.79,5.79,5.79,5.79,5.79,5.79,5.79,5.7698,5.7331,5.7312,5.6863,5.6054,5.5995,5.5995,5.5995,5.5995,5.5995,5.5962,5.452,5.3795,5.3795,5.3996,5.4353,5.4908,5.5295,5.573,5.6269,5.6389,5.6389,5.6286,5.6423,5.6611,5.6815,5.6918,5.7396,5.8384,5.8699,5.9095,5.9652,5.9504,5.9439,5.9592,5.9911,6.0182,6.025,5.9825,5.9742,6.0047,6.008,6.008,6.0114,6.0486,6.0757,6.0757,6.1095,6.1332,6.1351,6.1332,6.1501,6.1873,6.1921,6.211,6.2482,6.2888,6.3091,6.3125,6.3429,6.3734,6.4038,6.326,6.2651,6.3024,6.3125,6.3226,6.3531,6.3835,6.4072,6.4106,6.4377,6.458,6.4613,6.4613,6.4783,6.5121,6.5189,6.5358,6.5662,6.6068,6.6102,6.6026,6.6301,6.6651,6.6588,6.5912,6.4733,6.0193,6.0193,6.0125,6.0355,6.0774,6.1048,6.1056,6.0837,6.0671,5.9784,5.8527,5.8389,5.8426,5.8462,5.8426,5.8389,5.8389,5.8389,5.8389,5.8389,5.8389,5.8389,5.8389,5.8407,5.8389,5.8389,5.8389,5.8389,5.8407,5.8389,5.7992,5.7206,5.6982,5.6915,5.6915,5.6882,5.6915,5.6844,5.6231,5.5796,5.5616,5.5955,5.6484,5.7129,5.7204,5.7557,5.8384,5.8525,5.8611,5.8747,5.8959,5.9132,5.9128,5.9198,5.9455,5.9987,6.025,6.0456,6.0716,6.0789,6.0721,6.0641,6.0791,6.1177,6.1873,6.1467,6.096,6.0689,6.0858,6.096,6.1061,6.1637,6.2042,6.2076,6.257,6.2874,6.2888,6.2908,6.3091,6.3646,6.3768,6.3971,6.4444,6.4613,6.4512,6.4478,6.4613,6.4647,6.4783,6.485,6.4884,6.4986,6.485,6.4512,6.4613,6.4749,6.4816,6.485,6.5053,6.5222,6.5222,6.5155,6.529,6.5831,6.5933,6.6102,6.6656,6.6927,6.6893,6.6791,6.7167,6.7695,6.7395,6.7076,6.6062,6.1912,6.193,6.1725,6.1709,6.1744,6.1814,6.1552,6.1089,6.0966,6.0569,5.9968,5.9877,5.999,6.0136,5.9919,5.981,5.9844,5.9877,5.9844,5.9844,5.9911,5.9911,5.981,5.9844,5.9877,5.9844,5.981,5.9776,5.9742,5.981,5.9502,5.8785,5.8109,5.7821,5.7787,5.7806,5.7806,5.7772,5.7717,5.7293,5.6594,5.7275,5.7793,5.8063,5.8115,5.8117,5.838,5.8578,5.8992,5.9484,5.9855,6.0357,6.0909,6.1205,6.1345,6.1449,6.1623,6.1536,6.1125,6.1584,6.2024,6.2222,6.2787,6.3376,6.4106,6.414,6.3565,6.2618,6.2787,6.3037,6.324,6.3768,6.4072,6.4005,6.4174,6.441,6.4309,6.441,6.4444,6.4478,6.4512,6.4546,6.4715,6.4783,6.4715,6.485,6.4884,6.5087,6.5615,6.5696,6.5967,6.6203,6.5574,6.485,6.485,6.5209,6.5527,6.5628,6.6136,6.6318,6.6352,6.6385,6.6677,6.6609,6.6588,6.6656,6.6927,6.7286,6.7434,6.6994,6.7252,6.7692,6.7197,6.7238,6.6877,6.2038,6.1986,6.1935,6.2179,6.2579,6.3049,6.3117,6.2903,6.2761,6.2433,6.1987,6.1855,6.1246,6.0227,6.0152,6.008,6.008,6.008,6.008,6.008,6.008,6.008,6.008,6.008,6.008,6.008,6.008,6.008,6.008,6.008,5.9945,5.9674,5.9336,5.9201,5.9201,5.9201,5.9201,5.9201,5.9201,5.913,5.9043,5.8964,5.9218,5.9774,5.9968,6.0093,6.0217,6.0358,6.0565,6.0788,6.1051,6.1328,6.1623,6.1745,6.2162,6.2888,6.3677,6.4088,6.4019,6.3878,6.3859,6.4029,6.4111,6.4309,6.4546,6.4613,6.4309,6.3869,6.4005,6.4174,6.4187,6.441,6.4613,6.4613,6.4613,6.4613,6.4613,6.4613,6.4749,6.5155,6.5222,6.5459,6.5797,6.5899,6.5899,6.5899,6.5899,6.6203,6.6846,6.6981,6.7354,6.7895,6.759,6.688,6.6203,6.6102,6.6339,6.6406,6.6609,6.6791,6.6859,6.6791,6.6893,6.7354,6.7129,6.7151,6.7421,6.7163,6.7096,6.696,6.6927,6.7151,6.6825,6.7028,6.6984,6.2665,6.2665,6.2823,6.3293,6.3971,6.4528,6.4734,6.4626,6.4408,6.4127,6.373,6.3538,6.2673,6.1385,6.0926,6.0723,6.0723,6.0723,6.0723,6.0723,6.0742,6.0723,6.0723,6.0723,6.0723,6.0723,6.0757,6.0757,6.0689,6.0486,6.0419,6.0438,6.0329,6.025,6.0303,6.0343,6.0418,6.0418,6.0452,6.0669,6.1028,6.0708,6.0677,6.1076,6.1218,6.1377,6.1518,6.1571,6.1779,6.2142,6.2387,6.2701,6.3031,6.3171,6.3676,6.4648,6.5502,6.5975,6.6035,6.5596,6.5368,6.546,6.5229,6.5169,6.5318,6.5304,6.5324,6.5527,6.5527,6.5459,6.4918,6.5087,6.5189,6.5189,6.5222,6.5256,6.5527,6.5493,6.5865,6.6474,6.6779,6.6812,6.732,6.74,6.7434,6.7434,6.7434,6.759,6.8098,6.8233,6.8436,6.9011,6.9045,6.8639,6.7658,6.7489,6.7434,6.7455,6.7557,6.759,6.7455,6.7434,6.7468,6.8166,6.7692,6.7624,6.8098,6.7793,6.7434,6.7434,6.7434,6.7387,6.7252,6.7163,6.7028,6.4566,6.4637,6.518,6.5649,6.6215,6.6234,6.6046,6.566,6.5482,6.5187,6.4778,6.4572,6.4451,6.414,6.2821,6.2279,6.2299,6.2279,6.2265,6.2212,6.2265,6.2299,6.2299,6.2299,6.2265,6.2076,6.2076,6.2164,6.2164,6.1603,6.1264,6.125,6.1015,6.0776,6.0968,6.1311,6.127,6.1474,6.1492,6.1719,6.2307,6.252,6.2227,6.1688,6.1359,6.1532,6.1533,6.1588,6.2245,6.3498,6.3915,6.463,6.5715,6.6184,6.6474,6.6758,6.6881,6.6643,6.612,6.6318,6.6481,6.6337,6.639,6.6561,6.7162,6.6954,6.6981,6.7624,6.7557,6.7117,6.6102,6.6406,6.6711,6.669,6.669,6.7015,6.7624,6.7523,6.8098,6.8605,6.8639,6.8605,6.8876,6.9011,6.8842,6.8808,6.891,6.8944,6.8977,6.9045,6.9113,6.9214,6.9248,6.9113,6.9011,6.8639,6.8741,6.8673,6.8504,6.8808,6.8944,6.9011,6.8977,6.8977,6.8741,6.8707,6.8944,6.8944,6.8774,6.8707,6.8639,6.8504,6.7963,6.7895,6.7692,6.6181,6.6198,6.6408,6.6635,6.6773,6.6808,6.6536,6.6185,6.6091,6.5692,6.5161,6.5002,6.4822,6.458,6.4072,6.3802,6.3802,6.3802,6.3565,6.3159,6.3125,6.2854,6.2415,6.2415,6.2415,6.2415,6.2415,6.2415,6.2468,6.2584,6.2778,6.2983,6.3242,6.3465,6.3672,6.3939,6.4071,6.4055,6.4167,6.4526,6.4903,6.508,6.505,6.4933,6.4213,6.4141,6.4772,6.4826,6.5158,6.577,6.5914,6.6195,6.6629,6.7153,6.7523,6.7578,6.7905,6.8055,6.7955,6.8108,6.8295,6.8394,6.833,6.8334,6.8591,6.846,6.8402,6.8627,6.8639,6.8335,6.8098,6.8132,6.8267,6.8267,6.8267,6.8301,6.8571,6.8673,6.8808,6.9045,6.9079,6.9079,6.918,6.9113,6.9079,6.9079,6.9113,6.935,6.9688,6.9789,6.9925,7.0342,7.0511,7.0511,7.0478,6.9586,6.9113,6.9079,6.9045,6.9079,6.918,6.9282,6.9248,6.9654,6.962,6.9519,6.962,6.9485,6.9451,6.9316,6.9316,6.9316,6.8707,6.8673,6.8267,6.711,6.7266,6.7301,6.7405,6.7561,6.7561,6.7414,6.712,6.708,6.6758,6.6294,6.6176,6.5978,6.5758,6.5718,6.5718,6.5609,6.4979,6.4309,6.3883,6.3869,6.3599,6.3199,6.3249,6.3309,6.3309,6.3275,6.3309,6.3343,6.3818,6.4194,6.4503,6.5118,6.5514,6.5688,6.5937,6.605,6.6088,6.6166,6.6371,6.6626,6.6644,6.6875,6.7089,6.6523,6.6312,6.6808,6.6808,6.6984,6.7266,6.7301,6.7407,6.7687,6.8068,6.8413,6.8639,6.9056,6.938,6.9621,6.986,7.004,7.0055,6.9974,6.9927,6.9906,6.9688,6.9621,6.977,6.9872,6.9906,7.0178,7.0234,6.9934,6.9357,6.9079,6.9214,6.9417,6.9451,6.9586,6.9823,6.9925,6.9857,6.9823,6.9823,6.9857,6.9801,6.9823,7.006,7.0432,7.0567,7.0703,7.1176,7.1188,7.1154,7.1086,7.041,7.0094,7.0026,6.9891,6.9755,6.9654,6.9688,6.9823,7.0229,7.0364,7.0263,7.0128,7.0026,6.9891,6.9789,6.9958,7.0128,6.9722,6.9451,6.9011,6.7442,6.7907,6.7905,6.8199,6.8594,6.861,6.8638,6.8512,6.8374,6.8135,6.7945,6.8039,6.7743,6.7921,6.7669,6.7921,6.7452,6.5826,6.4871,6.4695,6.4674,6.4607,6.4458,6.4789,6.4967,6.4967,6.5104,6.5104,6.5035,6.5157,6.5456,6.588,6.6283,6.6588,6.6547,6.6925,6.7056,6.709,6.7177,6.7179,6.7023,6.7284,6.7614,6.7994,6.7992,6.7804,6.725,6.7163,6.7424,6.7942,6.7994,6.8309,6.901,6.9201,6.9446,7.0025,7.0367,7.0527,7.0729,7.1237,7.133,7.1116,7.0997,7.1067,7.1036,7.0724,7.074,7.1215,7.1408,7.1656,7.2186,7.2268,7.1525,6.9613,6.9437,6.9708,7.0048,7.0195,7.0432,7.0973,7.1052,7.1222,7.1222,7.1052,7.0951,7.0985,7.1019,7.1019,7.1109,7.1109,7.1255,7.1289,7.1289,7.1289,7.1289,7.1255,7.1222,7.1154,7.1019,7.085,7.0714,7.068,7.0613,7.0939,7.0906,7.0804,7.0804,7.0703,7.0804,7.0748,7.0917,7.0804,7.05,7.0128,6.9789,6.8742,6.8916,6.8916,6.9019,6.9174,6.9174,6.9024,6.8724,6.8628,6.8455,6.8236,6.8123,6.8083,6.8083,6.8083,6.8118,6.8029,6.727,6.6585,6.5914,6.5786,6.5499,6.5224,6.5495,6.5688,6.5688,6.5688,6.5688,6.5826,6.6219,6.6562,6.6934,6.7519,6.786,6.8028,6.8271,6.8436,6.8506,6.8961,6.9206,6.9258,6.9545,6.9834,7.0039,7.017,7.0145,6.9939,6.8996,6.8838,6.9427,6.9478,6.9847,7.0441,7.0597,7.0813,7.1157,7.1304,7.1355,7.1443,7.1913,7.2193,7.2106,7.2215,7.2365,7.2325,7.2085,7.1988,7.2243,7.2257,7.2395,7.2533,7.2602,7.2141,7.1185,7.1085,7.0932,7.0927,7.0962,7.1075,7.1222,7.1289,7.1289,7.1312,7.1312,7.1334,7.1289,7.1289,7.1289,7.1289,7.1289,7.1289,7.1289,7.1289,7.1289,7.1289,7.1289,7.1289,7.1289,7.1289,7.1289,7.1289,7.1289,7.1289,7.1289,7.1289,7.1289,7.1289,7.1289,7.1289,7.1289,7.1154,7.1052,7.0973,7.0737,7.0364,6.9823,6.9976,6.9992,6.9992,6.9992,6.9992,6.9825,6.9594,6.9575,6.9385,6.9224,6.9184,6.9184,6.9184,6.9184,6.9184,6.9164,6.9025,6.853,6.7773,6.7116,6.6724,6.6357,6.6746,6.6938,6.6938,6.6938,6.7073,6.7307,6.7722,6.8215,6.8702,6.9138,6.9497,6.9671,6.9825,6.9955,7.0135,7.052,7.0766,7.0797,7.1086,7.1253,7.1272,7.1389,7.1447,7.1377,7.052,7.0294,7.0661,7.0766,7.1011,7.1412,7.1412,7.1625,7.1944,7.2091,7.2216,7.2419,7.2851,7.3057,7.3068,7.3237,7.336,7.3369,7.3309,7.3379,7.315,7.3317,7.3428,7.3449,7.3428,7.3301,7.3098,7.2346,7.1944,7.1624,7.158,7.1656,7.1766,7.1832,7.1722,7.159,7.1557,7.1468,7.1356,7.1289,7.1289,7.1289,7.1289,7.1323,7.1323,7.1289,7.1289,7.1289,7.1289,7.1289,7.1289,7.1289,7.1289,7.1289,7.1289,7.1289,7.1289,7.1289,7.1289,7.1289,7.1289,7.1289,7.1289,7.1289,7.1222,7.112,7.1154,7.0917,7.057,7.1007,7.1041,7.0996,7.0996,7.0996,7.0926,7.0972,7.0957,7.0922,7.0917,7.0832,7.0902,7.0952,7.0778,7.0778,7.0928,7.055,7.0321,6.988,6.91,6.8394,6.8438,6.8748,6.8882,6.8882,6.8882,6.9134,6.9524,6.9608,7.0149,7.0728,7.0802,7.105,7.1086,7.1299,7.1291,7.1425,7.16,7.1686,7.1721,7.1807,7.1823,7.1858,7.1913,7.1932,7.1913,7.1846,7.176,7.176,7.1772,7.1839,7.1846,7.1795,7.2135,7.2598,7.2789,7.3105,7.3587,7.3817,7.3966,7.3981,7.4062,7.4076,7.4177,7.4429,7.4493,7.4202,7.447,7.4744,7.4723,7.4744,7.4754,7.4662,7.3351,7.2451,7.219,7.2181,7.2461,7.2648,7.2668,7.2541,7.2261,7.2217,7.2019,7.1751,7.165,7.1763,7.1684,7.1751,7.1458,7.1458,7.1582,7.1594,7.1718,7.209,7.209,7.2124,7.1954,7.1695,7.1424,7.1289,7.1289,7.1289,7.1289,7.1289,7.1289,7.1289,7.1289,7.1289,7.1289,7.1289,7.1289,7.1289,7.1255,7.1179,7.152,7.152,7.152,7.152,7.152,7.1501,7.152,7.1536,7.1567,7.1536,7.152,7.1532,7.152,7.1536,7.152,7.1494,7.14,7.1365,7.1296,7.1016,7.0771,7.0736,7.0832,7.0855,7.0801,7.0712,7.1011,7.1128,7.107,7.1249,7.152,7.1567,7.159,7.1597,7.1648,7.1616,7.176,7.2116,7.2302,7.2388,7.2689,7.2868,7.2903,7.3048,7.3127,7.3182,7.3335,7.3,7.2353,7.2684,7.2983,7.3107,7.3162,7.3302,7.3556,7.365,7.3745,7.3981,7.4357,7.4597,7.4627,7.4951,7.5205,7.5185,7.5283,7.5297,7.522,7.5332,7.5401,7.5422,7.5561,7.5562,7.5323,7.4437,7.3736,7.3645,7.3716,7.3748,7.3837,7.369,7.3567,7.3399,7.3344,7.3232,7.2983,7.2926,7.2994,7.2723,7.2417,7.2259,7.2169,7.2214,7.2157,7.2293,7.2699,7.2969,7.3037,7.2834,7.2394,7.1887,7.1323,7.1289,7.1289,7.1289,7.1289,7.1289,7.1289,7.1289,7.1289,7.1289,7.1289,7.1289,7.1289,7.1289,7.2014,7.2368,7.2368,7.2348,7.2348,7.2348,7.2348,7.2368,7.2368,7.2383,7.2348,7.2383,7.2368,7.2368,7.2383,7.2348,7.2368,7.2368,7.2383,7.2403,7.2462,7.2154,7.1811,7.1674,7.1674,7.1674,7.1709,7.1827,7.196,7.203,7.2131,7.2383,7.2368,7.2442,7.259,7.254,7.2598,7.2742,7.296,7.3147,7.3162,7.3412,7.3547,7.3617,7.3772,7.3862,7.4117,7.4502,7.4187,7.3487,7.3632,7.4025,7.4161,7.4395,7.4555,7.4656,7.4677,7.4697,7.4848,7.5096,7.5306,7.5437,7.5755,7.5853,7.5937,7.6063,7.621,7.5902,7.6077,7.621,7.628,7.6531,7.6663,7.6598,7.6097,7.5549,7.4963,7.4834,7.4969,7.5034,7.4977,7.4772,7.4552,7.4498,7.4274,7.398,7.3833,7.3867,7.3731,7.3413,7.3164,7.3142,7.3051,7.3051,7.3062,7.3378,7.3546,7.3681,7.3477,7.3071,7.2496,7.1695,7.1458,7.1424,7.1357,7.1323,7.1357,7.1357,7.1289,7.1289,7.1289,7.1289,7.1289,7.1289,7.1289,7.2908,7.334,7.334,7.3375,7.3345,7.334,7.3302,7.3345,7.3336,7.3316,7.3316,7.3345,7.3272,7.334,7.3277,7.3311,7.3331,7.3272,7.3401,7.3447,7.3462,7.3151,7.2458,7.2251,7.22,7.2165,7.1954,7.2298,7.2656,7.2702,7.2898,7.3173,7.3302,7.3467,7.3492,7.3597,7.3817,7.383,7.3896,7.3997,7.4012,7.4182,7.4317,7.4377,7.4457,7.4627,7.5012,7.5323,7.5204,7.4271,7.4647,7.4819,7.4939,7.5366,7.5534,7.5562,7.5554,7.5672,7.5874,7.5936,7.6131,7.629,7.638,7.6441,7.6613,7.6866,7.695,7.6607,7.6915,7.7125,7.723,7.7626,7.7779,7.7744,7.7819,7.7227,7.6321,7.5882,7.6008,7.6374,7.6415,7.6105,7.5769,7.5491,7.5366,7.5263,7.5127,7.5082,7.4889,7.4503,7.4332,7.4287,7.4173,7.406,7.4025,7.4058,7.4136,7.4168,7.3963,7.3578,7.3138,7.2496,7.1954,7.1751,7.209,7.1988,7.165,7.156,7.1492,7.1289,7.1289,7.1289,7.1289,7.1289,7.1289,7.3597,7.3837,7.3872,7.3837,7.3837,7.3837,7.3817,7.3852,7.3852,7.3847,7.3852,7.3852,7.3867,7.3867,7.3897,7.3837,7.3897,7.3932,7.4072,7.4421,7.4042,7.4112,7.3902,7.3721,7.3464,7.3413,7.3483,7.3549,7.365,7.3611,7.3701,7.3817,7.3927,7.3872,7.3997,7.4062,7.3951,7.4076,7.4412,7.4667,7.4752,7.505,7.5239,7.5382,7.5629,7.5795,7.595,7.6065,7.6035,7.5819,7.5609,7.5541,7.5527,7.5764,7.5959,7.6035,7.6111,7.6199,7.6275,7.6642,7.6873,7.6971,7.7293,7.7556,7.7556,7.7626,7.7709,7.7591,7.7666,7.7829,7.7957,7.8111,7.8237,7.8378,7.8385,7.8266,7.7965,7.7571,7.7417,7.7451,7.7331,7.7177,7.7011,7.6929,7.6789,7.657,7.6481,7.6448,7.6095,7.5617,7.5536,7.5489,7.5332,7.5219,7.514,7.5105,7.508,7.4988,7.4702,7.445,7.3986,7.3557,7.314,7.3015,7.3071,7.2766,7.2225,7.2124,7.2157,7.1751,7.1323,7.1357,7.1413,7.1357,7.1289,7.3911,7.401,7.401,7.401,7.401,7.401,7.401,7.406,7.4277,7.4377,7.4427,7.4627,7.4741,7.4741,7.4741,7.4755,7.4761,7.4862,7.5052,7.5271,7.5118,7.5249,7.5399,7.5143,7.4817,7.4185,7.3975,7.401,7.406,7.4262,7.4357,7.4392,7.4612,7.4785,7.4776,7.4726,7.4851,7.4967,7.5152,7.5376,7.5542,7.5761,7.5964,7.6152,7.6444,7.6689,7.6669,7.695,7.7034,7.7006,7.6803,7.6544,7.6433,7.6649,7.681,7.6866,7.695,7.7132,7.7307,7.7482,7.772,7.779,7.8069,7.8167,7.8215,7.8215,7.8215,7.8215,7.8237,7.8279,7.842,7.8441,7.8525,7.8532,7.8595,7.8595,7.8553,7.8364,7.8215,7.8194,7.8068,7.794,7.7902,7.785,7.7706,7.7311,7.7245,7.7235,7.727,7.6883,7.6804,7.6713,7.6501,7.6402,7.6313,7.6234,7.6095,7.5992,7.5752,7.5521,7.5223,7.4837,7.4452,7.4145,7.3713,7.3398,7.2935,7.2868,7.2699,7.2225,7.1887,7.165,7.1481,7.1357,7.1289,7.4025,7.4126,7.4126,7.4196,7.4227,7.4317,7.4352,7.4402,7.4792,7.5087,7.5111,7.5554,7.5596,7.5666,7.5673,7.5701,7.5729,7.5818,7.5907,7.609,7.605,7.6161,7.6246,7.6076,7.559,7.4431,7.4501,7.4501,7.4637,7.4798,7.5128,7.5131,7.5442,7.5582,7.5673,7.5701,7.5672,7.5802,7.5985,7.6146,7.6374,7.6514,7.6634,7.6815,7.7145,7.7398,7.7482,7.7726,7.7996,7.8001,7.8001,7.776,7.7593,7.7668,7.7958,7.7923,7.7891,7.7971,7.8084,7.8238,7.8336,7.8574,7.8574,7.8574,7.8553,7.8532,7.8511,7.8532,7.8532,7.8532,7.8595,7.8553,7.8553,7.8595,7.8595,7.8595,7.8595,7.8595,7.8532,7.8532,7.8427,7.8322,7.8279,7.8272,7.8165,7.8079,7.8015,7.7971,7.7971,7.7872,7.7624,7.7502,7.7257,7.7046,7.6959,7.678,7.6714,7.6553,7.6415,7.6253,7.6114,7.5818,7.5249,7.4551,7.4086,7.3906,7.3771,7.3646,7.3341,7.2766,7.2326,7.2056,7.1751,7.1391,7.1379,7.4242,7.4642,7.4697,7.4924,7.5324,7.5504,7.5536,7.5641,7.5854,7.6021,7.607,7.6135,7.6249,7.6199,7.6205,7.6205,7.6277,7.6409,7.6599,7.6796,7.6696,7.6652,7.6935,7.6722,7.6257,7.6011,7.5906,7.5906,7.5765,7.6006,7.5995,7.607,7.6164,7.6228,7.6242,7.6205,7.6298,7.6494,7.6726,7.695,7.7076,7.7363,7.7642,7.7804,7.8063,7.8175,7.8266,7.8385,7.8469,7.8504,7.8504,7.842,7.8273,7.823,7.825,7.825,7.8322,7.8427,7.849,7.8511,7.8532,7.8574,7.8595,7.8595,7.8595,7.8595,7.8595,7.8595,7.8595,7.8595,7.8595,7.8595,7.8595,7.8595,7.8595,7.8595,7.8595,7.8595,7.8595,7.8595,7.8574,7.8574,7.8546,7.8504,7.8385,7.83,7.8272,7.8229,7.8229,7.8087,7.7902,7.7837,7.7793,7.7619,7.75,7.7266,7.7054,7.685,7.6702,7.6576,7.6461,7.6414,7.5968,7.5293,7.4981,7.4934,7.4775,7.4538,7.4065,7.3603,7.3015,7.2485,7.2372,7.2293,7.1751,7.4968,7.5568,7.5568,7.5717,7.5971,7.6067,7.6129,7.6143,7.6549,7.6704,7.6823,7.6985,7.7132,7.7132,7.7132,7.7132,7.7139,7.7313,7.7482,7.7636,7.7572,7.7585,7.7811,7.7515,7.7521,7.7486,7.7451,7.6959,7.6432,7.657,7.671,7.6802,7.695,7.7132,7.7132,7.716,7.7202,7.7328,7.7587,7.7741,7.7825,7.8139,7.8308,7.8462,7.8546,7.8574,7.8595,7.8595,7.8574,7.8574,7.8574,7.8595,7.8588,7.8525,7.8462,7.8483,7.8532,7.8595,7.8595,7.8595,7.8574,7.8574,7.8595,7.8595,7.8595,7.8595,7.8595,7.8595,7.8595,7.8595,7.8595,7.8595,7.8595,7.8595,7.8595,7.8595,7.8595,7.8595,7.8595,7.8595,7.8574,7.8574,7.8574,7.8553,7.8574,7.8532,7.8504,7.8483,7.8441,7.83,7.8151,7.8151,7.813,7.8015,7.7863,7.7688,7.7411,7.7211,7.7054,7.6953,7.6794,7.6736,7.653,7.6105,7.5952,7.5767,7.5628,7.537,7.4905,7.4487,7.4206,7.3867,7.3481,7.3107,7.262,7.578,7.6477,7.6441,7.6526,7.6626,7.6667,7.6702,7.6807,7.7208,7.7412,7.7454,7.7837,7.8017,7.8031,7.8031,7.8031,7.8044,7.8244,7.8273,7.8315,7.8385,7.856,7.8595,7.8595,7.8434,7.8293,7.8363,7.7963,7.7219,7.7271,7.7377,7.7552,7.7886,7.8023,7.8004,7.7949,7.8173,7.8293,7.8357,7.8462,7.8532,7.8595,7.8595,7.8595,7.8595,7.8595,7.8595,7.8595,7.8595,7.8595,7.8595,7.8595,7.8595,7.8574,7.8574,7.8595,7.8595,7.8595,7.8595,7.8595,7.8595,7.8595,7.8595,7.8595,7.8595,7.8595,7.8595,7.8595,7.8595,7.8595,7.8595,7.8595,7.8595,7.8595,7.8595,7.8595,7.8595,7.8595,7.8595,7.8595,7.8595,7.8595,7.8595,7.8595,7.8595,7.8595,7.8532,7.8532,7.8511,7.8511,7.8448,7.8448,7.8441,7.8314,7.8186,7.8036,7.782,7.7601,7.7478,7.7424,7.7211,7.7077,7.6873,7.6691,7.6414,7.623,7.6228,7.6158,7.575,7.5445,7.5436,7.5106,7.4503,7.4025,7.3582,7.6485,7.6999,7.6999,7.7278,7.7696,7.7922,7.802,7.8063,7.8224,7.8448,7.8301,7.8441,7.8469,7.8448,7.8469,7.849,7.849,7.849,7.8511,7.8511,7.8553,7.8637,7.8637,7.8595,7.8782,7.8803,7.872,7.856,7.8215,7.8265,7.8322,7.835,7.8329,7.849,7.8406,7.8406,7.8532,7.8567,7.8567,7.8588,7.8574,7.8595,7.8595,7.8595,7.8595,7.8595,7.8595,7.8595,7.8595,7.8595,7.8595,7.8595,7.8595,7.8595,7.8595,7.8595,7.8595,7.8595,7.8616,7.8595,7.8595,7.8595,7.8595,7.8595,7.8595,7.8595,7.8595,7.8595,7.8595,7.8595,7.8595,7.8595,7.8595,7.8595,7.8595,7.8595,7.8595,7.8595,7.8595,7.8595,7.8595,7.8595,7.8595,7.8595,7.8595,7.8595,7.8595,7.8595,7.8595,7.8595,7.8595,7.8553,7.8588,7.8483,7.842,7.8293,7.8143,7.7928,7.7885,7.7841,7.761,7.7434,7.7468,7.729,7.6964,7.6736,7.6691,7.6622,7.645,7.6245,7.6017,7.5721,7.5322,7.4923,7.467,7.8361,7.7972,7.7937,7.807,7.83,7.8406,7.8483,7.8469,7.8567,7.8595,7.8595,7.8595,7.8595,7.8657,7.8595,7.8574,7.8595,7.8637,7.8595,7.8637,7.8678,7.8823,7.9074,7.9155,7.9216,7.9436,7.9296,7.9155,7.9034,7.8761,7.8595,7.8595,7.8595,7.8574,7.8595,7.8595,7.8574,7.8574,7.8574,7.8574,7.8595,7.8595,7.8595,7.8595,7.8616,7.8616,7.8657,7.8595,7.8595,7.8595,7.8595,7.8595,7.8699,7.8906,7.9115,7.9155,7.9459,7.9281,7.8741,7.8637,7.8616,7.8595,7.8595,7.8595,7.8595,7.8595,7.8595,7.8595,7.8595,7.8595,7.8595,7.8595,7.8595,7.8595,7.8595,7.8595,7.8595,7.8595,7.8595,7.8595,7.8595,7.8595,7.8595,7.8595,7.8595,7.8595,7.8595,7.8595,7.8595,7.8595,7.8595,7.8574,7.8574,7.8553,7.8511,7.8483,7.8357,7.8186,7.8143,7.8058,7.7872,7.782,7.7798,7.7776,7.7544,7.7367,7.7246,7.6964,7.6725,7.6622,7.6508,7.6302,7.613,7.6324,7.6001,7.987,7.9054,7.9034,7.9034,7.9054,7.9034,7.9054,7.9054,7.9095,7.9074,7.9054,7.9095,7.9095,7.9054,7.9135,7.9196,7.9095,7.9054,7.9054,7.9054,7.9095,7.9376,7.9617,7.9773,7.9947,8.0419,7.9927,7.9617,7.932,7.9095,7.8788,7.8616,7.8595,7.8595,7.8595,7.8595,7.8595,7.8595,7.8595,7.8595,7.8595,7.8595,7.8699,7.8803,7.8809,7.887,7.9013,7.9095,7.9115,7.9135,7.9175,7.9236,7.9276,7.9519,7.9715,7.9773,8.0061,7.9947,7.9376,7.9054,7.8803,7.8637,7.8595,7.8595,7.8595,7.8595,7.8595,7.8595,7.8595,7.8595,7.8595,7.8595,7.8595,7.8595,7.8595,7.8595,7.8595,7.8657,7.8637,7.8595,7.8595,7.8595,7.8595,7.8595,7.8595,7.8595,7.8595,7.8595,7.8595,7.8595,7.8595,7.8595,7.8574,7.8574,7.8574,7.8532,7.8483,7.8441,7.8378,7.8335,7.8173,7.8044,7.8036,7.8015,7.7958,7.7807,7.7579,7.7278,7.7009,7.7008,7.6996,7.7065,7.7087,7.7201,7.712,8.0327,8.0288,8.0288,8.025,8.0213,8.0252,8.0215,8.0082,8.0194,8.0139,8.0099,8.0177,8.0082,8.0139,8.008,8.0063,8.0177,8.0233,8.0137,8.0137,8.0288,8.0213,8.0326,8.0363,8.0419,8.053,8.04,8.0061,7.9656,7.9597,7.9135,7.8678,7.8803,7.8678,7.8741,7.8911,7.887,7.885,7.8885,7.8823,7.8803,7.8809,7.8973,7.934,7.9479,7.9676,8.0177,8.0118,8.0061,8.0042,8.0004,8.0023,7.9985,8.0177,8.0326,8.04,8.0567,8.0493,8.0156,7.9578,7.9135,7.8803,7.872,7.8829,7.8911,7.872,7.8637,7.8788,7.8952,7.8782,7.872,7.8595,7.8741,7.8637,7.8699,7.8844,7.8823,7.8782,7.8761,7.8637,7.8595,7.8595,7.8595,7.8595,7.8595,7.8595,7.8595,7.8595,7.8595,7.8595,7.8595,7.8595,7.8595,7.8574,7.8574,7.8553,7.8511,7.8511,7.8469,7.849,7.8469,7.8364,7.8215,7.8229,7.8208,7.8058,7.7928,7.7676,7.7522,7.749,7.7446,7.7402,7.729,7.7246,7.7223,8.151,8.1493,8.151,8.1072,8.0383,8.0383,8.0383,8.0383,8.0383,8.0383,8.0401,8.0383,8.0383,8.0401,8.0383,8.0383,8.0383,8.0364,8.042,8.0383,8.0383,8.0622,8.0768,8.1001,8.1108,8.1302,8.1143,8.0894,8.0677,8.025,8.0004,7.9676,7.9376,7.9459,7.9558,7.9597,7.9617,7.9637,7.9656,7.9695,7.9715,7.9715,7.9831,8.0023,8.0025,8.012,8.0327,8.0364,8.0383,8.0401,8.0438,8.0475,8.0567,8.0804,8.093,8.1001,8.1178,8.1196,8.0786,8.0101,7.9416,7.936,7.9459,7.9656,7.9578,7.9656,7.9695,7.9734,7.9617,7.9459,7.9196,7.9155,7.9115,7.8864,7.8885,7.9074,7.9155,7.9155,7.9155,7.9196,7.8809,7.8595,7.8595,7.8595,7.8595,7.8595,7.8595,7.8595,7.8595,7.8595,7.8595,7.8595,7.8595,7.8595,7.8595,7.8595,7.8595,7.8595,7.8595,7.8595,7.8595,7.8574,7.8448,7.8441,7.842,7.83,7.8215,7.8143,7.7993,7.782,7.771,7.7645,7.7512,7.7313,7.7246,8.2186,8.2186,8.2186,8.1734,8.0966,8.093,8.093,8.093,8.0966,8.093,8.093,8.093,8.093,8.093,8.0948,8.0984,8.1037,8.1019,8.0984,8.1001,8.109,8.1196,8.1441,8.1596,8.1734,8.2055,8.1835,8.1493,8.1143,8.084,8.0677,8.0511,8.0288,8.0326,8.0177,8.0383,8.0383,8.0383,8.0383,8.0383,8.0346,8.0327,8.053,8.0603,8.0677,8.0858,8.0984,8.1108,8.1072,8.1055,8.1037,8.0984,8.109,8.1302,8.151,8.1717,8.1852,8.1989,8.1407,8.0548,7.9812,7.9831,8.0061,8.0288,8.0383,8.0383,8.0196,8.0252,8.029,8.0232,7.9773,7.9754,7.9695,7.9519,7.9597,7.9773,7.9773,7.9773,7.9773,7.9754,7.942,7.924,7.9261,7.93,7.8952,7.8829,7.8595,7.8595,7.8595,7.8595,7.8595,7.8595,7.8595,7.8595,7.8595,7.8595,7.8595,7.8595,7.8595,7.8595,7.8595,7.8595,7.8595,7.8532,7.8511,7.8574,7.849,7.8343,7.8229,7.8079,7.795,7.782,7.7623,7.7424,7.7313,8.2186,8.2186,8.2186,8.2154,8.2002,8.2137,8.2088,8.1952,8.1985,8.1985,8.1952,8.1969,8.1985,8.1969,8.1852,8.1852,8.1869,8.1935,8.1935,8.1869,8.1818,8.2055,8.2088,8.2104,8.2071,8.2154,8.2055,8.1785,8.1389,8.1301,8.1302,8.1285,8.1162,8.0966,8.0475,8.0401,8.0401,8.042,8.0512,8.0567,8.0604,8.0641,8.093,8.1161,8.1266,8.1476,8.1717,8.1802,8.1785,8.1802,8.1835,8.1835,8.1902,8.1935,8.2018,8.2104,8.2137,8.217,8.2035,8.0984,8.0567,8.0456,8.0658,8.0731,8.0567,8.0511,8.0658,8.0858,8.0695,8.0567,8.0419,8.0382,8.0326,8.0213,8.025,8.04,8.04,8.04,8.04,8.0307,8.0344,8.029,8.0271,8.0139,7.9578,7.9196,7.8761,7.8637,7.872,7.8595,7.8595,7.8595,7.8595,7.8595,7.8595,7.8595,7.8595,7.8595,7.8595,7.8595,7.8595,7.8595,7.8595,7.8595,7.8595,7.8595,7.8595,7.8553,7.8406,7.8272,7.8079,7.7928,7.771,7.7557,7.7468,8.2186,8.2186,8.2186,8.2186,8.2186,8.2186,8.2186,8.2186,8.2186,8.2186,8.2186,8.2186,8.2186,8.2186,8.2186,8.2186,8.2186,8.2186,8.2186,8.2186,8.2186,8.2186,8.2186,8.2186,8.2186,8.2186,8.217,8.2137,8.1919,8.1835,8.1869,8.1885,8.1802,8.1802,8.1683,8.1579,8.1596,8.1596,8.1596,8.1596,8.1562,8.1544,8.1613,8.1852,8.1852,8.1952,8.217,8.2186,8.2186,8.2186,8.2186,8.2186,8.2186,8.2186,8.2186,8.2186,8.2186,8.2186,8.217,8.17,8.1424,8.1285,8.1285,8.1441,8.1562,8.1579,8.1579,8.151,8.1424,8.132,8.1108,8.1019,8.0894,8.0548,8.0585,8.0894,8.0984,8.0984,8.0966,8.0822,8.0786,8.064,8.0567,8.0768,8.0346,7.9968,7.9617,7.9296,7.9261,7.8844,7.8616,7.8595,7.8595,7.8595,7.8595,7.8741,7.8678,7.8595,7.8595,7.8595,7.8595,7.8595,7.8595,7.8595,7.8595,7.8595,7.8595,7.8574,7.8553,7.8427,7.8237,7.8143,7.8015,7.7863,7.771,8.2186,8.2186,8.2186,8.2186,8.2186,8.2186,8.2186,8.2186,8.2186,8.2186,8.2186,8.2186,8.2186,8.2186,8.2186,8.2186,8.2186,8.2186,8.2186,8.2186,8.2186,8.2186,8.2186,8.2186,8.2186,8.2186,8.2186,8.217,8.2137,8.217,8.2154,8.2137,8.2186,8.2121,8.2104,8.2104,8.2104,8.2071,8.2018,8.2071,8.2088,8.2121,8.2137,8.2154,8.2154,8.2186,8.2186,8.2186,8.2186,8.2186,8.2186,8.2186,8.2186,8.2186,8.2186,8.2186,8.2186,8.2186,8.217,8.2154,8.1852,8.17,8.2055,8.217,8.2186,8.2035,8.2088,8.2104,8.2186,8.1969,8.1647,8.1562,8.1424,8.1072,8.1161,8.151,8.1544,8.1544,8.1527,8.1389,8.1283,8.1072,8.093,8.1072,8.1126,8.084,8.0512,8.0177,7.987,7.94,7.9054,7.9074,7.9074,7.9175,7.9135,7.9013,7.8891,7.8637,7.8637,7.8678,7.8595,7.8595,7.8595,7.8595,7.8595,7.8595,7.8595,7.8574,7.8574,7.8532,7.8483,7.8378,7.8349,7.8165,7.7937,8.2186,8.2186,8.2186,8.2186,8.2186,8.2186,8.2186,8.2186,8.2186,8.2186,8.2186,8.2186,8.2186,8.2186,8.2186,8.2186,8.2186,8.2186,8.2186,8.2186,8.2186,8.2186,8.2186,8.2186,8.2186,8.2186,8.2186,8.2186,8.2186,8.2186,8.2186,8.2186,8.2186,8.2186,8.2186,8.2186,8.2186,8.2186,8.2186,8.2186,8.2186,8.2186,8.2186,8.2186,8.2186,8.2186,8.2186,8.2186,8.2186,8.2186,8.2186,8.2186,8.2186,8.2186,8.2186,8.2186,8.2186,8.2186,8.2186,8.2186,8.2186,8.2038,8.2137,8.2186,8.2186,8.2186,8.2186,8.2186,8.2186,8.2186,8.2121,8.2088,8.2055,8.1952,8.1952,8.2088,8.2088,8.2088,8.2088,8.2002,8.1985,8.1869,8.1802,8.1869,8.1666,8.1579,8.1302,8.1072,8.0695,8.0232,7.9947,7.9947,7.9947,7.9927,7.9812,7.9558,7.9256,7.9034,7.8829,7.8864,7.8741,7.8595,7.8595,7.8595,7.8595,7.8595,7.8595,7.8595,7.8574,7.8553,7.8588,7.8525,7.842,7.8378,7.8229,8.2186,8.2186,8.2186,8.2186,8.2186,8.2186,8.2186,8.2186,8.2186,8.2186,8.2186,8.2186,8.2186,8.2186,8.2186,8.2186,8.2186,8.2186,8.2186,8.2186,8.2186,8.2186,8.2186,8.2186,8.2186,8.2186,8.2186,8.2186,8.2186,8.2186,8.2186,8.2186,8.2186,8.2186,8.2186,8.2186,8.2186,8.2186,8.2186,8.2186,8.2186,8.2186,8.2186,8.2186,8.2186,8.2186,8.2186,8.2186,8.2186,8.2186,8.2186,8.2186,8.2186,8.2186,8.2186,8.2186,8.2186,8.2186,8.2186,8.2186,8.2186,8.2186,8.2186,8.2186,8.2186,8.2186,8.2186,8.2186,8.2186,8.2186,8.2186,8.2186,8.2186,8.2186,8.2186,8.2186,8.2186,8.2186,8.2186,8.2186,8.2186,8.2186,8.2186,8.2154,8.1952,8.2071,8.2038,8.1768,8.1493,8.0984,8.075,8.075,8.0622,8.0603,8.0382,8.0156,7.9773,7.942,7.9316,7.9095,7.8809,7.872,7.8637,7.8657,7.8761,7.8699,7.8595,7.8699,7.8973,7.8699,7.8637,7.8609,7.8567,7.8511,7.8427,8.2186,8.2186,8.2186,8.2186,8.2186,8.2186,8.2186,8.2186,8.2186,8.2186,8.2186,8.2186,8.2186,8.2186,8.2186,8.2186,8.2186,8.2186,8.2186,8.2186,8.2186,8.2186,8.2186,8.2186,8.2186,8.2186,8.2186,8.2186,8.2186,8.2186,8.2186,8.2186,8.2186,8.2186,8.2186,8.2186,8.2186,8.2186,8.2186,8.2186,8.2186,8.2186,8.2186,8.2186,8.2186,8.2186,8.2186,8.2186,8.2186,8.2186,8.2186,8.2186,8.2186,8.2186,8.2186,8.2186,8.2186,8.2186,8.2186,8.2186,8.2186,8.2186,8.2186,8.2186,8.2186,8.2186,8.2186,8.2186,8.2186,8.2186,8.2186,8.2186,8.2186,8.2186,8.2186,8.2186,8.2186,8.2186,8.2186,8.2186,8.2186,8.2186,8.2186,8.2186,8.2186,8.217,8.2154,8.2088,8.1902,8.163,8.1476,8.1441,8.1283,8.1161,8.0948,8.0713,8.04,8.008,7.9908,7.9637,7.9175,7.9155,7.932,7.9216,7.8993,7.8973,7.9013,7.9316,7.9499,7.9256,7.9175,7.9356,7.9216,7.8823,7.8678,8.2186,8.2186,8.2186,8.2186,8.2186,8.2186,8.2186,8.2186,8.2186,8.2186,8.2186,8.2186,8.2186,8.2186,8.2186,8.2186,8.2186,8.2186,8.2186,8.2186,8.2186,8.2186,8.2186,8.2186,8.2186,8.2186,8.2186,8.2186,8.2186,8.2186,8.2186,8.2186,8.2186,8.2186,8.2186,8.2186,8.2186,8.2186,8.2186,8.2186,8.2186,8.2186,8.2186,8.2186,8.2186,8.2186,8.2186,8.2186,8.2186,8.2186,8.2186,8.2186,8.2186,8.2186,8.2186,8.2186,8.2186,8.2186,8.2186,8.2186,8.2186,8.2186,8.2186,8.2186,8.2186,8.2186,8.2186,8.2186,8.2186,8.2186,8.2186,8.2186,8.2186,8.2186,8.2186,8.2186,8.2186,8.2186,8.2186,8.2186,8.2186,8.2186,8.2186,8.2186,8.2186,8.2186,8.2186,8.2186,8.2154,8.2038,8.1969,8.1919,8.1802,8.1613,8.151,8.1285,8.1019,8.0768,8.0548,8.0194,7.9715,7.985,8.0156,7.987,7.9594,7.9558,7.9637,7.987,8.0023,8.0042,8.0006,8.0215,7.9949,7.944,7.9074,8.2186,8.2186,8.2186,8.2186,8.2186,8.2186,8.2186,8.2186,8.2186,8.2186,8.2186,8.2186,8.2186,8.2186,8.2186,8.2186,8.2186,8.2186,8.2186,8.2186,8.2186,8.2186,8.2186,8.2186,8.2186,8.2186,8.2186,8.2186,8.2186,8.2186,8.2186,8.2186,8.2186,8.2186,8.2186,8.2186,8.2186,8.2186,8.2186,8.2186,8.2186,8.2186,8.2186,8.2186,8.2186,8.2186,8.2186,8.2186,8.2186,8.2186,8.2186,8.2186,8.2186,8.2186,8.2186,8.2186,8.2186,8.2186,8.2186,8.2186,8.2186,8.2186,8.2186,8.2186,8.2186,8.2186,8.2186,8.2186,8.2186,8.2186,8.2186,8.2186,8.2186,8.2186,8.2186,8.2186,8.2186,8.2186,8.2186,8.2186,8.2186,8.2186,8.2186,8.2186,8.2186,8.2186,8.2186,8.2186,8.2186,8.2137,8.2121,8.2088,8.2121,8.1985,8.1902,8.1802,8.151,8.1337,8.1108,8.0713,8.0271,8.025,8.0307,8.0326,8.0194,8.0194,8.0194,8.025,8.04,8.0586,8.0695,8.0822,8.0695,8.025,7.9812,8.2186,8.2186,8.2186,8.2186,8.2186,8.2186,8.2186,8.2186,8.2186,8.2186,8.2186,8.2186,8.2186,8.2186,8.2186,8.2186,8.2186,8.2186,8.2186,8.2186,8.2186,8.2186,8.2186,8.2186,8.2186,8.2186,8.2186,8.2186,8.2186,8.2186,8.2186,8.2186,8.2186,8.2186,8.2186,8.2186,8.2186,8.2186,8.2186,8.2186,8.2186,8.2186,8.2186,8.2186,8.2186,8.2186,8.2186,8.2186,8.2186,8.2186,8.2186,8.2186,8.2186,8.2186,8.2186,8.2186,8.2186,8.2186,8.2186,8.2186,8.2186,8.2186,8.2186,8.2186,8.2186,8.2186,8.2186,8.2186,8.2186,8.2186,8.2186,8.2186,8.2186,8.2186,8.2186,8.2186,8.2186,8.2186,8.2186,8.2186,8.2186,8.2186,8.2186,8.2186,8.2186,8.2186,8.2186,8.2186,8.2186,8.2186,8.2186,8.2186,8.2186,8.2186,8.2104,8.2055,8.1989,8.1818,8.1613,8.1493,8.1161,8.0677,8.0419,8.0658,8.0804,8.0804,8.0804,8.0876,8.1108,8.1441,8.1407,8.1337,8.1179,8.1019,8.075,8.2186,8.2186,8.2186,8.2186,8.2186,8.2186,8.2186,8.2186,8.2186,8.2186,8.2186,8.2186,8.2186,8.2186,8.2186,8.2186,8.2186,8.2186,8.2186,8.2186,8.2186,8.2186,8.2186,8.2186,8.2186,8.2186,8.2186,8.2186,8.2186,8.2186,8.2186,8.2186,8.2186,8.2186,8.2186,8.2186,8.2186,8.2186,8.2186,8.2186,8.2186,8.2186,8.2186,8.2186,8.2186,8.2186,8.2186,8.2186,8.2186,8.2186,8.2186,8.2186,8.2186,8.2186,8.2186,8.2186,8.2186,8.2186,8.2186,8.2186,8.2186,8.2186,8.2186,8.2186,8.2186,8.2186,8.2186,8.2186,8.2186,8.2186,8.2186,8.2186,8.2186,8.2186,8.2186,8.2186,8.2186,8.2186,8.2186,8.2186,8.2186,8.2186,8.2186,8.2186,8.2186,8.2186,8.2186,8.2186,8.2186,8.2186,8.2186,8.2186,8.2186,8.2186,8.2186,8.217,8.2137,8.2104,8.1935,8.2104,8.2018,8.1459,8.1197,8.132,8.1424,8.1389,8.1493,8.1596,8.1902,8.2038,8.1902,8.1751,8.1785,8.1664,8.1664,8.2186,8.2186,8.2186,8.2186,8.2186,8.2186,8.2186,8.2186,8.2186,8.2186,8.2186,8.2186,8.2186,8.2186,8.2186,8.2186,8.2186,8.2186,8.2186,8.2186,8.2186,8.2186,8.2186,8.2186,8.2186,8.2186,8.2186,8.2186,8.2186,8.2186,8.2186,8.2186,8.2186,8.2186,8.2186,8.2186,8.2186,8.2186,8.2186,8.2186,8.2186,8.2186,8.2186,8.2186,8.2186,8.2186,8.2186,8.2186,8.2186,8.2186,8.2186,8.2186,8.2186,8.2186,8.2186,8.2186,8.2186,8.2186,8.2186,8.2186,8.2186,8.2186,8.2186,8.2186,8.2186,8.2186,8.2186,8.2186,8.2186,8.2186,8.2186,8.2186,8.2186,8.2186,8.2186,8.2186,8.2186,8.2186,8.2186,8.2186,8.2186,8.2186,8.2186,8.2186,8.2186,8.2186,8.2186,8.2186,8.2186,8.2186,8.2186,8.2186,8.2186,8.2186,8.2186,8.2186,8.217,8.2186,8.2186,8.2186,8.2186,8.2154,8.2022,8.1852,8.1902,8.1919,8.2088,8.2055,8.2088,8.2137,8.2154,8.2121,8.2186,8.217,8.2002]}]]